Wetterdaten: Donnerstag, 06.07.2017
Datum Zeit Temp. A. Pool Temp. Feuchte A. Luftdruck Regen Wind Richtung Richtung Sonnenschein ET UV Solar Taupunkt Windchill Windben Empfang
06.07.2017 00:00 20,8 C 23,9 C 66 % 1015,1 hPa 0,0 l/m 4,5 km/h (1 Bft) S 175 0 min 0,000 mm 0,0 UV-I 0 W/m 14,2 C 20,8 C 8,0 km/h (2 Bft) 95,74 %
06.07.2017 00:02 20,8 C 23,9 C 66 % 1015,1 hPa 0,0 l/m 4,2 km/h (1 Bft) S-SW 194 0 min 0,000 mm 0,0 UV-I 0 W/m 14,2 C 20,8 C 8,0 km/h (2 Bft) 94,29 %
06.07.2017 00:04 20,8 C 23,9 C 66 % 1015,1 hPa 0,0 l/m 6,0 km/h (2 Bft) SW 215 0 min 0,000 mm 0,0 UV-I 0 W/m 14,2 C 20,8 C 9,7 km/h (2 Bft) 98,28 %
06.07.2017 00:06 20,8 C 23,9 C 66 % 1015,1 hPa 0,0 l/m 5,4 km/h (1 Bft) S-SW 200 0 min 0,000 mm 0,0 UV-I 0 W/m 14,2 C 20,8 C 9,7 km/h (2 Bft) 94,44 %
06.07.2017 00:08 20,8 C 23,9 C 66 % 1015,1 hPa 0,0 l/m 6,7 km/h (2 Bft) S 169 0 min 0,000 mm 0,0 UV-I 0 W/m 14,2 C 20,7 C 9,7 km/h (2 Bft) 98,00 %
06.07.2017 00:10 20,8 C 23,9 C 66 % 1015,1 hPa 0,0 l/m 4,1 km/h (1 Bft) S 185 0 min 0,000 mm 0,0 UV-I 0 W/m 14,2 C 20,8 C 8,0 km/h (2 Bft) 100,00 %
06.07.2017 00:12 20,8 C 23,9 C 66 % 1015,0 hPa 0,0 l/m 3,8 km/h (1 Bft) S-SO 166 0 min 0,000 mm 0,0 UV-I 0 W/m 14,2 C 20,8 C 8,0 km/h (2 Bft) 100,00 %
06.07.2017 00:14 20,8 C 23,9 C 66 % 1015,1 hPa 0,0 l/m 4,6 km/h (1 Bft) S 176 0 min 0,000 mm 0,0 UV-I 0 W/m 14,2 C 20,8 C 8,0 km/h (2 Bft) 95,74 %
06.07.2017 00:16 20,8 C 23,9 C 66 % 1015,1 hPa 0,0 l/m 5,9 km/h (2 Bft) S 191 0 min 0,000 mm 0,0 UV-I 0 W/m 14,2 C 20,8 C 8,0 km/h (2 Bft) 97,87 %
06.07.2017 00:18 20,7 C 23,9 C 66 % 1015,1 hPa 0,0 l/m 5,0 km/h (1 Bft) S-SW 198 0 min 0,000 mm 0,0 UV-I 0 W/m 14,1 C 20,7 C 8,0 km/h (2 Bft) 97,87 %
06.07.2017 00:20 20,7 C 23,9 C 67 % 1015,1 hPa 0,0 l/m 5,4 km/h (1 Bft) S-SW 193 0 min 0,000 mm 0,0 UV-I 0 W/m 14,3 C 20,7 C 8,0 km/h (2 Bft) 100,00 %
06.07.2017 00:22 20,7 C 23,9 C 67 % 1015,1 hPa 0,0 l/m 5,6 km/h (1 Bft) S-SW 194 0 min 0,000 mm 0,0 UV-I 0 W/m 14,3 C 20,7 C 9,7 km/h (2 Bft) 98,00 %
06.07.2017 00:24 20,7 C 23,9 C 67 % 1015,1 hPa 0,0 l/m 5,4 km/h (1 Bft) S-SW 207 0 min 0,000 mm 0,0 UV-I 0 W/m 14,3 C 20,7 C 9,7 km/h (2 Bft) 95,74 %
06.07.2017 00:26 20,6 C 23,9 C 67 % 1015,2 hPa 0,0 l/m 6,0 km/h (2 Bft) S 186 0 min 0,000 mm 0,0 UV-I 0 W/m 14,3 C 20,6 C 9,7 km/h (2 Bft) 100,00 %
06.07.2017 00:28 20,6 C 23,9 C 67 % 1015,2 hPa 0,0 l/m 5,4 km/h (1 Bft) S-SW 196 0 min 0,000 mm 0,0 UV-I 0 W/m 14,3 C 20,6 C 9,7 km/h (2 Bft) 95,74 %
06.07.2017 00:30 20,5 C 23,9 C 68 % 1015,2 hPa 0,0 l/m 5,7 km/h (1 Bft) S-SW 194 0 min 0,000 mm 0,0 UV-I 0 W/m 14,4 C 20,5 C 8,0 km/h (2 Bft) 97,87 %
06.07.2017 00:32 20,4 C 23,9 C 68 % 1015,2 hPa 0,0 l/m 4,0 km/h (1 Bft) S-SW 192 0 min 0,000 mm 0,0 UV-I 0 W/m 14,3 C 20,4 C 6,4 km/h (2 Bft) 97,44 %
06.07.2017 00:34 20,4 C 23,9 C 68 % 1015,2 hPa 0,0 l/m 3,6 km/h (1 Bft) S 187 0 min 0,000 mm 0,0 UV-I 0 W/m 14,3 C 20,4 C 6,4 km/h (2 Bft) 97,87 %
06.07.2017 00:36 20,3 C 23,9 C 68 % 1015,2 hPa 0,0 l/m 5,7 km/h (1 Bft) S-SW 192 0 min 0,000 mm 0,0 UV-I 0 W/m 14,2 C 20,3 C 8,0 km/h (2 Bft) 100,00 %
06.07.2017 00:38 20,3 C 23,9 C 68 % 1015,2 hPa 0,0 l/m 6,1 km/h (2 Bft) S-SW 194 0 min 0,000 mm 0,0 UV-I 0 W/m 14,2 C 20,3 C 8,0 km/h (2 Bft) 94,44 %
06.07.2017 00:40 20,3 C 23,9 C 68 % 1015,2 hPa 0,0 l/m 5,5 km/h (1 Bft) S 190 0 min 0,000 mm 0,0 UV-I 0 W/m 14,2 C 20,3 C 8,0 km/h (2 Bft) 100,00 %
06.07.2017 00:42 20,3 C 23,9 C 68 % 1015,2 hPa 0,0 l/m 3,6 km/h (1 Bft) S 187 0 min 0,000 mm 0,0 UV-I 0 W/m 14,2 C 20,3 C 6,4 km/h (2 Bft) 95,83 %
06.07.2017 00:44 20,3 C 23,9 C 68 % 1015,2 hPa 0,0 l/m 3,7 km/h (1 Bft) S 183 0 min 0,000 mm 0,0 UV-I 0 W/m 14,2 C 20,3 C 6,4 km/h (2 Bft) 95,74 %
06.07.2017 00:46 20,3 C 23,9 C 69 % 1015,2 hPa 0,0 l/m 3,6 km/h (1 Bft) S-SW 197 0 min 0,000 mm 0,0 UV-I 0 W/m 14,4 C 20,3 C 8,0 km/h (2 Bft) 97,87 %
06.07.2017 00:48 20,2 C 23,9 C 69 % 1015,3 hPa 0,0 l/m 1,8 km/h (1 Bft) S-SW 197 0 min 0,000 mm 0,0 UV-I 0 W/m 14,3 C 20,2 C 3,2 km/h (1 Bft) 97,87 %
06.07.2017 00:50 20,2 C 23,9 C 69 % 1015,3 hPa 0,0 l/m 2,7 km/h (1 Bft) S-SW 197 0 min 0,000 mm 0,0 UV-I 0 W/m 14,3 C 20,2 C 4,8 km/h (1 Bft) 100,00 %
06.07.2017 00:52 20,2 C 23,9 C 69 % 1015,2 hPa 0,0 l/m 3,2 km/h (1 Bft) S-SW 197 0 min 0,000 mm 0,0 UV-I 0 W/m 14,3 C 20,2 C 4,8 km/h (1 Bft) 97,87 %
06.07.2017 00:54 20,2 C 23,9 C 69 % 1015,3 hPa 0,0 l/m 2,3 km/h (1 Bft) S-SW 196 0 min 0,000 mm 0,0 UV-I 0 W/m 14,3 C 20,2 C 6,4 km/h (2 Bft) 100,00 %
06.07.2017 00:56 20,1 C 23,9 C 69 % 1015,2 hPa 0,0 l/m 3,3 km/h (1 Bft) S-SW 196 0 min 0,000 mm 0,0 UV-I 0 W/m 14,2 C 20,1 C 6,4 km/h (2 Bft) 97,87 %
06.07.2017 00:58 20,0 C 23,9 C 69 % 1015,3 hPa 0,0 l/m 4,4 km/h (1 Bft) S-SW 197 0 min 0,000 mm 0,0 UV-I 0 W/m 14,1 C 20,0 C 6,4 km/h (2 Bft) 95,74 %
06.07.2017 01:00 20,0 C 23,9 C 69 % 1015,3 hPa 0,0 l/m 6,8 km/h (2 Bft) S-SW 197 0 min 0,025 mm 0,0 UV-I 0 W/m 14,1 C 19,8 C 11,3 km/h (2 Bft) 100,00 %
06.07.2017 01:02 20,0 C 23,9 C 69 % 1015,3 hPa 0,0 l/m 5,9 km/h (2 Bft) S-SW 192 0 min 0,000 mm 0,0 UV-I 0 W/m 14,1 C 20,0 C 9,7 km/h (2 Bft) 97,87 %
06.07.2017 01:04 20,0 C 23,9 C 69 % 1015,3 hPa 0,0 l/m 5,6 km/h (1 Bft) S-SW 200 0 min 0,000 mm 0,0 UV-I 0 W/m 14,1 C 20,0 C 9,7 km/h (2 Bft) 95,74 %
06.07.2017 01:06 20,0 C 23,9 C 70 % 1015,3 hPa 0,0 l/m 5,7 km/h (1 Bft) S-SW 209 0 min 0,000 mm 0,0 UV-I 0 W/m 14,4 C 20,0 C 8,0 km/h (2 Bft) 95,74 %
06.07.2017 01:08 20,0 C 23,9 C 69 % 1015,3 hPa 0,0 l/m 5,5 km/h (1 Bft) S 188 0 min 0,000 mm 0,0 UV-I 0 W/m 14,1 C 20,0 C 9,7 km/h (2 Bft) 97,87 %
06.07.2017 01:10 20,0 C 23,9 C 69 % 1015,3 hPa 0,0 l/m 6,3 km/h (2 Bft) S 175 0 min 0,000 mm 0,0 UV-I 0 W/m 14,1 C 20,0 C 9,7 km/h (2 Bft) 93,62 %
06.07.2017 01:12 20,1 C 23,9 C 69 % 1015,3 hPa 0,0 l/m 6,9 km/h (2 Bft) S-SW 194 0 min 0,000 mm 0,0 UV-I 0 W/m 14,2 C 19,9 C 11,3 km/h (2 Bft) 96,00 %
06.07.2017 01:14 20,1 C 23,9 C 69 % 1015,3 hPa 0,0 l/m 6,1 km/h (2 Bft) S-SW 205 0 min 0,000 mm 0,0 UV-I 0 W/m 14,2 C 20,1 C 9,7 km/h (2 Bft) 94,00 %
06.07.2017 01:16 20,1 C 23,9 C 69 % 1015,3 hPa 0,0 l/m 7,4 km/h (2 Bft) S-SW 202 0 min 0,000 mm 0,0 UV-I 0 W/m 14,2 C 19,7 C 12,9 km/h (3 Bft) 94,00 %
06.07.2017 01:18 20,1 C 23,9 C 69 % 1015,3 hPa 0,0 l/m 6,2 km/h (2 Bft) S-SO 161 0 min 0,000 mm 0,0 UV-I 0 W/m 14,2 C 20,1 C 11,3 km/h (2 Bft) 95,83 %
06.07.2017 01:20 20,1 C 23,9 C 69 % 1015,3 hPa 0,0 l/m 5,5 km/h (1 Bft) SW 215 0 min 0,000 mm 0,0 UV-I 0 W/m 14,2 C 20,1 C 9,7 km/h (2 Bft) 93,48 %
06.07.2017 01:22 20,1 C 23,9 C 69 % 1015,3 hPa 0,0 l/m 5,7 km/h (1 Bft) S-SW 206 0 min 0,000 mm 0,0 UV-I 0 W/m 14,2 C 20,1 C 8,0 km/h (2 Bft) 97,87 %
06.07.2017 01:24 20,1 C 23,9 C 69 % 1015,3 hPa 0,0 l/m 6,8 km/h (2 Bft) S 189 0 min 0,000 mm 0,0 UV-I 0 W/m 14,2 C 19,9 C 11,3 km/h (2 Bft) 94,44 %
06.07.2017 01:26 20,1 C 23,9 C 69 % 1015,3 hPa 0,0 l/m 6,2 km/h (2 Bft) S-SW 196 0 min 0,000 mm 0,0 UV-I 0 W/m 14,2 C 20,1 C 11,3 km/h (2 Bft) 97,92 %
06.07.2017 01:28 20,1 C 23,9 C 69 % 1015,3 hPa 0,0 l/m 6,6 km/h (2 Bft) S-SW 213 0 min 0,000 mm 0,0 UV-I 0 W/m 14,2 C 20,0 C 12,9 km/h (3 Bft) 93,62 %
06.07.2017 01:30 20,1 C 23,9 C 69 % 1015,3 hPa 0,0 l/m 8,9 km/h (2 Bft) S-SW 204 0 min 0,000 mm 0,0 UV-I 0 W/m 14,2 C 19,1 C 14,5 km/h (3 Bft) 97,87 %
06.07.2017 01:32 20,1 C 23,9 C 69 % 1015,3 hPa 0,0 l/m 8,1 km/h (2 Bft) S-SW 209 0 min 0,000 mm 0,0 UV-I 0 W/m 14,2 C 19,4 C 12,9 km/h (3 Bft) 93,62 %
06.07.2017 01:34 20,0 C 23,3 C 69 % 1015,3 hPa 0,0 l/m 7,0 km/h (2 Bft) SW 219 0 min 0,000 mm 0,0 UV-I 0 W/m 14,1 C 19,8 C 11,3 km/h (2 Bft) 95,74 %
06.07.2017 01:36 20,0 C 23,9 C 69 % 1015,3 hPa 0,0 l/m 5,9 km/h (2 Bft) S-SW 211 0 min 0,000 mm 0,0 UV-I 0 W/m 14,1 C 20,0 C 8,0 km/h (2 Bft) 91,49 %
06.07.2017 01:38 19,9 C 23,9 C 69 % 1015,3 hPa 0,0 l/m 6,4 km/h (2 Bft) S-SW 200 0 min 0,000 mm 0,0 UV-I 0 W/m 14,0 C 19,9 C 9,7 km/h (2 Bft) 91,49 %
06.07.2017 01:40 19,9 C 23,9 C 69 % 1015,2 hPa 0,0 l/m 4,8 km/h (1 Bft) S-SW 211 0 min 0,000 mm 0,0 UV-I 0 W/m 14,0 C 19,9 C 8,0 km/h (2 Bft) 91,49 %
06.07.2017 01:42 19,9 C 23,9 C 69 % 1015,3 hPa 0,0 l/m 4,7 km/h (1 Bft) S-SW 211 0 min 0,000 mm 0,0 UV-I 0 W/m 14,0 C 19,9 C 6,4 km/h (2 Bft) 91,49 %
06.07.2017 01:44 19,8 C 23,9 C 69 % 1015,3 hPa 0,0 l/m 4,6 km/h (1 Bft) S-SW 210 0 min 0,000 mm 0,0 UV-I 0 W/m 13,9 C 19,8 C 6,4 km/h (2 Bft) 96,00 %
06.07.2017 01:46 19,8 C 23,9 C 70 % 1015,3 hPa 0,0 l/m 6,3 km/h (2 Bft) S-SW 209 0 min 0,000 mm 0,0 UV-I 0 W/m 14,2 C 19,8 C 9,7 km/h (2 Bft) 93,62 %
06.07.2017 01:48 19,8 C 23,3 C 70 % 1015,3 hPa 0,0 l/m 6,1 km/h (2 Bft) S-SW 209 0 min 0,000 mm 0,0 UV-I 0 W/m 14,2 C 19,8 C 8,0 km/h (2 Bft) 95,74 %
06.07.2017 01:50 19,7 C 23,3 C 70 % 1015,3 hPa 0,0 l/m 5,8 km/h (2 Bft) S-SW 209 0 min 0,000 mm 0,0 UV-I 0 W/m 14,1 C 19,7 C 8,0 km/h (2 Bft) 95,74 %
06.07.2017 01:52 19,7 C 23,3 C 70 % 1015,4 hPa 0,0 l/m 6,0 km/h (2 Bft) S-SW 209 0 min 0,000 mm 0,0 UV-I 0 W/m 14,1 C 19,7 C 8,0 km/h (2 Bft) 95,74 %
06.07.2017 01:54 19,7 C 23,3 C 70 % 1015,3 hPa 0,0 l/m 4,9 km/h (1 Bft) S-SW 209 0 min 0,000 mm 0,0 UV-I 0 W/m 14,1 C 19,7 C 8,0 km/h (2 Bft) 94,87 %
06.07.2017 01:56 19,6 C 23,3 C 70 % 1015,3 hPa 0,0 l/m 4,4 km/h (1 Bft) S-SW 209 0 min 0,000 mm 0,0 UV-I 0 W/m 14,0 C 19,6 C 8,0 km/h (2 Bft) 94,00 %
06.07.2017 01:58 19,6 C 23,3 C 70 % 1015,3 hPa 0,0 l/m 4,7 km/h (1 Bft) S-SW 208 0 min 0,000 mm 0,0 UV-I 0 W/m 14,0 C 19,6 C 8,0 km/h (2 Bft) 90,00 %
06.07.2017 02:00 19,6 C 23,3 C 71 % 1015,4 hPa 0,0 l/m 4,6 km/h (1 Bft) S-SW 202 0 min 0,026 mm 0,0 UV-I 0 W/m 14,2 C 19,6 C 6,4 km/h (2 Bft) 93,62 %
06.07.2017 02:02 19,5 C 23,3 C 71 % 1015,3 hPa 0,0 l/m 3,7 km/h (1 Bft) S-SW 202 0 min 0,000 mm 0,0 UV-I 0 W/m 14,1 C 19,5 C 6,4 km/h (2 Bft) 97,87 %
06.07.2017 02:04 19,5 C 23,3 C 71 % 1015,3 hPa 0,0 l/m 4,4 km/h (1 Bft) S-SW 203 0 min 0,000 mm 0,0 UV-I 0 W/m 14,1 C 19,5 C 6,4 km/h (2 Bft) 93,62 %
06.07.2017 02:06 19,5 C 23,3 C 71 % 1015,3 hPa 0,0 l/m 4,9 km/h (1 Bft) S-SW 203 0 min 0,000 mm 0,0 UV-I 0 W/m 14,1 C 19,5 C 6,4 km/h (2 Bft) 95,74 %
06.07.2017 02:08 19,5 C 23,3 C 71 % 1015,3 hPa 0,0 l/m 3,5 km/h (1 Bft) S-SW 202 0 min 0,000 mm 0,0 UV-I 0 W/m 14,1 C 19,5 C 6,4 km/h (2 Bft) 97,87 %
06.07.2017 02:10 19,4 C 23,3 C 71 % 1015,3 hPa 0,0 l/m 4,8 km/h (1 Bft) S-SW 202 0 min 0,000 mm 0,0 UV-I 0 W/m 14,0 C 19,4 C 6,4 km/h (2 Bft) 94,00 %
06.07.2017 02:12 19,5 C 23,3 C 71 % 1015,3 hPa 0,0 l/m 4,8 km/h (1 Bft) S-SW 204 0 min 0,000 mm 0,0 UV-I 0 W/m 14,1 C 19,5 C 8,0 km/h (2 Bft) 96,00 %
06.07.2017 02:14 19,5 C 23,3 C 71 % 1015,4 hPa 0,0 l/m 5,3 km/h (1 Bft) S-SW 205 0 min 0,000 mm 0,0 UV-I 0 W/m 14,1 C 19,5 C 8,0 km/h (2 Bft) 97,37 %
06.07.2017 02:16 19,5 C 23,3 C 71 % 1015,4 hPa 0,0 l/m 4,7 km/h (1 Bft) S-SW 203 0 min 0,000 mm 0,0 UV-I 0 W/m 14,1 C 19,5 C 6,4 km/h (2 Bft) 95,74 %
06.07.2017 02:18 19,4 C 23,3 C 71 % 1015,4 hPa 0,0 l/m 5,0 km/h (1 Bft) S-SW 196 0 min 0,000 mm 0,0 UV-I 0 W/m 14,0 C 19,4 C 8,0 km/h (2 Bft) 100,00 %
06.07.2017 02:20 19,4 C 23,3 C 71 % 1015,4 hPa 0,0 l/m 3,8 km/h (1 Bft) S-SW 196 0 min 0,000 mm 0,0 UV-I 0 W/m 14,0 C 19,4 C 6,4 km/h (2 Bft) 94,00 %
06.07.2017 02:22 19,4 C 23,3 C 72 % 1015,4 hPa 0,0 l/m 3,7 km/h (1 Bft) S-SW 196 0 min 0,000 mm 0,0 UV-I 0 W/m 14,2 C 19,4 C 6,4 km/h (2 Bft) 100,00 %
06.07.2017 02:24 19,4 C 23,3 C 72 % 1015,4 hPa 0,0 l/m 4,7 km/h (1 Bft) S-SW 196 0 min 0,000 mm 0,0 UV-I 0 W/m 14,2 C 19,4 C 8,0 km/h (2 Bft) 97,87 %
06.07.2017 02:26 19,4 C 23,3 C 71 % 1015,4 hPa 0,0 l/m 3,9 km/h (1 Bft) S-SW 196 0 min 0,000 mm 0,0 UV-I 0 W/m 14,0 C 19,4 C 6,4 km/h (2 Bft) 96,00 %
06.07.2017 02:28 19,4 C 23,3 C 72 % 1015,4 hPa 0,0 l/m 4,3 km/h (1 Bft) S-SW 197 0 min 0,000 mm 0,0 UV-I 0 W/m 14,2 C 19,4 C 8,0 km/h (2 Bft) 100,00 %
06.07.2017 02:30 19,4 C 23,3 C 71 % 1015,4 hPa 0,0 l/m 4,0 km/h (1 Bft) S-SW 197 0 min 0,000 mm 0,0 UV-I 0 W/m 14,0 C 19,4 C 6,4 km/h (2 Bft) 100,00 %
06.07.2017 02:32 19,4 C 23,3 C 71 % 1015,4 hPa 0,0 l/m 4,8 km/h (1 Bft) S 183 0 min 0,000 mm 0,0 UV-I 0 W/m 14,0 C 19,4 C 8,0 km/h (2 Bft) 93,62 %
06.07.2017 02:34 19,5 C 23,3 C 71 % 1015,3 hPa 0,0 l/m 5,4 km/h (1 Bft) S-SW 205 0 min 0,000 mm 0,0 UV-I 0 W/m 14,1 C 19,5 C 8,0 km/h (2 Bft) 100,00 %
06.07.2017 02:36 19,5 C 23,3 C 71 % 1015,3 hPa 0,0 l/m 4,1 km/h (1 Bft) S-SW 205 0 min 0,000 mm 0,0 UV-I 0 W/m 14,1 C 19,5 C 6,4 km/h (2 Bft) 93,48 %
06.07.2017 02:38 19,5 C 23,3 C 71 % 1015,3 hPa 0,0 l/m 4,9 km/h (1 Bft) S-SW 198 0 min 0,000 mm 0,0 UV-I 0 W/m 14,1 C 19,5 C 6,4 km/h (2 Bft) 97,22 %
06.07.2017 02:40 19,5 C 23,3 C 71 % 1015,3 hPa 0,0 l/m 5,5 km/h (1 Bft) S-SW 196 0 min 0,000 mm 0,0 UV-I 0 W/m 14,1 C 19,5 C 8,0 km/h (2 Bft) 96,08 %
06.07.2017 02:42 19,5 C 23,3 C 71 % 1015,3 hPa 0,0 l/m 4,4 km/h (1 Bft) S-SW 196 0 min 0,000 mm 0,0 UV-I 0 W/m 14,1 C 19,5 C 8,0 km/h (2 Bft) 97,87 %
06.07.2017 02:44 19,4 C 23,3 C 71 % 1015,4 hPa 0,0 l/m 5,6 km/h (1 Bft) S-SW 213 0 min 0,000 mm 0,0 UV-I 0 W/m 14,0 C 19,4 C 8,0 km/h (2 Bft) 95,74 %
06.07.2017 02:46 19,4 C 23,3 C 71 % 1015,4 hPa 0,0 l/m 6,7 km/h (2 Bft) S-SW 213 0 min 0,000 mm 0,0 UV-I 0 W/m 14,0 C 19,3 C 9,7 km/h (2 Bft) 100,00 %
06.07.2017 02:48 19,4 C 23,3 C 71 % 1015,3 hPa 0,0 l/m 6,6 km/h (2 Bft) S-SW 205 0 min 0,000 mm 0,0 UV-I 0 W/m 14,0 C 19,3 C 9,7 km/h (2 Bft) 97,87 %
06.07.2017 02:50 19,3 C 23,3 C 72 % 1015,4 hPa 0,0 l/m 4,7 km/h (1 Bft) S-SW 209 0 min 0,000 mm 0,0 UV-I 0 W/m 14,1 C 19,3 C 8,0 km/h (2 Bft) 100,00 %
06.07.2017 02:52 19,3 C 23,3 C 72 % 1015,4 hPa 0,0 l/m 4,4 km/h (1 Bft) S-SW 201 0 min 0,000 mm 0,0 UV-I 0 W/m 14,1 C 19,3 C 8,0 km/h (2 Bft) 100,00 %
06.07.2017 02:54 19,2 C 23,3 C 72 % 1015,3 hPa 0,0 l/m 3,7 km/h (1 Bft) S-SW 201 0 min 0,000 mm 0,0 UV-I 0 W/m 14,0 C 19,2 C 6,4 km/h (2 Bft) 100,00 %
06.07.2017 02:56 19,1 C 23,3 C 72 % 1015,3 hPa 0,0 l/m 4,1 km/h (1 Bft) S-SW 201 0 min 0,000 mm 0,0 UV-I 0 W/m 13,9 C 19,1 C 4,8 km/h (1 Bft) 97,87 %
06.07.2017 02:58 19,1 C 23,3 C 73 % 1015,4 hPa 0,0 l/m 4,5 km/h (1 Bft) SW 223 0 min 0,000 mm 0,0 UV-I 0 W/m 14,1 C 19,1 C 6,4 km/h (2 Bft) 100,00 %
06.07.2017 03:00 19,1 C 23,3 C 73 % 1015,4 hPa 0,0 l/m 4,9 km/h (1 Bft) SW 218 0 min 0,025 mm 0,0 UV-I 0 W/m 14,1 C 19,1 C 6,4 km/h (2 Bft) 97,87 %
06.07.2017 03:02 19,1 C 23,3 C 72 % 1015,4 hPa 0,0 l/m 3,9 km/h (1 Bft) SW 218 0 min 0,000 mm 0,0 UV-I 0 W/m 13,9 C 19,1 C 6,4 km/h (2 Bft) 97,87 %
06.07.2017 03:04 19,1 C 23,3 C 73 % 1015,4 hPa 0,0 l/m 4,9 km/h (1 Bft) SW 217 0 min 0,000 mm 0,0 UV-I 0 W/m 14,1 C 19,1 C 6,4 km/h (2 Bft) 95,74 %
06.07.2017 03:06 19,0 C 23,3 C 73 % 1015,5 hPa 0,0 l/m 2,4 km/h (1 Bft) SW 217 0 min 0,000 mm 0,0 UV-I 0 W/m 14,0 C 19,0 C 6,4 km/h (2 Bft) 97,87 %
06.07.2017 03:08 19,0 C 23,3 C 73 % 1015,4 hPa 0,0 l/m 2,6 km/h (1 Bft) SW 217 0 min 0,000 mm 0,0 UV-I 0 W/m 14,0 C 19,0 C 4,8 km/h (1 Bft) 100,00 %
06.07.2017 03:10 19,0 C 23,3 C 73 % 1015,5 hPa 0,0 l/m 2,7 km/h (1 Bft) SW 217 0 min 0,000 mm 0,0 UV-I 0 W/m 14,0 C 19,0 C 4,8 km/h (1 Bft) 97,87 %
06.07.2017 03:12 19,0 C 23,3 C 73 % 1015,5 hPa 0,0 l/m 2,5 km/h (1 Bft) SW 217 0 min 0,000 mm 0,0 UV-I 0 W/m 14,0 C 19,0 C 4,8 km/h (1 Bft) 100,00 %
06.07.2017 03:14 19,0 C 23,3 C 73 % 1015,5 hPa 0,0 l/m 2,0 km/h (1 Bft) SW 217 0 min 0,000 mm 0,0 UV-I 0 W/m 14,0 C 19,0 C 4,8 km/h (1 Bft) 100,00 %
06.07.2017 03:16 18,9 C 23,3 C 73 % 1015,6 hPa 0,0 l/m 0,5 km/h (0 Bft) SW 217 0 min 0,000 mm 0,0 UV-I 0 W/m 13,9 C 18,9 C 1,6 km/h (1 Bft) 97,87 %
06.07.2017 03:18 18,8 C 23,3 C 74 % 1015,6 hPa 0,0 l/m 0,0 km/h (0 Bft) SW 217 0 min 0,000 mm 0,0 UV-I 0 W/m 14,1 C 18,8 C 1,6 km/h (1 Bft) 95,83 %
06.07.2017 03:20 18,8 C 23,3 C 74 % 1015,6 hPa 0,0 l/m 0,0 km/h (0 Bft) SW 217 0 min 0,000 mm 0,0 UV-I 0 W/m 14,1 C 18,8 C 0,0 km/h (0 Bft) 100,00 %
06.07.2017 03:22 18,7 C 23,3 C 74 % 1015,6 hPa 0,0 l/m 0,0 km/h (0 Bft) SW 217 0 min 0,000 mm 0,0 UV-I 0 W/m 14,0 C 18,7 C 0,0 km/h (0 Bft) 95,74 %
06.07.2017 03:24 18,7 C 23,3 C 74 % 1015,5 hPa 0,0 l/m 0,0 km/h (0 Bft) SW 217 0 min 0,000 mm 0,0 UV-I 0 W/m 14,0 C 18,7 C 0,0 km/h (0 Bft) 95,74 %
06.07.2017 03:26 18,7 C 23,3 C 74 % 1015,6 hPa 0,0 l/m 0,0 km/h (0 Bft) SW 217 0 min 0,000 mm 0,0 UV-I 0 W/m 14,0 C 18,7 C 0,0 km/h (0 Bft) 97,87 %
06.07.2017 03:28 18,7 C 23,3 C 74 % 1015,6 hPa 0,0 l/m 0,0 km/h (0 Bft) SW 217 0 min 0,000 mm 0,0 UV-I 0 W/m 14,0 C 18,7 C 0,0 km/h (0 Bft) 95,74 %
06.07.2017 03:30 18,6 C 23,3 C 74 % 1015,6 hPa 0,0 l/m 0,0 km/h (0 Bft) SW 217 0 min 0,000 mm 0,0 UV-I 0 W/m 13,9 C 18,6 C 0,0 km/h (0 Bft) 95,74 %
06.07.2017 03:32 18,6 C 23,3 C 74 % 1015,6 hPa 0,0 l/m 0,4 km/h (0 Bft) SW 217 0 min 0,000 mm 0,0 UV-I 0 W/m 13,9 C 18,6 C 1,6 km/h (1 Bft) 97,87 %
06.07.2017 03:34 18,4 C 23,3 C 75 % 1015,6 hPa 0,0 l/m 0,0 km/h (0 Bft) SW 217 0 min 0,000 mm 0,0 UV-I 0 W/m 13,9 C 18,4 C 0,0 km/h (0 Bft) 97,14 %
06.07.2017 03:36 18,3 C 23,3 C 76 % 1015,7 hPa 0,0 l/m 0,7 km/h (0 Bft) SW 217 0 min 0,000 mm 0,0 UV-I 0 W/m 14,0 C 18,3 C 3,2 km/h (1 Bft) 96,00 %
06.07.2017 03:38 18,2 C 23,3 C 76 % 1015,7 hPa 0,0 l/m 1,5 km/h (1 Bft) SW 217 0 min 0,000 mm 0,0 UV-I 0 W/m 13,9 C 18,2 C 3,2 km/h (1 Bft) 97,87 %
06.07.2017 03:40 18,2 C 23,3 C 76 % 1015,7 hPa 0,0 l/m 1,0 km/h (0 Bft) SW 217 0 min 0,000 mm 0,0 UV-I 0 W/m 13,9 C 18,2 C 3,2 km/h (1 Bft) 95,74 %
06.07.2017 03:42 18,2 C 23,3 C 76 % 1015,7 hPa 0,0 l/m 0,0 km/h (0 Bft) SW 217 0 min 0,000 mm 0,0 UV-I 0 W/m 13,9 C 18,2 C 0,0 km/h (0 Bft) 95,74 %
06.07.2017 03:44 18,1 C 23,3 C 76 % 1015,7 hPa 0,0 l/m 0,0 km/h (0 Bft) SW 217 0 min 0,000 mm 0,0 UV-I 0 W/m 13,8 C 18,1 C 0,0 km/h (0 Bft) 95,74 %
06.07.2017 03:46 18,1 C 23,3 C 76 % 1015,8 hPa 0,0 l/m 0,9 km/h (0 Bft) SW 217 0 min 0,000 mm 0,0 UV-I 0 W/m 13,8 C 18,1 C 1,6 km/h (1 Bft) 95,74 %
06.07.2017 03:48 18,1 C 23,3 C 76 % 1015,8 hPa 0,0 l/m 0,9 km/h (0 Bft) SW 217 0 min 0,000 mm 0,0 UV-I 0 W/m 13,8 C 18,1 C 1,6 km/h (1 Bft) 97,87 %
06.07.2017 03:50 18,2 C 23,3 C 76 % 1015,8 hPa 0,0 l/m 0,8 km/h (0 Bft) SW 217 0 min 0,000 mm 0,0 UV-I 0 W/m 13,9 C 18,2 C 3,2 km/h (1 Bft) 93,62 %
06.07.2017 03:52 18,3 C 23,3 C 75 % 1015,8 hPa 0,0 l/m 0,7 km/h (0 Bft) SW 217 0 min 0,000 mm 0,0 UV-I 0 W/m 13,8 C 18,3 C 3,2 km/h (1 Bft) 97,87 %
06.07.2017 03:54 18,4 C 23,3 C 75 % 1015,9 hPa 0,0 l/m 2,2 km/h (1 Bft) SW 217 0 min 0,000 mm 0,0 UV-I 0 W/m 13,9 C 18,4 C 3,2 km/h (1 Bft) 96,00 %
06.07.2017 03:56 18,5 C 23,3 C 75 % 1015,9 hPa 0,0 l/m 2,0 km/h (1 Bft) SW 217 0 min 0,000 mm 0,0 UV-I 0 W/m 14,0 C 18,5 C 3,2 km/h (1 Bft) 97,92 %
06.07.2017 03:58 18,5 C 23,3 C 75 % 1015,8 hPa 0,0 l/m 2,6 km/h (1 Bft) SW 217 0 min 0,000 mm 0,0 UV-I 0 W/m 14,0 C 18,5 C 4,8 km/h (1 Bft) 95,74 %
06.07.2017 04:00 18,4 C 23,3 C 76 % 1015,8 hPa 0,0 l/m 3,5 km/h (1 Bft) SW 215 0 min 0,000 mm 0,0 UV-I 0 W/m 14,1 C 18,4 C 4,8 km/h (1 Bft) 95,74 %
06.07.2017 04:03 18,4 C 23,3 C 76 % 1015,9 hPa 0,0 l/m 2,3 km/h (1 Bft) SW 214 0 min 0,000 mm 0,0 UV-I 0 W/m 14,1 C 18,4 C 4,8 km/h (1 Bft) 100,00 %
06.07.2017 04:04 18,4 C 23,3 C 76 % 1015,9 hPa 0,0 l/m 3,6 km/h (1 Bft) S-SW 213 0 min 0,000 mm 0,0 UV-I 0 W/m 14,1 C 18,4 C 4,8 km/h (1 Bft) 93,33 %
06.07.2017 04:06 18,5 C 23,3 C 75 % 1015,9 hPa 0,0 l/m 3,8 km/h (1 Bft) S-SW 213 0 min 0,000 mm 0,0 UV-I 0 W/m 14,0 C 18,5 C 8,0 km/h (2 Bft) 93,62 %
06.07.2017 04:08 18,6 C 23,3 C 75 % 1015,8 hPa 0,0 l/m 2,0 km/h (1 Bft) S-SW 213 0 min 0,000 mm 0,0 UV-I 0 W/m 14,1 C 18,6 C 4,8 km/h (1 Bft) 100,00 %
06.07.2017 04:10 18,6 C 23,3 C 75 % 1015,8 hPa 0,0 l/m 2,8 km/h (1 Bft) S-SW 213 0 min 0,000 mm 0,0 UV-I 0 W/m 14,1 C 18,6 C 6,4 km/h (2 Bft) 97,87 %
06.07.2017 04:12 18,6 C 23,3 C 75 % 1015,9 hPa 0,0 l/m 2,5 km/h (1 Bft) S-SW 209 0 min 0,000 mm 0,0 UV-I 0 W/m 14,1 C 18,6 C 4,8 km/h (1 Bft) 97,87 %
06.07.2017 04:14 18,6 C 23,3 C 75 % 1015,9 hPa 0,0 l/m 1,9 km/h (1 Bft) S-SW 209 0 min 0,000 mm 0,0 UV-I 0 W/m 14,1 C 18,6 C 4,8 km/h (1 Bft) 100,00 %
06.07.2017 04:16 18,6 C 23,3 C 75 % 1015,8 hPa 0,0 l/m 3,9 km/h (1 Bft) S-SW 209 0 min 0,000 mm 0,0 UV-I 0 W/m 14,1 C 18,6 C 6,4 km/h (2 Bft) 97,87 %
06.07.2017 04:18 18,6 C 23,3 C 75 % 1015,8 hPa 0,0 l/m 3,0 km/h (1 Bft) S-SW 209 0 min 0,000 mm 0,0 UV-I 0 W/m 14,1 C 18,6 C 6,4 km/h (2 Bft) 95,74 %
06.07.2017 04:20 18,6 C 23,3 C 75 % 1015,8 hPa 0,0 l/m 3,1 km/h (1 Bft) S-SW 209 0 min 0,000 mm 0,0 UV-I 0 W/m 14,1 C 18,6 C 4,8 km/h (1 Bft) 97,87 %
06.07.2017 04:22 18,6 C 23,3 C 75 % 1015,7 hPa 0,0 l/m 1,8 km/h (1 Bft) S-SW 209 0 min 0,000 mm 0,0 UV-I 0 W/m 14,1 C 18,6 C 3,2 km/h (1 Bft) 100,00 %
06.07.2017 04:24 18,6 C 23,3 C 75 % 1015,8 hPa 0,0 l/m 1,7 km/h (1 Bft) S-SW 209 0 min 0,000 mm 0,0 UV-I 0 W/m 14,1 C 18,6 C 4,8 km/h (1 Bft) 97,87 %
06.07.2017 04:26 18,6 C 23,3 C 76 % 1015,8 hPa 0,0 l/m 1,6 km/h (1 Bft) S-SW 209 0 min 0,000 mm 0,0 UV-I 0 W/m 14,3 C 18,6 C 3,2 km/h (1 Bft) 100,00 %
06.07.2017 04:28 18,6 C 23,3 C 76 % 1015,8 hPa 0,0 l/m 2,7 km/h (1 Bft) S-SW 209 0 min 0,000 mm 0,0 UV-I 0 W/m 14,3 C 18,6 C 4,8 km/h (1 Bft) 95,74 %
06.07.2017 04:30 18,5 C 23,3 C 76 % 1015,9 hPa 0,0 l/m 2,3 km/h (1 Bft) S-SW 209 0 min 0,000 mm 0,0 UV-I 0 W/m 14,2 C 18,5 C 4,8 km/h (1 Bft) 100,00 %
06.07.2017 04:32 18,4 C 23,3 C 76 % 1015,8 hPa 0,0 l/m 2,1 km/h (1 Bft) S-SW 209 0 min 0,000 mm 0,0 UV-I 0 W/m 14,1 C 18,4 C 4,8 km/h (1 Bft) 95,83 %
06.07.2017 04:34 18,4 C 23,3 C 76 % 1015,8 hPa 0,0 l/m 2,0 km/h (1 Bft) S-SW 209 0 min 0,000 mm 0,0 UV-I 0 W/m 14,1 C 18,4 C 3,2 km/h (1 Bft) 97,87 %
06.07.2017 04:36 18,3 C 23,3 C 76 % 1015,9 hPa 0,0 l/m 2,7 km/h (1 Bft) S-SW 209 0 min 0,000 mm 0,0 UV-I 0 W/m 14,0 C 18,3 C 4,8 km/h (1 Bft) 100,00 %
06.07.2017 04:38 18,3 C 23,3 C 77 % 1015,9 hPa 0,0 l/m 0,7 km/h (0 Bft) S-SW 209 0 min 0,000 mm 0,0 UV-I 0 W/m 14,2 C 18,3 C 3,2 km/h (1 Bft) 97,87 %
06.07.2017 04:40 18,3 C 23,3 C 77 % 1015,9 hPa 0,0 l/m 1,7 km/h (1 Bft) S-SW 209 0 min 0,000 mm 0,0 UV-I 0 W/m 14,2 C 18,3 C 3,2 km/h (1 Bft) 100,00 %
06.07.2017 04:42 18,2 C 23,3 C 77 % 1015,9 hPa 0,0 l/m 0,9 km/h (0 Bft) S-SW 209 0 min 0,000 mm 0,0 UV-I 0 W/m 14,1 C 18,2 C 3,2 km/h (1 Bft) 97,87 %
06.07.2017 04:44 18,2 C 23,3 C 77 % 1015,9 hPa 0,0 l/m 0,9 km/h (0 Bft) S-SW 209 0 min 0,000 mm 0,0 UV-I 0 W/m 14,1 C 18,2 C 3,2 km/h (1 Bft) 97,87 %
06.07.2017 04:46 18,2 C 23,3 C 77 % 1015,9 hPa 0,0 l/m 0,7 km/h (0 Bft) S-SW 209 0 min 0,000 mm 0,0 UV-I 0 W/m 14,1 C 18,2 C 3,2 km/h (1 Bft) 97,87 %
06.07.2017 04:48 18,1 C 23,3 C 77 % 1016,0 hPa 0,0 l/m 0,0 km/h (0 Bft) S-SW 209 0 min 0,000 mm 0,0 UV-I 0 W/m 14,0 C 18,1 C 0,0 km/h (0 Bft) 100,00 %
06.07.2017 04:50 17,9 C 23,3 C 78 % 1016,1 hPa 0,0 l/m 0,0 km/h (0 Bft) S-SW 209 0 min 0,000 mm 0,0 UV-I 0 W/m 14,0 C 17,9 C 0,0 km/h (0 Bft) 93,62 %
06.07.2017 04:52 17,8 C 23,3 C 78 % 1016,1 hPa 0,0 l/m 0,0 km/h (0 Bft) S-SW 209 0 min 0,000 mm 0,0 UV-I 0 W/m 13,9 C 17,8 C 0,0 km/h (0 Bft) 97,87 %
06.07.2017 04:54 17,7 C 23,3 C 78 % 1016,1 hPa 0,0 l/m 0,0 km/h (0 Bft) S-SW 209 0 min 0,000 mm 0,0 UV-I 0 W/m 13,8 C 17,7 C 0,0 km/h (0 Bft) 94,00 %
06.07.2017 04:56 17,6 C 23,3 C 79 % 1016,2 hPa 0,0 l/m 0,0 km/h (0 Bft) S-SW 209 0 min 0,000 mm 0,0 UV-I 0 W/m 13,9 C 17,6 C 0,0 km/h (0 Bft) 97,87 %
06.07.2017 04:58 17,5 C 23,3 C 80 % 1016,2 hPa 0,0 l/m 0,0 km/h (0 Bft) S-SW 209 0 min 0,000 mm 0,0 UV-I 5 W/m 14,0 C 17,5 C 0,0 km/h (0 Bft) 97,87 %
06.07.2017 05:00 17,4 C 23,3 C 80 % 1016,2 hPa 0,0 l/m 0,0 km/h (0 Bft) S-SW 209 0 min 0,000 mm 0,0 UV-I 5 W/m 13,9 C 17,4 C 0,0 km/h (0 Bft) 97,87 %
06.07.2017 05:02 17,4 C 23,3 C 80 % 1016,2 hPa 0,0 l/m 0,0 km/h (0 Bft) S-SW 209 0 min 0,000 mm 0,0 UV-I 5 W/m 13,9 C 17,4 C 0,0 km/h (0 Bft) 97,87 %
06.07.2017 05:04 17,4 C 23,3 C 80 % 1016,2 hPa 0,0 l/m 0,6 km/h (0 Bft) S-SW 209 0 min 0,000 mm 0,0 UV-I 5 W/m 13,9 C 17,4 C 1,6 km/h (1 Bft) 93,62 %
06.07.2017 05:06 17,3 C 23,3 C 80 % 1016,2 hPa 0,0 l/m 2,5 km/h (1 Bft) S-SW 209 0 min 0,000 mm 0,0 UV-I 5 W/m 13,8 C 17,3 C 3,2 km/h (1 Bft) 91,49 %
06.07.2017 05:08 17,3 C 23,3 C 81 % 1016,3 hPa 0,0 l/m 3,3 km/h (1 Bft) S-SW 209 0 min 0,000 mm 0,0 UV-I 7 W/m 14,0 C 17,3 C 4,8 km/h (1 Bft) 95,74 %
06.07.2017 05:10 17,1 C 23,3 C 81 % 1016,3 hPa 0,0 l/m 2,7 km/h (1 Bft) S-SW 209 0 min 0,000 mm 0,0 UV-I 7 W/m 13,8 C 17,1 C 3,2 km/h (1 Bft) 97,87 %
06.07.2017 05:12 17,0 C 23,3 C 82 % 1016,3 hPa 0,0 l/m 1,5 km/h (1 Bft) S-SW 209 0 min 0,000 mm 0,0 UV-I 7 W/m 13,9 C 17,0 C 1,6 km/h (1 Bft) 97,87 %
06.07.2017 05:14 16,9 C 23,3 C 82 % 1016,3 hPa 0,0 l/m 1,6 km/h (1 Bft) S-SW 209 0 min 0,000 mm 0,0 UV-I 9 W/m 13,8 C 16,9 C 3,2 km/h (1 Bft) 95,74 %
06.07.2017 05:16 16,9 C 23,3 C 82 % 1016,3 hPa 0,0 l/m 2,1 km/h (1 Bft) S-SW 209 0 min 0,000 mm 0,0 UV-I 9 W/m 13,8 C 16,9 C 3,2 km/h (1 Bft) 93,75 %
06.07.2017 05:18 16,9 C 23,3 C 82 % 1016,3 hPa 0,0 l/m 3,0 km/h (1 Bft) S-SW 209 0 min 0,000 mm 0,0 UV-I 10 W/m 13,8 C 16,9 C 3,2 km/h (1 Bft) 97,87 %
06.07.2017 05:20 16,9 C 23,3 C 82 % 1016,3 hPa 0,0 l/m 2,5 km/h (1 Bft) S-SW 209 0 min 0,000 mm 0,0 UV-I 11 W/m 13,8 C 16,9 C 3,2 km/h (1 Bft) 94,74 %
06.07.2017 05:22 16,8 C 23,3 C 83 % 1016,4 hPa 0,0 l/m 1,8 km/h (1 Bft) S-SW 209 0 min 0,000 mm 0,0 UV-I 11 W/m 13,9 C 16,8 C 3,2 km/h (1 Bft) 97,87 %
06.07.2017 05:24 16,9 C 23,3 C 83 % 1016,4 hPa 0,0 l/m 0,1 km/h (0 Bft) S-SW 209 2 min 0,000 mm 0,0 UV-I 12 W/m 14,0 C 16,9 C 1,6 km/h (1 Bft) 95,74 %
06.07.2017 05:26 16,8 C 23,3 C 83 % 1016,4 hPa 0,0 l/m 1,5 km/h (1 Bft) S-SW 209 2 min 0,000 mm 0,0 UV-I 12 W/m 13,9 C 16,8 C 3,2 km/h (1 Bft) 95,74 %
06.07.2017 05:28 16,8 C 23,3 C 83 % 1016,5 hPa 0,0 l/m 2,5 km/h (1 Bft) S-SW 209 0 min 0,000 mm 0,0 UV-I 13 W/m 13,9 C 16,8 C 3,2 km/h (1 Bft) 95,74 %
06.07.2017 05:30 16,7 C 23,3 C 84 % 1016,5 hPa 0,0 l/m 2,9 km/h (1 Bft) S-SW 209 0 min 0,000 mm 0,0 UV-I 15 W/m 14,0 C 16,7 C 4,8 km/h (1 Bft) 97,87 %
06.07.2017 05:32 16,6 C 23,3 C 84 % 1016,6 hPa 0,0 l/m 4,1 km/h (1 Bft) O-NO 57 0 min 0,000 mm 0,0 UV-I 19 W/m 13,9 C 16,6 C 6,4 km/h (2 Bft) 91,49 %
06.07.2017 05:34 16,6 C 23,3 C 84 % 1016,6 hPa 0,0 l/m 6,5 km/h (2 Bft) O-NO 71 2 min 0,000 mm 0,0 UV-I 24 W/m 13,9 C 16,6 C 8,0 km/h (2 Bft) 97,87 %
06.07.2017 05:36 16,8 C 23,3 C 84 % 1016,6 hPa 0,0 l/m 6,3 km/h (2 Bft) O 94 0 min 0,000 mm 0,0 UV-I 24 W/m 14,1 C 16,8 C 11,3 km/h (2 Bft) 96,00 %
06.07.2017 05:38 16,9 C 23,3 C 83 % 1016,5 hPa 0,0 l/m 4,5 km/h (1 Bft) O 98 0 min 0,000 mm 0,0 UV-I 21 W/m 14,0 C 16,9 C 6,4 km/h (2 Bft) 93,62 %
06.07.2017 05:40 17,1 C 23,3 C 83 % 1016,6 hPa 0,0 l/m 4,4 km/h (1 Bft) O-SO 114 0 min 0,000 mm 0,0 UV-I 20 W/m 14,2 C 17,1 C 6,4 km/h (2 Bft) 93,62 %
06.07.2017 05:42 17,2 C 23,3 C 82 % 1016,6 hPa 0,0 l/m 2,7 km/h (1 Bft) O-SO 115 0 min 0,000 mm 0,0 UV-I 29 W/m 14,1 C 17,2 C 4,8 km/h (1 Bft) 93,62 %
06.07.2017 05:44 17,3 C 23,3 C 82 % 1016,6 hPa 0,0 l/m 3,6 km/h (1 Bft) O-SO 115 0 min 0,000 mm 0,0 UV-I 34 W/m 14,2 C 17,3 C 4,8 km/h (1 Bft) 91,49 %
06.07.2017 05:46 17,4 C 23,3 C 81 % 1016,6 hPa 0,0 l/m 3,2 km/h (1 Bft) O-SO 117 0 min 0,000 mm 0,0 UV-I 37 W/m 14,1 C 17,4 C 4,8 km/h (1 Bft) 93,62 %
06.07.2017 05:48 17,4 C 23,3 C 81 % 1016,5 hPa 0,0 l/m 3,6 km/h (1 Bft) S-SO 148 0 min 0,000 mm 0,0 UV-I 39 W/m 14,1 C 17,4 C 8,0 km/h (2 Bft) 96,00 %
06.07.2017 05:50 17,5 C 23,3 C 81 % 1016,5 hPa 0,0 l/m 3,7 km/h (1 Bft) SO 143 2 min 0,000 mm 0,0 UV-I 44 W/m 14,2 C 17,5 C 9,7 km/h (2 Bft) 94,87 %
06.07.2017 05:52 17,5 C 23,3 C 80 % 1016,6 hPa 0,0 l/m 3,8 km/h (1 Bft) SO 134 2 min 0,000 mm 0,0 UV-I 51 W/m 14,0 C 17,5 C 6,4 km/h (2 Bft) 93,75 %
06.07.2017 05:54 17,6 C 23,3 C 80 % 1016,6 hPa 0,0 l/m 3,9 km/h (1 Bft) SO 124 2 min 0,000 mm 0,0 UV-I 56 W/m 14,1 C 17,6 C 6,4 km/h (2 Bft) 94,00 %
06.07.2017 05:56 17,6 C 23,3 C 80 % 1016,6 hPa 0,0 l/m 2,2 km/h (1 Bft) SO 127 0 min 0,000 mm 0,0 UV-I 51 W/m 14,1 C 17,6 C 4,8 km/h (1 Bft) 92,00 %
06.07.2017 05:58 17,7 C 23,3 C 80 % 1016,6 hPa 0,0 l/m 2,8 km/h (1 Bft) SO 127 0 min 0,000 mm 0,0 UV-I 53 W/m 14,2 C 17,7 C 6,4 km/h (2 Bft) 95,74 %
06.07.2017 06:00 17,8 C 23,3 C 79 % 1016,7 hPa 0,0 l/m 2,5 km/h (1 Bft) SO 139 0 min 0,026 mm 0,0 UV-I 54 W/m 14,1 C 17,8 C 6,4 km/h (2 Bft) 89,36 %
06.07.2017 06:02 17,8 C 23,3 C 79 % 1016,7 hPa 0,0 l/m 2,0 km/h (1 Bft) SO 140 0 min 0,000 mm 0,0 UV-I 56 W/m 14,1 C 17,8 C 4,8 km/h (1 Bft) 93,62 %
06.07.2017 06:04 17,8 C 23,3 C 79 % 1016,7 hPa 0,0 l/m 3,0 km/h (1 Bft) S-SO 148 0 min 0,000 mm 0,0 UV-I 56 W/m 14,1 C 17,8 C 4,8 km/h (1 Bft) 97,92 %
06.07.2017 06:06 17,8 C 23,3 C 79 % 1016,7 hPa 0,0 l/m 1,9 km/h (1 Bft) S-SO 152 0 min 0,000 mm 0,0 UV-I 54 W/m 14,1 C 17,8 C 4,8 km/h (1 Bft) 91,49 %
06.07.2017 06:08 17,8 C 23,3 C 79 % 1016,7 hPa 0,0 l/m 2,2 km/h (1 Bft) S-SO 152 0 min 0,000 mm 0,0 UV-I 56 W/m 14,1 C 17,8 C 4,8 km/h (1 Bft) 95,74 %
06.07.2017 06:10 17,8 C 23,3 C 79 % 1016,8 hPa 0,0 l/m 2,4 km/h (1 Bft) S-SO 152 0 min 0,000 mm 0,0 UV-I 55 W/m 14,1 C 17,8 C 4,8 km/h (1 Bft) 95,74 %
06.07.2017 06:12 17,8 C 23,3 C 79 % 1016,8 hPa 0,0 l/m 1,5 km/h (1 Bft) S-SO 152 0 min 0,000 mm 0,0 UV-I 60 W/m 14,1 C 17,8 C 4,8 km/h (1 Bft) 100,00 %
06.07.2017 06:14 17,8 C 23,3 C 79 % 1016,8 hPa 0,0 l/m 2,1 km/h (1 Bft) S-SO 152 0 min 0,000 mm 0,0 UV-I 65 W/m 14,1 C 17,8 C 4,8 km/h (1 Bft) 97,92 %
06.07.2017 06:16 17,9 C 23,3 C 79 % 1016,8 hPa 0,0 l/m 2,1 km/h (1 Bft) S-SO 152 0 min 0,000 mm 0,0 UV-I 58 W/m 14,2 C 17,9 C 4,8 km/h (1 Bft) 97,87 %
06.07.2017 06:18 17,8 C 23,3 C 79 % 1016,8 hPa 0,0 l/m 2,1 km/h (1 Bft) S-SO 152 0 min 0,000 mm 0,0 UV-I 54 W/m 14,1 C 17,8 C 4,8 km/h (1 Bft) 97,87 %
06.07.2017 06:20 17,8 C 23,3 C 79 % 1016,9 hPa 0,0 l/m 2,3 km/h (1 Bft) S-SO 152 0 min 0,000 mm 0,0 UV-I 53 W/m 14,1 C 17,8 C 6,4 km/h (2 Bft) 100,00 %
06.07.2017 06:22 17,8 C 23,3 C 78 % 1016,9 hPa 0,0 l/m 2,9 km/h (1 Bft) S-SO 152 0 min 0,000 mm 0,0 UV-I 66 W/m 13,9 C 17,8 C 4,8 km/h (1 Bft) 97,87 %
06.07.2017 06:24 17,8 C 23,3 C 79 % 1016,9 hPa 0,0 l/m 3,0 km/h (1 Bft) S-SO 152 0 min 0,000 mm 0,0 UV-I 55 W/m 14,1 C 17,8 C 4,8 km/h (1 Bft) 100,00 %
06.07.2017 06:26 17,8 C 23,3 C 79 % 1016,9 hPa 0,0 l/m 3,4 km/h (1 Bft) S-SO 152 0 min 0,000 mm 0,0 UV-I 53 W/m 14,1 C 17,8 C 6,4 km/h (2 Bft) 95,74 %
06.07.2017 06:28 17,8 C 23,3 C 79 % 1016,9 hPa 0,0 l/m 3,0 km/h (1 Bft) S-SO 152 0 min 0,000 mm 0,0 UV-I 54 W/m 14,1 C 17,8 C 4,8 km/h (1 Bft) 100,00 %
06.07.2017 06:30 17,8 C 23,3 C 79 % 1017,0 hPa 0,0 l/m 1,6 km/h (1 Bft) S-SO 152 0 min 0,000 mm 0,0 UV-I 55 W/m 14,1 C 17,8 C 4,8 km/h (1 Bft) 95,83 %
06.07.2017 06:32 17,8 C 23,3 C 79 % 1016,9 hPa 0,0 l/m 1,1 km/h (1 Bft) S-SO 152 0 min 0,000 mm 0,0 UV-I 55 W/m 14,1 C 17,8 C 3,2 km/h (1 Bft) 100,00 %
06.07.2017 06:34 17,8 C 23,3 C 79 % 1017,0 hPa 0,0 l/m 1,6 km/h (1 Bft) S-SO 152 0 min 0,000 mm 0,0 UV-I 54 W/m 14,1 C 17,8 C 4,8 km/h (1 Bft) 93,62 %
06.07.2017 06:36 17,9 C 23,3 C 79 % 1017,0 hPa 0,0 l/m 1,1 km/h (1 Bft) S-SO 152 0 min 0,000 mm 0,0 UV-I 56 W/m 14,2 C 17,9 C 3,2 km/h (1 Bft) 97,87 %
06.07.2017 06:38 17,8 C 23,3 C 79 % 1017,0 hPa 0,0 l/m 0,6 km/h (0 Bft) S-SO 152 0 min 0,000 mm 0,0 UV-I 64 W/m 14,1 C 17,8 C 3,2 km/h (1 Bft) 97,87 %
06.07.2017 06:40 17,8 C 23,3 C 80 % 1017,0 hPa 0,0 l/m 0,9 km/h (0 Bft) S-SO 152 0 min 0,000 mm 0,0 UV-I 107 W/m 14,3 C 17,8 C 3,2 km/h (1 Bft) 95,74 %
06.07.2017 06:42 17,7 C 23,3 C 81 % 1017,0 hPa 0,0 l/m 0,0 km/h (0 Bft) S-SO 152 0 min 0,000 mm 0,0 UV-I 105 W/m 14,4 C 17,7 C 0,0 km/h (0 Bft) 94,00 %
06.07.2017 06:44 17,7 C 23,3 C 81 % 1017,0 hPa 0,0 l/m 0,0 km/h (0 Bft) S-SO 152 0 min 0,000 mm 0,0 UV-I 83 W/m 14,4 C 17,7 C 0,0 km/h (0 Bft) 95,74 %
06.07.2017 06:46 17,7 C 23,3 C 80 % 1017,0 hPa 0,0 l/m 0,6 km/h (0 Bft) S-SO 152 0 min 0,000 mm 0,0 UV-I 99 W/m 14,2 C 17,7 C 1,6 km/h (1 Bft) 97,87 %
06.07.2017 06:48 17,8 C 23,3 C 80 % 1017,0 hPa 0,0 l/m 0,8 km/h (0 Bft) S-SO 152 2 min 0,000 mm 0,0 UV-I 154 W/m 14,3 C 17,8 C 3,2 km/h (1 Bft) 97,87 %
06.07.2017 06:50 17,9 C 23,3 C 80 % 1017,0 hPa 0,0 l/m 0,0 km/h (0 Bft) S-SO 152 0 min 0,000 mm 0,0 UV-I 127 W/m 14,4 C 17,9 C 1,6 km/h (1 Bft) 95,74 %
06.07.2017 06:52 18,1 C 23,3 C 79 % 1017,0 hPa 0,0 l/m 0,4 km/h (0 Bft) S-SO 152 2 min 0,000 mm 0,0 UV-I 135 W/m 14,4 C 18,1 C 1,6 km/h (1 Bft) 97,37 %
06.07.2017 06:54 18,3 C 23,3 C 78 % 1017,0 hPa 0,0 l/m 0,1 km/h (0 Bft) S-SO 152 0 min 0,000 mm 0,0 UV-I 109 W/m 14,4 C 18,3 C 1,6 km/h (1 Bft) 97,92 %
06.07.2017 06:56 18,4 C 23,3 C 79 % 1017,0 hPa 0,0 l/m 0,0 km/h (0 Bft) S-SO 152 2 min 0,000 mm 0,0 UV-I 145 W/m 14,7 C 18,4 C 0,0 km/h (0 Bft) 94,00 %
06.07.2017 06:58 18,6 C 23,3 C 78 % 1017,0 hPa 0,0 l/m 0,6 km/h (0 Bft) S-SO 152 0 min 0,000 mm 0,0 UV-I 134 W/m 14,7 C 18,6 C 3,2 km/h (1 Bft) 97,87 %
06.07.2017 07:00 18,7 C 23,3 C 77 % 1017,0 hPa 0,0 l/m 0,3 km/h (0 Bft) S-SO 152 2 min 0,050 mm 0,0 UV-I 151 W/m 14,6 C 18,7 C 1,6 km/h (1 Bft) 97,87 %
06.07.2017 07:02 18,8 C 23,3 C 77 % 1017,1 hPa 0,0 l/m 2,3 km/h (1 Bft) S-SO 150 2 min 0,000 mm 0,0 UV-I 183 W/m 14,7 C 18,8 C 4,8 km/h (1 Bft) 95,74 %
06.07.2017 07:04 18,9 C 23,3 C 76 % 1017,0 hPa 0,0 l/m 3,7 km/h (1 Bft) S-SO 150 2 min 0,000 mm 0,0 UV-I 217 W/m 14,6 C 18,9 C 6,4 km/h (2 Bft) 93,62 %
06.07.2017 07:06 19,1 C 23,3 C 75 % 1017,0 hPa 0,0 l/m 4,6 km/h (1 Bft) O-NO 67 2 min 0,000 mm 0,0 UV-I 174 W/m 14,6 C 19,1 C 8,0 km/h (2 Bft) 100,00 %
06.07.2017 07:08 19,2 C 23,3 C 74 % 1017,0 hPa 0,0 l/m 6,8 km/h (2 Bft) O-NO 71 0 min 0,000 mm 0,0 UV-I 128 W/m 14,4 C 19,0 C 9,7 km/h (2 Bft) 97,92 %
06.07.2017 07:10 19,2 C 23,3 C 73 % 1017,1 hPa 0,0 l/m 6,6 km/h (2 Bft) O 80 2 min 0,000 mm 0,0 UV-I 176 W/m 14,2 C 19,1 C 9,7 km/h (2 Bft) 100,00 %
06.07.2017 07:12 19,2 C 23,3 C 74 % 1017,1 hPa 0,0 l/m 7,4 km/h (2 Bft) O-NO 66 2 min 0,000 mm 0,0 UV-I 227 W/m 14,4 C 18,8 C 9,7 km/h (2 Bft) 100,00 %
06.07.2017 07:14 19,2 C 23,3 C 73 % 1017,1 hPa 0,0 l/m 5,5 km/h (1 Bft) O-NO 61 2 min 0,000 mm 0,0 UV-I 165 W/m 14,2 C 19,2 C 9,7 km/h (2 Bft) 97,87 %
06.07.2017 07:16 19,2 C 23,3 C 74 % 1017,0 hPa 0,0 l/m 3,9 km/h (1 Bft) O-NO 71 2 min 0,000 mm 0,0 UV-I 173 W/m 14,4 C 19,2 C 6,4 km/h (2 Bft) 100,00 %
06.07.2017 07:18 19,2 C 23,3 C 74 % 1017,1 hPa 0,0 l/m 4,5 km/h (1 Bft) O-NO 70 0 min 0,000 mm 0,2 UV-I 160 W/m 14,4 C 19,2 C 6,4 km/h (2 Bft) 93,62 %
06.07.2017 07:20 19,3 C 23,3 C 74 % 1017,1 hPa 0,0 l/m 3,5 km/h (1 Bft) O-NO 69 2 min 0,000 mm 0,5 UV-I 225 W/m 14,5 C 19,3 C 4,8 km/h (1 Bft) 97,87 %
06.07.2017 07:22 19,4 C 23,3 C 75 % 1017,1 hPa 0,0 l/m 3,3 km/h (1 Bft) NO 36 2 min 0,000 mm 0,5 UV-I 279 W/m 14,8 C 19,4 C 6,4 km/h (2 Bft) 95,74 %
06.07.2017 07:24 19,6 C 23,3 C 74 % 1017,1 hPa 0,0 l/m 4,6 km/h (1 Bft) NO 51 2 min 0,000 mm 0,5 UV-I 304 W/m 14,8 C 19,6 C 6,4 km/h (2 Bft) 95,74 %
06.07.2017 07:26 19,7 C 23,3 C 73 % 1017,1 hPa 0,0 l/m 4,9 km/h (1 Bft) NO 42 2 min 0,000 mm 0,5 UV-I 303 W/m 14,7 C 19,7 C 9,7 km/h (2 Bft) 91,49 %
06.07.2017 07:28 19,8 C 23,3 C 72 % 1017,1 hPa 0,0 l/m 6,6 km/h (2 Bft) NO 48 2 min 0,000 mm 0,5 UV-I 288 W/m 14,6 C 19,7 C 9,7 km/h (2 Bft) 97,87 %
06.07.2017 07:30 19,8 C 23,3 C 72 % 1017,1 hPa 0,0 l/m 6,0 km/h (2 Bft) NO 50 2 min 0,000 mm 0,6 UV-I 307 W/m 14,6 C 19,8 C 8,0 km/h (2 Bft) 97,87 %
06.07.2017 07:32 19,8 C 23,3 C 72 % 1017,2 hPa 0,0 l/m 6,4 km/h (2 Bft) NO 51 2 min 0,000 mm 0,6 UV-I 264 W/m 14,6 C 19,8 C 9,7 km/h (2 Bft) 100,00 %
06.07.2017 07:34 19,8 C 23,3 C 73 % 1017,2 hPa 0,0 l/m 4,8 km/h (1 Bft) NO 55 2 min 0,000 mm 0,6 UV-I 224 W/m 14,8 C 19,8 C 8,0 km/h (2 Bft) 100,00 %
06.07.2017 07:36 19,8 C 23,3 C 72 % 1017,2 hPa 0,0 l/m 5,4 km/h (1 Bft) NO 46 2 min 0,000 mm 0,6 UV-I 308 W/m 14,6 C 19,8 C 8,0 km/h (2 Bft) 97,87 %
06.07.2017 07:38 20,0 C 23,3 C 73 % 1017,2 hPa 0,0 l/m 5,0 km/h (1 Bft) NO 46 2 min 0,000 mm 0,7 UV-I 364 W/m 15,0 C 20,0 C 8,0 km/h (2 Bft) 97,87 %
06.07.2017 07:40 20,2 C 23,3 C 72 % 1017,3 hPa 0,0 l/m 5,6 km/h (1 Bft) NO 47 2 min 0,000 mm 0,7 UV-I 373 W/m 15,0 C 20,2 C 8,0 km/h (2 Bft) 95,74 %
06.07.2017 07:42 20,3 C 23,3 C 72 % 1017,3 hPa 0,0 l/m 2,3 km/h (1 Bft) NO 47 2 min 0,000 mm 0,7 UV-I 375 W/m 15,1 C 20,3 C 4,8 km/h (1 Bft) 95,74 %
06.07.2017 07:44 20,4 C 23,3 C 71 % 1017,3 hPa 0,0 l/m 3,5 km/h (1 Bft) NO 49 2 min 0,000 mm 0,7 UV-I 378 W/m 15,0 C 20,4 C 6,4 km/h (2 Bft) 91,49 %
06.07.2017 07:46 20,4 C 23,3 C 69 % 1017,3 hPa 0,0 l/m 5,2 km/h (1 Bft) NO 52 2 min 0,000 mm 0,7 UV-I 377 W/m 14,5 C 20,4 C 6,4 km/h (2 Bft) 95,74 %
06.07.2017 07:48 20,4 C 23,3 C 70 % 1017,3 hPa 0,0 l/m 5,8 km/h (2 Bft) O-NO 69 2 min 0,000 mm 0,8 UV-I 372 W/m 14,7 C 20,4 C 11,3 km/h (2 Bft) 98,00 %
06.07.2017 07:50 20,4 C 23,3 C 70 % 1017,3 hPa 0,0 l/m 5,4 km/h (1 Bft) NO 43 2 min 0,000 mm 0,8 UV-I 385 W/m 14,7 C 20,4 C 8,0 km/h (2 Bft) 96,00 %
06.07.2017 07:52 20,5 C 23,3 C 69 % 1017,3 hPa 0,0 l/m 5,4 km/h (1 Bft) NO 55 2 min 0,000 mm 0,8 UV-I 383 W/m 14,6 C 20,5 C 8,0 km/h (2 Bft) 93,62 %
06.07.2017 07:54 20,5 C 23,3 C 69 % 1017,3 hPa 0,0 l/m 4,2 km/h (1 Bft) NO 55 2 min 0,000 mm 0,8 UV-I 397 W/m 14,6 C 20,5 C 6,4 km/h (2 Bft) 94,44 %
06.07.2017 07:56 20,6 C 23,3 C 69 % 1017,3 hPa 0,0 l/m 5,1 km/h (1 Bft) O-NO 63 2 min 0,000 mm 0,9 UV-I 403 W/m 14,7 C 20,6 C 8,0 km/h (2 Bft) 97,87 %
06.07.2017 07:58 20,7 C 23,3 C 70 % 1017,3 hPa 0,0 l/m 2,7 km/h (1 Bft) NO 45 2 min 0,000 mm 0,9 UV-I 394 W/m 15,0 C 20,7 C 6,4 km/h (2 Bft) 94,00 %
06.07.2017 08:00 20,8 C 23,3 C 70 % 1017,3 hPa 0,0 l/m 4,2 km/h (1 Bft) N-NO 31 2 min 0,204 mm 0,9 UV-I 426 W/m 15,1 C 20,8 C 8,0 km/h (2 Bft) 93,62 %
06.07.2017 08:02 20,9 C 23,3 C 69 % 1017,4 hPa 0,0 l/m 1,1 km/h (1 Bft) N 9 2 min 0,000 mm 1,0 UV-I 439 W/m 15,0 C 20,9 C 3,2 km/h (1 Bft) 93,62 %
06.07.2017 08:04 21,0 C 23,3 C 69 % 1017,4 hPa 0,0 l/m 2,4 km/h (1 Bft) N-NO 32 2 min 0,000 mm 1,0 UV-I 437 W/m 15,1 C 21,0 C 4,8 km/h (1 Bft) 93,62 %
06.07.2017 08:06 21,1 C 23,3 C 69 % 1017,4 hPa 0,0 l/m 2,0 km/h (1 Bft) N 350 2 min 0,000 mm 1,0 UV-I 430 W/m 15,2 C 21,1 C 4,8 km/h (1 Bft) 97,87 %
06.07.2017 08:08 21,1 C 23,3 C 68 % 1017,3 hPa 0,0 l/m 0,8 km/h (0 Bft) N-NW 346 2 min 0,000 mm 1,0 UV-I 419 W/m 15,0 C 21,1 C 3,2 km/h (1 Bft) 97,87 %
06.07.2017 08:10 21,1 C 23,3 C 69 % 1017,4 hPa 0,0 l/m 2,1 km/h (1 Bft) N-NO 19 2 min 0,000 mm 1,1 UV-I 371 W/m 15,2 C 21,1 C 3,2 km/h (1 Bft) 100,00 %
06.07.2017 08:12 21,2 C 23,3 C 69 % 1017,4 hPa 0,0 l/m 5,3 km/h (1 Bft) N-NO 30 2 min 0,000 mm 1,1 UV-I 355 W/m 15,3 C 21,2 C 11,3 km/h (2 Bft) 97,87 %
06.07.2017 08:14 21,2 C 23,3 C 68 % 1017,4 hPa 0,0 l/m 5,0 km/h (1 Bft) N-NO 32 2 min 0,000 mm 1,1 UV-I 416 W/m 15,1 C 21,2 C 8,0 km/h (2 Bft) 91,49 %
06.07.2017 08:16 21,1 C 23,3 C 68 % 1017,4 hPa 0,0 l/m 1,6 km/h (1 Bft) N-NO 32 2 min 0,000 mm 1,2 UV-I 411 W/m 15,0 C 21,1 C 4,8 km/h (1 Bft) 100,00 %
06.07.2017 08:18 20,9 C 23,3 C 68 % 1017,4 hPa 0,0 l/m 1,6 km/h (1 Bft) N 9 2 min 0,000 mm 1,2 UV-I 405 W/m 14,8 C 20,9 C 3,2 km/h (1 Bft) 100,00 %
06.07.2017 08:20 21,0 C 23,3 C 69 % 1017,4 hPa 0,0 l/m 3,6 km/h (1 Bft) N-NO 32 2 min 0,000 mm 1,2 UV-I 399 W/m 15,1 C 21,0 C 8,0 km/h (2 Bft) 100,00 %
06.07.2017 08:22 21,0 C 23,3 C 68 % 1017,4 hPa 0,0 l/m 4,2 km/h (1 Bft) N-NO 31 2 min 0,000 mm 1,3 UV-I 433 W/m 14,9 C 21,0 C 8,0 km/h (2 Bft) 100,00 %
06.07.2017 08:24 21,1 C 23,3 C 69 % 1017,3 hPa 0,0 l/m 2,8 km/h (1 Bft) NW 323 2 min 0,000 mm 1,3 UV-I 434 W/m 15,2 C 21,1 C 8,0 km/h (2 Bft) 95,74 %
06.07.2017 08:26 21,2 C 23,3 C 68 % 1017,3 hPa 0,0 l/m 1,8 km/h (1 Bft) N 11 2 min 0,000 mm 1,3 UV-I 430 W/m 15,1 C 21,2 C 4,8 km/h (1 Bft) 97,87 %
06.07.2017 08:28 21,3 C 23,3 C 68 % 1017,3 hPa 0,0 l/m 1,7 km/h (1 Bft) N-NW 340 2 min 0,000 mm 1,3 UV-I 433 W/m 15,1 C 21,3 C 3,2 km/h (1 Bft) 91,67 %
06.07.2017 08:30 21,4 C 23,3 C 68 % 1017,4 hPa 0,0 l/m 2,5 km/h (1 Bft) N-NO 12 2 min 0,000 mm 1,4 UV-I 435 W/m 15,2 C 21,4 C 4,8 km/h (1 Bft) 97,96 %
06.07.2017 08:32 21,6 C 23,3 C 68 % 1017,4 hPa 0,0 l/m 2,2 km/h (1 Bft) N-NW 340 2 min 0,000 mm 1,4 UV-I 440 W/m 15,4 C 21,6 C 6,4 km/h (2 Bft) 97,92 %
06.07.2017 08:34 21,6 C 23,3 C 67 % 1017,4 hPa 0,0 l/m 2,0 km/h (1 Bft) N-NO 15 2 min 0,000 mm 1,4 UV-I 442 W/m 15,2 C 21,6 C 8,0 km/h (2 Bft) 97,87 %
06.07.2017 08:36 21,6 C 23,3 C 68 % 1017,4 hPa 0,0 l/m 4,1 km/h (1 Bft) N-NO 32 2 min 0,000 mm 1,5 UV-I 433 W/m 15,4 C 21,6 C 6,4 km/h (2 Bft) 97,87 %
06.07.2017 08:38 21,6 C 23,3 C 67 % 1017,4 hPa 0,0 l/m 0,6 km/h (0 Bft) N-NO 32 2 min 0,000 mm 1,5 UV-I 440 W/m 15,2 C 21,6 C 3,2 km/h (1 Bft) 97,87 %
06.07.2017 08:40 21,6 C 23,3 C 67 % 1017,5 hPa 0,0 l/m 0,8 km/h (0 Bft) N-NO 28 2 min 0,000 mm 1,5 UV-I 433 W/m 15,2 C 21,6 C 3,2 km/h (1 Bft) 100,00 %
06.07.2017 08:42 21,7 C 23,3 C 68 % 1017,4 hPa 0,0 l/m 3,0 km/h (1 Bft) N-NO 25 2 min 0,000 mm 1,6 UV-I 463 W/m 15,5 C 21,7 C 6,4 km/h (2 Bft) 97,87 %
06.07.2017 08:44 21,8 C 23,3 C 67 % 1017,4 hPa 0,0 l/m 4,4 km/h (1 Bft) NO 51 2 min 0,000 mm 1,6 UV-I 472 W/m 15,4 C 21,8 C 6,4 km/h (2 Bft) 100,00 %
06.07.2017 08:46 21,7 C 23,3 C 67 % 1017,4 hPa 0,0 l/m 3,8 km/h (1 Bft) NO 51 2 min 0,000 mm 1,7 UV-I 484 W/m 15,3 C 21,7 C 8,0 km/h (2 Bft) 100,00 %
06.07.2017 08:48 21,6 C 23,3 C 67 % 1017,4 hPa 0,0 l/m 1,4 km/h (1 Bft) NO 46 2 min 0,000 mm 1,7 UV-I 490 W/m 15,2 C 21,6 C 3,2 km/h (1 Bft) 97,87 %
06.07.2017 08:50 21,7 C 23,3 C 67 % 1017,4 hPa 0,0 l/m 3,0 km/h (1 Bft) N-NO 23 2 min 0,000 mm 1,7 UV-I 489 W/m 15,3 C 21,7 C 6,4 km/h (2 Bft) 100,00 %
06.07.2017 08:52 21,6 C 23,3 C 66 % 1017,4 hPa 0,0 l/m 1,1 km/h (1 Bft) N-NO 21 2 min 0,000 mm 1,8 UV-I 493 W/m 15,0 C 21,6 C 3,2 km/h (1 Bft) 93,62 %
06.07.2017 08:54 21,7 C 23,3 C 68 % 1017,5 hPa 0,0 l/m 2,7 km/h (1 Bft) NO 49 2 min 0,000 mm 1,8 UV-I 496 W/m 15,5 C 21,7 C 6,4 km/h (2 Bft) 100,00 %
06.07.2017 08:56 21,8 C 23,3 C 66 % 1017,5 hPa 0,0 l/m 3,0 km/h (1 Bft) O 83 2 min 0,000 mm 1,9 UV-I 500 W/m 15,2 C 21,8 C 6,4 km/h (2 Bft) 97,87 %
06.07.2017 08:58 21,8 C 23,3 C 66 % 1017,5 hPa 0,0 l/m 2,9 km/h (1 Bft) O 90 2 min 0,000 mm 1,9 UV-I 511 W/m 15,2 C 21,8 C 6,4 km/h (2 Bft) 97,87 %
06.07.2017 09:00 22,0 C 23,3 C 68 % 1017,4 hPa 0,0 l/m 5,5 km/h (1 Bft) NO 34 2 min 0,279 mm 1,9 UV-I 508 W/m 15,8 C 22,0 C 9,7 km/h (2 Bft) 100,00 %
06.07.2017 09:02 22,1 C 23,3 C 66 % 1017,5 hPa 0,0 l/m 1,0 km/h (0 Bft) NO 34 2 min 0,000 mm 2,0 UV-I 517 W/m 15,4 C 22,1 C 3,2 km/h (1 Bft) 98,00 %
06.07.2017 09:04 22,2 C 23,3 C 66 % 1017,4 hPa 0,0 l/m 5,3 km/h (1 Bft) O-NO 57 2 min 0,000 mm 2,0 UV-I 526 W/m 15,5 C 22,2 C 8,0 km/h (2 Bft) 95,83 %
06.07.2017 09:06 22,3 C 23,3 C 65 % 1017,4 hPa 0,0 l/m 2,9 km/h (1 Bft) O-NO 71 2 min 0,000 mm 2,1 UV-I 528 W/m 15,4 C 22,3 C 6,4 km/h (2 Bft) 97,14 %
06.07.2017 09:08 22,3 C 23,3 C 64 % 1017,4 hPa 0,0 l/m 3,7 km/h (1 Bft) O-NO 57 2 min 0,000 mm 2,1 UV-I 526 W/m 15,2 C 22,3 C 8,0 km/h (2 Bft) 96,77 %
06.07.2017 09:10 22,4 C 23,3 C 65 % 1017,5 hPa 0,0 l/m 5,5 km/h (1 Bft) NO 45 2 min 0,000 mm 2,1 UV-I 540 W/m 15,5 C 22,4 C 8,0 km/h (2 Bft) 95,74 %
06.07.2017 09:12 22,4 C 23,3 C 64 % 1017,5 hPa 0,0 l/m 3,0 km/h (1 Bft) NO 44 2 min 0,000 mm 2,2 UV-I 547 W/m 15,2 C 22,4 C 6,4 km/h (2 Bft) 93,62 %
06.07.2017 09:14 22,4 C 23,3 C 65 % 1017,5 hPa 0,0 l/m 0,4 km/h (0 Bft) NO 44 2 min 0,000 mm 2,2 UV-I 553 W/m 15,5 C 22,4 C 1,6 km/h (1 Bft) 96,00 %
06.07.2017 09:16 22,6 C 23,3 C 64 % 1017,5 hPa 0,0 l/m 1,7 km/h (1 Bft) NO 43 2 min 0,000 mm 2,3 UV-I 560 W/m 15,4 C 22,6 C 6,4 km/h (2 Bft) 91,49 %
06.07.2017 09:18 22,6 C 23,3 C 64 % 1017,4 hPa 0,0 l/m 1,5 km/h (1 Bft) NO 40 2 min 0,000 mm 2,3 UV-I 566 W/m 15,4 C 22,6 C 6,4 km/h (2 Bft) 89,36 %
06.07.2017 09:20 22,8 C 23,3 C 65 % 1017,4 hPa 0,0 l/m 2,4 km/h (1 Bft) NO 40 2 min 0,000 mm 2,4 UV-I 574 W/m 15,9 C 22,8 C 4,8 km/h (1 Bft) 97,87 %
06.07.2017 09:22 23,1 C 23,3 C 64 % 1017,4 hPa 0,0 l/m 0,8 km/h (0 Bft) NO 34 2 min 0,000 mm 2,4 UV-I 581 W/m 15,9 C 23,1 C 1,6 km/h (1 Bft) 97,37 %
06.07.2017 09:24 23,3 C 23,3 C 63 % 1017,4 hPa 0,0 l/m 2,7 km/h (1 Bft) NO 40 2 min 0,000 mm 2,5 UV-I 585 W/m 15,9 C 23,3 C 9,7 km/h (2 Bft) 97,87 %
06.07.2017 09:26 23,4 C 23,3 C 63 % 1017,4 hPa 0,0 l/m 5,5 km/h (1 Bft) N-NO 31 2 min 0,000 mm 2,5 UV-I 592 W/m 15,9 C 23,4 C 8,0 km/h (2 Bft) 95,74 %
06.07.2017 09:28 23,3 C 23,3 C 62 % 1017,4 hPa 0,0 l/m 2,8 km/h (1 Bft) N-NO 30 2 min 0,000 mm 2,6 UV-I 596 W/m 15,6 C 23,3 C 8,0 km/h (2 Bft) 89,36 %
06.07.2017 09:30 23,4 C 23,3 C 63 % 1017,4 hPa 0,0 l/m 1,8 km/h (1 Bft) N-NO 19 2 min 0,000 mm 2,6 UV-I 599 W/m 15,9 C 23,4 C 4,8 km/h (1 Bft) 91,49 %
06.07.2017 09:32 23,7 C 23,3 C 62 % 1017,4 hPa 0,0 l/m 2,3 km/h (1 Bft) N-NO 32 2 min 0,000 mm 2,7 UV-I 604 W/m 16,0 C 23,7 C 6,4 km/h (2 Bft) 93,62 %
06.07.2017 09:34 23,8 C 23,3 C 62 % 1017,4 hPa 0,0 l/m 3,8 km/h (1 Bft) N-NO 30 2 min 0,000 mm 2,7 UV-I 612 W/m 16,1 C 23,8 C 6,4 km/h (2 Bft) 93,62 %
06.07.2017 09:36 23,8 C 23,3 C 61 % 1017,4 hPa 0,0 l/m 3,5 km/h (1 Bft) NO 41 2 min 0,000 mm 2,7 UV-I 613 W/m 15,8 C 23,8 C 6,4 km/h (2 Bft) 95,74 %
06.07.2017 09:38 23,8 C 23,3 C 61 % 1017,4 hPa 0,0 l/m 3,0 km/h (1 Bft) N-NO 24 2 min 0,000 mm 2,8 UV-I 618 W/m 15,8 C 23,8 C 6,4 km/h (2 Bft) 94,00 %
06.07.2017 09:40 23,7 C 23,3 C 61 % 1017,4 hPa 0,0 l/m 1,5 km/h (1 Bft) N-NO 23 2 min 0,000 mm 2,8 UV-I 622 W/m 15,7 C 23,7 C 3,2 km/h (1 Bft) 95,74 %
06.07.2017 09:42 23,9 C 23,3 C 62 % 1017,4 hPa 0,0 l/m 0,7 km/h (0 Bft) N-NO 22 2 min 0,000 mm 2,9 UV-I 625 W/m 16,2 C 23,9 C 1,6 km/h (1 Bft) 93,62 %
06.07.2017 09:44 23,9 C 23,3 C 61 % 1017,3 hPa 0,0 l/m 1,7 km/h (1 Bft) N-NW 338 2 min 0,000 mm 2,9 UV-I 628 W/m 15,9 C 23,9 C 4,8 km/h (1 Bft) 93,62 %
06.07.2017 09:46 24,0 C 23,3 C 61 % 1017,4 hPa 0,0 l/m 2,4 km/h (1 Bft) NO 44 2 min 0,000 mm 3,0 UV-I 637 W/m 16,0 C 24,0 C 6,4 km/h (2 Bft) 93,75 %
06.07.2017 09:48 24,1 C 23,3 C 61 % 1017,4 hPa 0,0 l/m 4,1 km/h (1 Bft) NO 50 2 min 0,000 mm 3,0 UV-I 641 W/m 16,1 C 24,1 C 6,4 km/h (2 Bft) 89,36 %
06.07.2017 09:50 24,1 C 23,3 C 61 % 1017,3 hPa 0,0 l/m 5,5 km/h (1 Bft) NO 38 2 min 0,000 mm 3,1 UV-I 648 W/m 16,1 C 24,1 C 8,0 km/h (2 Bft) 95,74 %
06.07.2017 09:52 24,0 C 23,3 C 60 % 1017,4 hPa 0,0 l/m 2,8 km/h (1 Bft) O-NO 60 2 min 0,000 mm 3,1 UV-I 652 W/m 15,7 C 24,0 C 6,4 km/h (2 Bft) 92,00 %
06.07.2017 09:54 23,9 C 23,9 C 60 % 1017,4 hPa 0,0 l/m 3,2 km/h (1 Bft) O-NO 65 2 min 0,000 mm 3,2 UV-I 656 W/m 15,7 C 23,9 C 4,8 km/h (1 Bft) 93,62 %
06.07.2017 09:56 23,9 C 23,3 C 62 % 1017,3 hPa 0,0 l/m 6,3 km/h (2 Bft) NO 55 2 min 0,000 mm 3,2 UV-I 662 W/m 16,2 C 23,9 C 8,0 km/h (2 Bft) 94,29 %
06.07.2017 09:58 24,2 C 23,3 C 62 % 1017,3 hPa 0,0 l/m 3,0 km/h (1 Bft) O-NO 63 2 min 0,000 mm 3,2 UV-I 669 W/m 16,4 C 24,2 C 8,0 km/h (2 Bft) 94,00 %
06.07.2017 10:00 24,1 C 23,3 C 60 % 1017,3 hPa 0,0 l/m 3,6 km/h (1 Bft) O-NO 67 2 min 0,381 mm 3,3 UV-I 671 W/m 15,8 C 24,1 C 6,4 km/h (2 Bft) 96,00 %
06.07.2017 10:02 24,1 C 23,9 C 59 % 1017,3 hPa 0,0 l/m 0,2 km/h (0 Bft) O-NO 67 2 min 0,000 mm 3,4 UV-I 674 W/m 15,6 C 24,1 C 1,6 km/h (1 Bft) 91,49 %
06.07.2017 10:04 24,0 C 23,3 C 59 % 1017,3 hPa 0,0 l/m 0,4 km/h (0 Bft) O-NO 67 2 min 0,000 mm 3,4 UV-I 680 W/m 15,5 C 24,0 C 1,6 km/h (1 Bft) 97,87 %
06.07.2017 10:06 24,1 C 23,9 C 59 % 1017,3 hPa 0,0 l/m 2,4 km/h (1 Bft) W-SW 258 2 min 0,000 mm 3,4 UV-I 682 W/m 15,6 C 24,1 C 4,8 km/h (1 Bft) 95,74 %
06.07.2017 10:08 24,2 C 23,9 C 58 % 1017,3 hPa 0,0 l/m 2,1 km/h (1 Bft) S-SW 208 2 min 0,000 mm 3,5 UV-I 690 W/m 15,4 C 24,2 C 6,4 km/h (2 Bft) 93,62 %
06.07.2017 10:10 24,4 C 23,9 C 59 % 1017,3 hPa 0,0 l/m 0,9 km/h (0 Bft) S-SW 207 2 min 0,000 mm 3,5 UV-I 695 W/m 15,9 C 24,4 C 3,2 km/h (1 Bft) 97,92 %
06.07.2017 10:12 24,5 C 23,9 C 56 % 1017,2 hPa 0,0 l/m 0,4 km/h (0 Bft) S-SW 207 2 min 0,000 mm 3,6 UV-I 699 W/m 15,1 C 24,5 C 1,6 km/h (1 Bft) 96,00 %
06.07.2017 10:14 24,8 C 23,9 C 60 % 1017,2 hPa 0,0 l/m 0,2 km/h (0 Bft) S-SW 207 2 min 0,000 mm 3,7 UV-I 704 W/m 16,5 C 24,8 C 1,6 km/h (1 Bft) 95,74 %
06.07.2017 10:16 25,1 C 23,9 C 58 % 1017,3 hPa 0,0 l/m 2,4 km/h (1 Bft) W-SW 240 2 min 0,000 mm 3,7 UV-I 708 W/m 16,2 C 25,1 C 6,4 km/h (2 Bft) 97,87 %
06.07.2017 10:18 25,2 C 23,9 C 54 % 1017,3 hPa 0,0 l/m 1,0 km/h (0 Bft) W-SW 240 2 min 0,000 mm 3,8 UV-I 714 W/m 15,2 C 25,2 C 4,8 km/h (1 Bft) 100,00 %
06.07.2017 10:20 25,1 C 23,9 C 55 % 1017,2 hPa 0,0 l/m 2,1 km/h (1 Bft) S-SO 167 2 min 0,000 mm 3,8 UV-I 715 W/m 15,4 C 25,1 C 6,4 km/h (2 Bft) 95,74 %
06.07.2017 10:22 25,0 C 23,9 C 55 % 1017,3 hPa 0,0 l/m 0,5 km/h (0 Bft) S-SO 167 2 min 0,000 mm 3,8 UV-I 720 W/m 15,3 C 25,0 C 1,6 km/h (1 Bft) 97,87 %
06.07.2017 10:24 25,1 C 23,9 C 56 % 1017,3 hPa 0,0 l/m 1,6 km/h (1 Bft) O-SO 119 2 min 0,000 mm 3,9 UV-I 724 W/m 15,7 C 25,1 C 4,8 km/h (1 Bft) 97,87 %
06.07.2017 10:26 25,3 C 23,9 C 59 % 1017,3 hPa 0,0 l/m 1,9 km/h (1 Bft) O 96 2 min 0,000 mm 3,9 UV-I 730 W/m 16,7 C 25,3 C 4,8 km/h (1 Bft) 100,00 %
06.07.2017 10:28 25,4 C 23,9 C 56 % 1017,2 hPa 0,0 l/m 1,4 km/h (1 Bft) O 80 2 min 0,000 mm 4,0 UV-I 735 W/m 16,0 C 25,4 C 3,2 km/h (1 Bft) 93,75 %
06.07.2017 10:30 25,7 C 23,9 C 56 % 1017,3 hPa 0,0 l/m 0,6 km/h (0 Bft) O 80 2 min 0,000 mm 4,0 UV-I 738 W/m 16,2 C 25,7 C 1,6 km/h (1 Bft) 100,00 %
06.07.2017 10:32 25,8 C 23,9 C 54 % 1017,3 hPa 0,0 l/m 4,0 km/h (1 Bft) S-SW 196 2 min 0,000 mm 4,1 UV-I 741 W/m 15,8 C 25,8 C 8,0 km/h (2 Bft) 97,87 %
06.07.2017 10:34 25,7 C 23,9 C 54 % 1017,3 hPa 0,0 l/m 4,4 km/h (1 Bft) S-SW 208 2 min 0,000 mm 4,1 UV-I 746 W/m 15,7 C 25,7 C 8,0 km/h (2 Bft) 97,87 %
06.07.2017 10:36 25,7 C 23,9 C 53 % 1017,2 hPa 0,0 l/m 2,8 km/h (1 Bft) S-SW 212 2 min 0,000 mm 4,2 UV-I 750 W/m 15,4 C 25,7 C 4,8 km/h (1 Bft) 96,00 %
06.07.2017 10:38 25,8 C 23,9 C 51 % 1017,2 hPa 0,0 l/m 4,0 km/h (1 Bft) S 178 2 min 0,000 mm 3,8 UV-I 753 W/m 14,9 C 25,8 C 6,4 km/h (2 Bft) 97,92 %
06.07.2017 10:40 25,6 C 23,9 C 52 % 1017,2 hPa 0,0 l/m 2,4 km/h (1 Bft) W 273 2 min 0,000 mm 4,2 UV-I 757 W/m 15,0 C 25,6 C 4,8 km/h (1 Bft) 97,87 %
06.07.2017 10:42 25,4 C 23,9 C 52 % 1017,2 hPa 0,0 l/m 1,7 km/h (1 Bft) W 273 2 min 0,000 mm 4,3 UV-I 759 W/m 14,8 C 25,4 C 3,2 km/h (1 Bft) 100,00 %
06.07.2017 10:44 25,5 C 23,9 C 53 % 1017,3 hPa 0,0 l/m 5,7 km/h (1 Bft) W 263 2 min 0,000 mm 4,3 UV-I 763 W/m 15,2 C 25,5 C 12,9 km/h (3 Bft) 95,74 %
06.07.2017 10:46 25,7 C 23,9 C 52 % 1017,3 hPa 0,0 l/m 7,3 km/h (2 Bft) W-SW 251 2 min 0,000 mm 4,4 UV-I 766 W/m 15,1 C 25,5 C 12,9 km/h (3 Bft) 95,74 %
06.07.2017 10:48 25,7 C 23,9 C 52 % 1017,3 hPa 0,0 l/m 5,6 km/h (1 Bft) W-SW 240 2 min 0,000 mm 4,4 UV-I 771 W/m 15,1 C 25,7 C 8,0 km/h (2 Bft) 100,00 %
06.07.2017 10:50 25,8 C 23,9 C 53 % 1017,3 hPa 0,0 l/m 7,8 km/h (2 Bft) SW 229 2 min 0,000 mm 4,5 UV-I 774 W/m 15,5 C 25,5 C 11,3 km/h (2 Bft) 100,00 %
06.07.2017 10:52 26,2 C 23,9 C 51 % 1017,3 hPa 0,0 l/m 6,1 km/h (2 Bft) W-SW 254 2 min 0,000 mm 4,5 UV-I 777 W/m 15,2 C 26,2 C 9,7 km/h (2 Bft) 100,00 %
06.07.2017 10:54 26,3 C 23,9 C 50 % 1017,2 hPa 0,0 l/m 3,4 km/h (1 Bft) W-NW 288 2 min 0,000 mm 4,6 UV-I 779 W/m 15,0 C 26,3 C 8,0 km/h (2 Bft) 100,00 %
06.07.2017 10:56 26,2 C 23,9 C 49 % 1017,2 hPa 0,0 l/m 2,6 km/h (1 Bft) W-SW 242 2 min 0,000 mm 4,6 UV-I 782 W/m 14,6 C 26,2 C 6,4 km/h (2 Bft) 97,87 %
06.07.2017 10:58 26,2 C 23,9 C 50 % 1017,3 hPa 0,0 l/m 2,3 km/h (1 Bft) W-NW 293 2 min 0,000 mm 4,7 UV-I 784 W/m 14,9 C 26,2 C 6,4 km/h (2 Bft) 97,87 %
06.07.2017 11:00 26,4 C 23,9 C 50 % 1017,2 hPa 0,0 l/m 5,3 km/h (1 Bft) W-SW 238 2 min 0,483 mm 4,7 UV-I 787 W/m 15,1 C 26,4 C 11,3 km/h (2 Bft) 95,74 %
06.07.2017 11:03 26,7 C 23,9 C 48 % 1017,2 hPa 0,0 l/m 6,9 km/h (2 Bft) SW 226 3 min 0,000 mm 4,7 UV-I 794 W/m 14,8 C 26,6 C 12,9 km/h (3 Bft) 97,18 %
06.07.2017 11:04 26,8 C 23,9 C 49 % 1017,2 hPa 0,0 l/m 8,5 km/h (2 Bft) W-SW 249 1 min 0,000 mm 4,8 UV-I 797 W/m 15,2 C 26,4 C 11,3 km/h (2 Bft) 100,00 %
06.07.2017 11:06 27,0 C 23,9 C 48 % 1017,2 hPa 0,0 l/m 8,0 km/h (2 Bft) W-SW 241 2 min 0,000 mm 4,8 UV-I 800 W/m 15,0 C 26,7 C 11,3 km/h (2 Bft) 98,00 %
06.07.2017 11:08 26,9 C 23,9 C 48 % 1017,2 hPa 0,0 l/m 6,2 km/h (2 Bft) SW 229 2 min 0,000 mm 4,9 UV-I 803 W/m 14,9 C 26,9 C 12,9 km/h (3 Bft) 100,00 %
06.07.2017 11:10 26,9 C 23,9 C 47 % 1017,2 hPa 0,0 l/m 5,7 km/h (1 Bft) S-SW 192 2 min 0,000 mm 4,9 UV-I 802 W/m 14,6 C 26,9 C 8,0 km/h (2 Bft) 97,87 %
06.07.2017 11:13 26,9 C 23,9 C 48 % 1017,1 hPa 0,0 l/m 3,3 km/h (1 Bft) S-SO 157 3 min 0,000 mm 4,9 UV-I 804 W/m 14,9 C 26,9 C 8,0 km/h (2 Bft) 97,14 %
06.07.2017 11:14 26,9 C 23,9 C 47 % 1017,1 hPa 0,0 l/m 2,6 km/h (1 Bft) S-SO 158 1 min 0,000 mm 5,0 UV-I 808 W/m 14,6 C 26,9 C 3,2 km/h (1 Bft) 95,83 %
06.07.2017 11:16 26,7 C 23,9 C 49 % 1017,2 hPa 0,0 l/m 2,4 km/h (1 Bft) S-SO 159 2 min 0,000 mm 5,0 UV-I 811 W/m 15,1 C 26,7 C 6,4 km/h (2 Bft) 97,87 %
06.07.2017 11:18 26,8 C 23,9 C 48 % 1017,1 hPa 0,0 l/m 3,5 km/h (1 Bft) SW 228 2 min 0,000 mm 5,0 UV-I 812 W/m 14,9 C 26,8 C 6,4 km/h (2 Bft) 97,87 %
06.07.2017 11:20 26,8 C 23,9 C 48 % 1017,1 hPa 0,0 l/m 3,0 km/h (1 Bft) SW 221 2 min 0,000 mm 5,1 UV-I 815 W/m 14,9 C 26,8 C 6,4 km/h (2 Bft) 93,62 %
06.07.2017 11:22 26,8 C 23,9 C 48 % 1017,1 hPa 0,0 l/m 2,8 km/h (1 Bft) W 275 2 min 0,000 mm 5,1 UV-I 820 W/m 14,9 C 26,8 C 4,8 km/h (1 Bft) 97,87 %
06.07.2017 11:24 27,1 C 23,9 C 48 % 1017,0 hPa 0,0 l/m 0,7 km/h (0 Bft) W 275 2 min 0,000 mm 5,2 UV-I 823 W/m 15,1 C 27,1 C 1,6 km/h (1 Bft) 96,00 %
06.07.2017 11:26 27,2 C 23,9 C 48 % 1017,0 hPa 0,0 l/m 0,9 km/h (0 Bft) W-SW 242 2 min 0,000 mm 5,3 UV-I 828 W/m 15,2 C 27,2 C 3,2 km/h (1 Bft) 97,87 %
06.07.2017 11:28 27,4 C 23,9 C 47 % 1017,0 hPa 0,0 l/m 2,8 km/h (1 Bft) W-SW 248 2 min 0,000 mm 5,3 UV-I 831 W/m 15,1 C 27,4 C 6,4 km/h (2 Bft) 97,87 %
06.07.2017 11:30 27,7 C 23,9 C 48 % 1017,0 hPa 0,0 l/m 3,6 km/h (1 Bft) N-NW 342 2 min 0,000 mm 5,3 UV-I 830 W/m 15,7 C 27,7 C 6,4 km/h (2 Bft) 95,74 %
06.07.2017 11:32 27,8 C 23,9 C 48 % 1017,0 hPa 0,0 l/m 1,2 km/h (1 Bft) NW 309 2 min 0,000 mm 5,3 UV-I 830 W/m 15,8 C 27,8 C 3,2 km/h (1 Bft) 91,49 %
06.07.2017 11:34 27,9 C 23,9 C 46 % 1017,0 hPa 0,0 l/m 3,2 km/h (1 Bft) W-SW 253 2 min 0,000 mm 5,4 UV-I 835 W/m 15,2 C 27,9 C 6,4 km/h (2 Bft) 97,87 %
06.07.2017 11:36 27,7 C 23,9 C 48 % 1017,0 hPa 0,0 l/m 1,8 km/h (1 Bft) N 5 2 min 0,000 mm 5,4 UV-I 833 W/m 15,7 C 27,7 C 4,8 km/h (1 Bft) 97,87 %
06.07.2017 11:40 27,9 C 23,9 C 47 % 1017,0 hPa 0,0 l/m 1,5 km/h (1 Bft) N-NO 28 4 min 0,000 mm 4,6 UV-I 839 W/m 15,5 C 27,9 C 6,4 km/h (2 Bft) 100,00 %
06.07.2017 11:42 28,0 C 23,9 C 47 % 1016,9 hPa 0,0 l/m 5,7 km/h (1 Bft) W 281 2 min 0,000 mm 5,4 UV-I 839 W/m 15,6 C 28,0 C 12,9 km/h (3 Bft) 96,00 %
06.07.2017 11:44 27,8 C 23,9 C 46 % 1016,9 hPa 0,0 l/m 7,9 km/h (2 Bft) W 261 2 min 0,000 mm 5,5 UV-I 845 W/m 15,1 C 27,6 C 12,9 km/h (3 Bft) 97,87 %
06.07.2017 11:46 27,6 C 23,9 C 47 % 1016,9 hPa 0,0 l/m 2,7 km/h (1 Bft) S 190 2 min 0,000 mm 5,5 UV-I 845 W/m 15,3 C 27,6 C 8,0 km/h (2 Bft) 94,00 %
06.07.2017 11:48 27,4 C 23,9 C 47 % 1016,9 hPa 0,0 l/m 2,4 km/h (1 Bft) NO 37 2 min 0,000 mm 5,6 UV-I 852 W/m 15,1 C 27,4 C 8,0 km/h (2 Bft) 100,00 %
06.07.2017 11:50 27,8 C 23,9 C 49 % 1016,9 hPa 0,0 l/m 5,7 km/h (1 Bft) N-NO 15 2 min 0,000 mm 5,7 UV-I 859 W/m 16,1 C 27,8 C 11,3 km/h (2 Bft) 95,74 %
06.07.2017 11:52 27,9 C 23,9 C 48 % 1016,9 hPa 0,0 l/m 3,3 km/h (1 Bft) NW 310 2 min 0,000 mm 5,7 UV-I 858 W/m 15,9 C 27,9 C 6,4 km/h (2 Bft) 100,00 %
06.07.2017 11:54 28,2 C 23,9 C 47 % 1016,9 hPa 0,0 l/m 2,8 km/h (1 Bft) N 355 2 min 0,000 mm 5,6 UV-I 854 W/m 15,8 C 28,2 C 8,0 km/h (2 Bft) 97,56 %
06.07.2017 11:56 28,3 C 23,9 C 46 % 1016,9 hPa 0,0 l/m 2,8 km/h (1 Bft) N-NO 29 2 min 0,000 mm 5,7 UV-I 857 W/m 15,6 C 28,3 C 8,0 km/h (2 Bft) 100,00 %
06.07.2017 11:58 28,2 C 23,9 C 44 % 1016,9 hPa 0,0 l/m 2,0 km/h (1 Bft) NO 52 2 min 0,000 mm 5,8 UV-I 867 W/m 14,8 C 28,2 C 4,8 km/h (1 Bft) 98,11 %
06.07.2017 12:00 28,2 C 23,9 C 45 % 1016,8 hPa 0,0 l/m 3,3 km/h (1 Bft) SO 128 2 min 0,558 mm 5,9 UV-I 870 W/m 15,1 C 28,2 C 6,4 km/h (2 Bft) 97,37 %
06.07.2017 12:02 28,3 C 23,9 C 42 % 1016,8 hPa 0,0 l/m 4,3 km/h (1 Bft) S-SO 163 2 min 0,000 mm 5,9 UV-I 876 W/m 14,1 C 28,3 C 8,0 km/h (2 Bft) 98,00 %
06.07.2017 12:04 28,3 C 23,9 C 43 % 1016,8 hPa 0,0 l/m 4,1 km/h (1 Bft) O-SO 110 2 min 0,000 mm 5,3 UV-I 876 W/m 14,5 C 28,3 C 8,0 km/h (2 Bft) 97,87 %
06.07.2017 12:06 28,6 C 23,9 C 45 % 1016,8 hPa 0,0 l/m 1,9 km/h (1 Bft) O-SO 121 2 min 0,000 mm 5,9 UV-I 873 W/m 15,5 C 28,6 C 4,8 km/h (1 Bft) 97,44 %
06.07.2017 12:08 28,7 C 23,9 C 44 % 1016,8 hPa 0,0 l/m 1,7 km/h (1 Bft) S-SW 205 2 min 0,000 mm 5,2 UV-I 866 W/m 15,2 C 28,7 C 4,8 km/h (1 Bft) 92,86 %
06.07.2017 12:10 28,7 C 23,9 C 43 % 1016,8 hPa 0,0 l/m 2,2 km/h (1 Bft) W-NW 292 2 min 0,000 mm 5,9 UV-I 868 W/m 14,9 C 28,7 C 8,0 km/h (2 Bft) 100,00 %
06.07.2017 12:12 28,7 C 24,4 C 42 % 1016,8 hPa 0,0 l/m 3,6 km/h (1 Bft) N-NO 13 2 min 0,000 mm 5,8 UV-I 869 W/m 14,5 C 28,7 C 8,0 km/h (2 Bft) 100,00 %
06.07.2017 12:14 28,8 C 24,4 C 44 % 1016,8 hPa 0,0 l/m 4,6 km/h (1 Bft) N-NO 22 2 min 0,000 mm 5,9 UV-I 869 W/m 15,3 C 28,8 C 8,0 km/h (2 Bft) 96,00 %
06.07.2017 12:16 29,1 C 24,4 C 41 % 1016,8 hPa 0,0 l/m 6,4 km/h (2 Bft) NO 47 2 min 0,000 mm 5,9 UV-I 870 W/m 14,5 C 29,1 C 11,3 km/h (2 Bft) 98,00 %
06.07.2017 12:18 29,3 C 24,4 C 43 % 1016,7 hPa 0,0 l/m 7,8 km/h (2 Bft) NO 52 2 min 0,000 mm 5,8 UV-I 865 W/m 15,4 C 29,1 C 12,9 km/h (3 Bft) 95,74 %
06.07.2017 12:20 29,3 C 24,4 C 41 % 1016,7 hPa 0,0 l/m 8,1 km/h (2 Bft) N-NO 18 2 min 0,000 mm 5,7 UV-I 853 W/m 14,7 C 29,1 C 14,5 km/h (3 Bft) 97,56 %
06.07.2017 12:22 29,2 C 24,4 C 41 % 1016,8 hPa 0,0 l/m 1,6 km/h (1 Bft) N 5 2 min 0,000 mm 5,8 UV-I 864 W/m 14,6 C 29,2 C 3,2 km/h (1 Bft) 96,23 %
06.07.2017 12:24 29,2 C 24,4 C 41 % 1016,7 hPa 0,0 l/m 5,8 km/h (2 Bft) NO 45 2 min 0,000 mm 5,9 UV-I 868 W/m 14,6 C 29,2 C 9,7 km/h (2 Bft) 100,00 %
06.07.2017 12:26 29,3 C 24,4 C 41 % 1016,7 hPa 0,0 l/m 1,5 km/h (1 Bft) NO 55 2 min 0,000 mm 5,9 UV-I 866 W/m 14,7 C 29,3 C 4,8 km/h (1 Bft) 100,00 %
06.07.2017 12:28 29,3 C 24,4 C 38 % 1016,6 hPa 0,0 l/m 6,5 km/h (2 Bft) S 182 2 min 0,000 mm 5,9 UV-I 872 W/m 13,5 C 29,3 C 12,9 km/h (3 Bft) 97,37 %
06.07.2017 12:30 29,3 C 24,4 C 40 % 1016,6 hPa 0,0 l/m 5,1 km/h (1 Bft) S-SO 164 2 min 0,000 mm 6,0 UV-I 878 W/m 14,3 C 29,3 C 8,0 km/h (2 Bft) 100,00 %
06.07.2017 12:32 29,2 C 24,4 C 41 % 1016,6 hPa 0,0 l/m 3,0 km/h (1 Bft) W-SW 240 2 min 0,000 mm 6,1 UV-I 885 W/m 14,6 C 29,2 C 6,4 km/h (2 Bft) 98,00 %
06.07.2017 12:34 29,3 C 24,4 C 40 % 1016,6 hPa 0,0 l/m 3,4 km/h (1 Bft) W-NW 284 2 min 0,000 mm 6,2 UV-I 882 W/m 14,3 C 29,3 C 11,3 km/h (2 Bft) 98,00 %
06.07.2017 12:36 29,3 C 24,4 C 40 % 1016,7 hPa 0,0 l/m 5,7 km/h (1 Bft) W-SW 248 2 min 0,000 mm 6,2 UV-I 887 W/m 14,3 C 29,3 C 12,9 km/h (3 Bft) 100,00 %
06.07.2017 12:38 29,4 C 24,4 C 39 % 1016,6 hPa 0,0 l/m 8,4 km/h (2 Bft) SW 235 2 min 0,000 mm 6,1 UV-I 886 W/m 14,0 C 29,2 C 12,9 km/h (3 Bft) 97,73 %
06.07.2017 12:40 29,2 C 24,4 C 40 % 1016,5 hPa 0,0 l/m 6,6 km/h (2 Bft) N-NW 332 2 min 0,000 mm 6,1 UV-I 886 W/m 14,2 C 29,2 C 12,9 km/h (3 Bft) 100,00 %
06.07.2017 12:42 29,2 C 24,4 C 39 % 1016,6 hPa 0,0 l/m 8,1 km/h (2 Bft) SW 223 2 min 0,000 mm 6,3 UV-I 900 W/m 13,8 C 29,0 C 17,7 km/h (3 Bft) 97,87 %
06.07.2017 12:44 29,2 C 24,4 C 40 % 1016,6 hPa 0,0 l/m 8,0 km/h (2 Bft) SW 217 2 min 0,000 mm 6,3 UV-I 898 W/m 14,2 C 29,0 C 12,9 km/h (3 Bft) 100,00 %
06.07.2017 12:46 29,1 C 24,4 C 41 % 1016,5 hPa 0,0 l/m 1,9 km/h (1 Bft) S-SW 207 2 min 0,000 mm 6,2 UV-I 892 W/m 14,5 C 29,1 C 4,8 km/h (1 Bft) 97,56 %
06.07.2017 12:48 29,2 C 24,4 C 39 % 1016,5 hPa 0,0 l/m 5,4 km/h (1 Bft) SO 126 2 min 0,000 mm 6,3 UV-I 895 W/m 13,8 C 29,2 C 12,9 km/h (3 Bft) 100,00 %
06.07.2017 12:50 29,3 C 24,4 C 42 % 1016,5 hPa 0,0 l/m 8,0 km/h (2 Bft) W-SW 241 2 min 0,000 mm 6,3 UV-I 898 W/m 15,0 C 29,1 C 16,1 km/h (3 Bft) 97,56 %
06.07.2017 12:52 29,4 C 24,4 C 39 % 1016,5 hPa 0,0 l/m 8,0 km/h (2 Bft) SW 227 2 min 0,000 mm 6,3 UV-I 898 W/m 14,0 C 29,2 C 14,5 km/h (3 Bft) 97,73 %
06.07.2017 12:54 29,2 C 24,4 C 39 % 1016,4 hPa 0,0 l/m 4,5 km/h (1 Bft) SO 134 2 min 0,000 mm 6,3 UV-I 896 W/m 13,8 C 29,2 C 8,0 km/h (2 Bft) 98,11 %
06.07.2017 12:56 29,2 C 24,4 C 40 % 1016,4 hPa 0,0 l/m 8,4 km/h (2 Bft) S-SO 157 2 min 0,000 mm 6,4 UV-I 899 W/m 14,2 C 29,0 C 16,1 km/h (3 Bft) 93,18 %
06.07.2017 12:58 29,5 C 24,4 C 41 % 1016,4 hPa 0,0 l/m 3,8 km/h (1 Bft) SO 144 2 min 0,000 mm 6,4 UV-I 897 W/m 14,8 C 29,5 C 8,0 km/h (2 Bft) 95,45 %
06.07.2017 13:00 29,7 C 24,4 C 40 % 1016,4 hPa 0,0 l/m 6,1 km/h (2 Bft) W-SW 245 2 min 0,635 mm 6,3 UV-I 893 W/m 14,6 C 29,7 C 12,9 km/h (3 Bft) 100,00 %
06.07.2017 13:02 29,7 C 24,4 C 40 % 1016,4 hPa 0,0 l/m 9,4 km/h (2 Bft) W-SW 254 2 min 0,000 mm 6,3 UV-I 899 W/m 14,6 C 29,4 C 16,1 km/h (3 Bft) 95,74 %
06.07.2017 13:04 29,7 C 24,4 C 43 % 1016,4 hPa 0,0 l/m 6,7 km/h (2 Bft) S-SW 201 2 min 0,000 mm 6,4 UV-I 897 W/m 15,8 C 29,7 C 11,3 km/h (2 Bft) 98,00 %
06.07.2017 13:06 29,9 C 24,4 C 40 % 1016,4 hPa 0,0 l/m 5,0 km/h (1 Bft) O 96 2 min 0,000 mm 6,3 UV-I 896 W/m 14,8 C 29,9 C 9,7 km/h (2 Bft) 96,00 %
06.07.2017 13:08 29,9 C 24,4 C 39 % 1016,3 hPa 0,0 l/m 3,7 km/h (1 Bft) N 355 2 min 0,000 mm 6,2 UV-I 894 W/m 14,4 C 29,9 C 8,0 km/h (2 Bft) 94,74 %
06.07.2017 13:10 29,7 C 24,4 C 40 % 1016,3 hPa 0,0 l/m 3,9 km/h (1 Bft) W-NW 288 2 min 0,000 mm 6,2 UV-I 892 W/m 14,6 C 29,7 C 12,9 km/h (3 Bft) 96,23 %
06.07.2017 13:12 29,9 C 24,4 C 41 % 1016,3 hPa 0,0 l/m 7,6 km/h (2 Bft) NW 307 2 min 0,000 mm 6,4 UV-I 897 W/m 15,2 C 29,8 C 12,9 km/h (3 Bft) 93,62 %
06.07.2017 13:14 29,8 C 24,4 C 40 % 1016,2 hPa 0,0 l/m 4,6 km/h (1 Bft) N 9 2 min 0,000 mm 6,4 UV-I 900 W/m 14,7 C 29,8 C 8,0 km/h (2 Bft) 89,36 %
06.07.2017 13:16 30,0 C 24,4 C 40 % 1016,3 hPa 0,0 l/m 3,0 km/h (1 Bft) W-SW 242 2 min 0,000 mm 6,4 UV-I 902 W/m 14,9 C 30,0 C 8,0 km/h (2 Bft) 93,62 %
06.07.2017 13:18 30,0 C 24,4 C 40 % 1016,3 hPa 0,0 l/m 3,3 km/h (1 Bft) W 279 2 min 0,000 mm 6,3 UV-I 898 W/m 14,9 C 30,0 C 6,4 km/h (2 Bft) 92,00 %
06.07.2017 13:20 30,1 C 24,4 C 44 % 1016,2 hPa 0,0 l/m 3,1 km/h (1 Bft) NO 37 2 min 0,000 mm 6,2 UV-I 891 W/m 16,5 C 30,1 C 6,4 km/h (2 Bft) 92,68 %
06.07.2017 13:22 30,5 C 25,0 C 40 % 1016,2 hPa 0,0 l/m 4,0 km/h (1 Bft) N 9 2 min 0,000 mm 6,3 UV-I 894 W/m 15,3 C 30,5 C 11,3 km/h (2 Bft) 93,33 %
06.07.2017 13:24 30,7 C 24,4 C 39 % 1016,2 hPa 0,0 l/m 3,2 km/h (1 Bft) SW 234 2 min 0,000 mm 6,4 UV-I 897 W/m 15,1 C 30,7 C 4,8 km/h (1 Bft) 86,54 %
06.07.2017 13:26 30,6 C 24,4 C 40 % 1016,2 hPa 0,0 l/m 6,0 km/h (2 Bft) N-NW 327 2 min 0,000 mm 6,4 UV-I 888 W/m 15,4 C 30,6 C 14,5 km/h (3 Bft) 94,44 %
06.07.2017 13:28 30,6 C 25,0 C 38 % 1016,0 hPa 0,0 l/m 2,7 km/h (1 Bft) NW 305 2 min 0,000 mm 6,4 UV-I 895 W/m 14,6 C 30,6 C 6,4 km/h (2 Bft) 94,23 %
06.07.2017 13:30 30,6 C 25,0 C 39 % 1016,1 hPa 0,0 l/m 5,1 km/h (1 Bft) NW 312 2 min 0,000 mm 6,4 UV-I 896 W/m 15,0 C 30,6 C 11,3 km/h (2 Bft) 86,79 %
06.07.2017 13:32 30,7 C 25,0 C 37 % 1016,1 hPa 0,0 l/m 2,3 km/h (1 Bft) NW 323 2 min 0,000 mm 6,3 UV-I 890 W/m 14,3 C 30,7 C 4,8 km/h (1 Bft) 95,12 %
06.07.2017 13:34 30,7 C 25,0 C 39 % 1016,0 hPa 0,0 l/m 0,8 km/h (0 Bft) NW 326 2 min 0,000 mm 6,0 UV-I 879 W/m 15,1 C 30,7 C 3,2 km/h (1 Bft) 92,68 %
06.07.2017 13:36 30,6 C 25,0 C 38 % 1015,9 hPa 0,0 l/m 3,3 km/h (1 Bft) N 355 2 min 0,000 mm 6,0 UV-I 881 W/m 14,6 C 30,6 C 8,0 km/h (2 Bft) 84,91 %
06.07.2017 13:38 30,5 C 25,0 C 39 % 1015,9 hPa 0,0 l/m 2,7 km/h (1 Bft) O-NO 69 2 min 0,000 mm 6,2 UV-I 891 W/m 15,0 C 30,5 C 6,4 km/h (2 Bft) 86,79 %
06.07.2017 13:40 30,7 C 25,0 C 39 % 1016,0 hPa 0,0 l/m 2,6 km/h (1 Bft) W-SW 254 2 min 0,000 mm 6,0 UV-I 874 W/m 15,1 C 30,7 C 4,8 km/h (1 Bft) 94,74 %
06.07.2017 13:42 31,0 C 25,0 C 40 % 1015,9 hPa 0,0 l/m 6,7 km/h (2 Bft) W 259 2 min 0,000 mm 6,0 UV-I 878 W/m 15,8 C 31,0 C 12,9 km/h (3 Bft) 94,00 %
06.07.2017 13:44 30,8 C 25,0 C 38 % 1015,9 hPa 0,0 l/m 5,5 km/h (1 Bft) W-SW 248 2 min 0,000 mm 6,1 UV-I 887 W/m 14,8 C 30,8 C 11,3 km/h (2 Bft) 90,00 %
06.07.2017 13:46 30,5 C 25,0 C 40 % 1015,9 hPa 0,0 l/m 7,3 km/h (2 Bft) W-NW 284 2 min 0,000 mm 6,1 UV-I 885 W/m 15,3 C 30,4 C 12,9 km/h (3 Bft) 95,45 %
06.07.2017 13:48 30,5 C 25,0 C 38 % 1015,9 hPa 0,0 l/m 4,9 km/h (1 Bft) W-NW 282 2 min 0,000 mm 6,1 UV-I 886 W/m 14,5 C 30,5 C 11,3 km/h (2 Bft) 94,34 %
06.07.2017 13:50 30,6 C 25,0 C 38 % 1015,9 hPa 0,0 l/m 3,9 km/h (1 Bft) N-NW 333 2 min 0,000 mm 6,1 UV-I 883 W/m 14,6 C 30,6 C 9,7 km/h (2 Bft) 92,68 %
06.07.2017 13:52 30,7 C 25,0 C 38 % 1015,9 hPa 0,0 l/m 3,8 km/h (1 Bft) W 259 2 min 0,000 mm 6,1 UV-I 885 W/m 14,7 C 30,7 C 11,3 km/h (2 Bft) 95,74 %
06.07.2017 13:54 31,0 C 25,0 C 38 % 1015,9 hPa 0,0 l/m 9,0 km/h (2 Bft) W-SW 248 2 min 0,000 mm 6,1 UV-I 885 W/m 15,0 C 30,8 C 14,5 km/h (3 Bft) 92,00 %
06.07.2017 13:56 31,3 C 25,0 C 37 % 1015,8 hPa 0,0 l/m 5,2 km/h (1 Bft) NW 314 2 min 0,000 mm 6,2 UV-I 891 W/m 14,8 C 31,3 C 9,7 km/h (2 Bft) 96,00 %
06.07.2017 13:58 31,2 C 25,0 C 37 % 1015,8 hPa 0,0 l/m 2,6 km/h (1 Bft) S 175 2 min 0,000 mm 6,1 UV-I 891 W/m 14,8 C 31,2 C 6,4 km/h (2 Bft) 95,83 %
06.07.2017 14:00 31,2 C 25,0 C 39 % 1015,8 hPa 0,0 l/m 5,1 km/h (1 Bft) W 273 2 min 0,635 mm 5,9 UV-I 883 W/m 15,6 C 31,2 C 8,0 km/h (2 Bft) 93,75 %
06.07.2017 14:02 31,1 C 25,0 C 37 % 1015,7 hPa 0,0 l/m 6,1 km/h (2 Bft) NO 38 2 min 0,000 mm 5,8 UV-I 873 W/m 14,7 C 31,1 C 16,1 km/h (3 Bft) 100,00 %
06.07.2017 14:04 31,2 C 25,0 C 38 % 1015,7 hPa 0,0 l/m 9,1 km/h (2 Bft) W 261 2 min 0,000 mm 5,8 UV-I 873 W/m 15,2 C 31,1 C 16,1 km/h (3 Bft) 100,00 %
06.07.2017 14:06 31,4 C 25,0 C 38 % 1015,7 hPa 0,0 l/m 4,7 km/h (1 Bft) W 274 2 min 0,000 mm 5,7 UV-I 875 W/m 15,3 C 31,4 C 8,0 km/h (2 Bft) 100,00 %
06.07.2017 14:08 31,7 C 25,0 C 39 % 1015,7 hPa 0,0 l/m 2,1 km/h (1 Bft) W 277 2 min 0,000 mm 5,9 UV-I 884 W/m 16,0 C 31,7 C 9,7 km/h (2 Bft) 98,21 %
06.07.2017 14:10 31,8 C 25,0 C 36 % 1015,7 hPa 0,0 l/m 3,4 km/h (1 Bft) W 261 2 min 0,000 mm 5,9 UV-I 875 W/m 14,9 C 31,8 C 4,8 km/h (1 Bft) 95,74 %
06.07.2017 14:12 31,9 C 25,0 C 35 % 1015,7 hPa 0,0 l/m 7,1 km/h (2 Bft) W-SW 242 2 min 0,000 mm 5,8 UV-I 871 W/m 14,5 C 31,9 C 16,1 km/h (3 Bft) 97,87 %
06.07.2017 14:14 31,8 C 25,0 C 35 % 1015,8 hPa 0,0 l/m 9,9 km/h (2 Bft) W-SW 252 2 min 0,000 mm 5,8 UV-I 870 W/m 14,4 C 31,7 C 17,7 km/h (3 Bft) 100,00 %
06.07.2017 14:16 31,5 C 25,0 C 35 % 1015,7 hPa 0,0 l/m 12,5 km/h (3 Bft) SW 227 2 min 0,000 mm 5,8 UV-I 875 W/m 14,2 C 31,3 C 19,3 km/h (3 Bft) 100,00 %
06.07.2017 14:18 31,4 C 25,0 C 36 % 1015,7 hPa 0,0 l/m 6,5 km/h (2 Bft) W-SW 258 2 min 0,000 mm 5,8 UV-I 874 W/m 14,5 C 31,4 C 11,3 km/h (2 Bft) 96,00 %
06.07.2017 14:20 31,3 C 25,0 C 37 % 1015,7 hPa 0,0 l/m 9,1 km/h (2 Bft) W-SW 237 2 min 0,000 mm 5,6 UV-I 875 W/m 14,8 C 31,2 C 19,3 km/h (3 Bft) 100,00 %
06.07.2017 14:22 31,4 C 25,0 C 35 % 1015,8 hPa 0,0 l/m 14,3 km/h (3 Bft) W-SW 255 2 min 0,000 mm 4,5 UV-I 867 W/m 14,1 C 31,1 C 17,7 km/h (3 Bft) 97,73 %
06.07.2017 14:24 31,3 C 25,0 C 34 % 1015,7 hPa 0,0 l/m 9,9 km/h (2 Bft) W-NW 290 2 min 0,000 mm 4,1 UV-I 867 W/m 13,5 C 31,1 C 17,7 km/h (3 Bft) 96,23 %
06.07.2017 14:26 31,2 C 25,0 C 35 % 1015,7 hPa 0,0 l/m 10,7 km/h (2 Bft) W-SW 240 2 min 0,000 mm 5,7 UV-I 882 W/m 13,9 C 31,0 C 20,9 km/h (4 Bft) 100,00 %
06.07.2017 14:28 31,3 C 25,0 C 35 % 1015,7 hPa 0,0 l/m 10,3 km/h (2 Bft) W 267 2 min 0,000 mm 5,8 UV-I 883 W/m 14,0 C 31,1 C 14,5 km/h (3 Bft) 100,00 %
06.07.2017 14:30 31,4 C 25,0 C 35 % 1015,6 hPa 0,0 l/m 9,0 km/h (2 Bft) S-SW 207 2 min 0,000 mm 5,7 UV-I 871 W/m 14,1 C 31,3 C 17,7 km/h (3 Bft) 97,87 %
06.07.2017 14:32 31,4 C 25,0 C 35 % 1015,6 hPa 0,0 l/m 9,6 km/h (2 Bft) N 9 2 min 0,000 mm 5,7 UV-I 866 W/m 14,1 C 31,2 C 16,1 km/h (3 Bft) 95,45 %
06.07.2017 14:34 31,4 C 25,0 C 34 % 1015,5 hPa 0,0 l/m 5,6 km/h (1 Bft) W-SW 254 2 min 0,000 mm 5,7 UV-I 865 W/m 13,6 C 31,4 C 12,9 km/h (3 Bft) 96,08 %
06.07.2017 14:36 31,5 C 25,0 C 33 % 1015,6 hPa 0,0 l/m 11,5 km/h (2 Bft) W-SW 240 2 min 0,000 mm 5,6 UV-I 862 W/m 13,2 C 31,3 C 19,3 km/h (3 Bft) 97,62 %
06.07.2017 14:38 31,6 C 25,0 C 34 % 1015,6 hPa 0,0 l/m 16,6 km/h (3 Bft) S 173 2 min 0,000 mm 5,5 UV-I 851 W/m 13,8 C 31,3 C 24,1 km/h (4 Bft) 93,10 %
06.07.2017 14:40 31,5 C 25,0 C 33 % 1015,6 hPa 0,0 l/m 8,8 km/h (2 Bft) W-NW 296 2 min 0,000 mm 5,7 UV-I 870 W/m 13,2 C 31,4 C 20,9 km/h (4 Bft) 97,87 %
06.07.2017 14:42 31,4 C 25,0 C 34 % 1015,6 hPa 0,0 l/m 17,2 km/h (3 Bft) W-SW 240 2 min 0,000 mm 5,6 UV-I 868 W/m 13,6 C 31,0 C 25,7 km/h (4 Bft) 100,00 %
06.07.2017 14:44 31,5 C 25,0 C 34 % 1015,6 hPa 0,0 l/m 16,7 km/h (3 Bft) W-SW 254 2 min 0,000 mm 5,5 UV-I 856 W/m 13,7 C 31,1 C 22,5 km/h (4 Bft) 95,24 %
06.07.2017 14:46 31,4 C 25,0 C 33 % 1015,6 hPa 0,0 l/m 10,9 km/h (2 Bft) W-SW 244 2 min 0,000 mm 5,3 UV-I 842 W/m 13,2 C 31,2 C 17,7 km/h (3 Bft) 98,00 %
06.07.2017 14:48 31,2 C 25,0 C 34 % 1015,5 hPa 0,0 l/m 5,9 km/h (2 Bft) W-SW 243 2 min 0,000 mm 5,3 UV-I 845 W/m 13,4 C 31,2 C 11,3 km/h (2 Bft) 97,87 %
06.07.2017 14:50 31,3 C 25,0 C 35 % 1015,5 hPa 0,0 l/m 5,8 km/h (2 Bft) SW 228 2 min 0,000 mm 5,4 UV-I 860 W/m 14,0 C 31,3 C 9,7 km/h (2 Bft) 100,00 %
06.07.2017 14:52 31,7 C 25,0 C 37 % 1015,5 hPa 0,0 l/m 5,4 km/h (1 Bft) W-SW 247 2 min 0,000 mm 5,3 UV-I 864 W/m 15,2 C 31,7 C 11,3 km/h (2 Bft) 98,11 %
06.07.2017 14:54 31,8 C 25,0 C 33 % 1015,4 hPa 0,0 l/m 3,4 km/h (1 Bft) NW 309 2 min 0,000 mm 5,1 UV-I 866 W/m 13,5 C 31,8 C 6,4 km/h (2 Bft) 97,14 %
06.07.2017 14:56 31,9 C 25,0 C 32 % 1015,4 hPa 0,0 l/m 5,3 km/h (1 Bft) W-SW 249 2 min 0,000 mm 5,0 UV-I 844 W/m 13,1 C 31,9 C 11,3 km/h (2 Bft) 98,00 %
06.07.2017 14:58 32,0 C 25,0 C 34 % 1015,5 hPa 0,0 l/m 9,9 km/h (2 Bft) W-SW 254 2 min 0,000 mm 5,1 UV-I 835 W/m 14,1 C 31,9 C 20,9 km/h (4 Bft) 98,11 %
06.07.2017 15:00 32,1 C 25,0 C 32 % 1015,5 hPa 0,0 l/m 13,1 km/h (3 Bft) SW 215 2 min 0,686 mm 5,0 UV-I 832 W/m 13,3 C 31,9 C 19,3 km/h (3 Bft) 100,00 %
06.07.2017 15:02 32,1 C 25,0 C 32 % 1015,5 hPa 0,0 l/m 7,6 km/h (2 Bft) W 279 2 min 0,000 mm 5,0 UV-I 831 W/m 13,3 C 32,1 C 12,9 km/h (3 Bft) 98,11 %
06.07.2017 15:04 32,1 C 25,0 C 31 % 1015,4 hPa 0,0 l/m 6,3 km/h (2 Bft) S-SO 161 2 min 0,000 mm 5,0 UV-I 828 W/m 12,8 C 32,1 C 11,3 km/h (2 Bft) 95,12 %
06.07.2017 15:06 31,9 C 25,6 C 34 % 1015,4 hPa 0,0 l/m 7,5 km/h (2 Bft) SW 218 2 min 0,000 mm 4,8 UV-I 844 W/m 14,1 C 31,9 C 12,9 km/h (3 Bft) 96,00 %
06.07.2017 15:08 31,9 C 25,6 C 32 % 1015,4 hPa 0,0 l/m 7,3 km/h (2 Bft) SW 229 2 min 0,000 mm 4,2 UV-I 856 W/m 13,1 C 31,9 C 14,5 km/h (3 Bft) 98,11 %
06.07.2017 15:10 31,9 C 25,6 C 33 % 1015,3 hPa 0,0 l/m 6,5 km/h (2 Bft) S-SW 208 2 min 0,000 mm 4,8 UV-I 845 W/m 13,6 C 31,9 C 14,5 km/h (3 Bft) 97,56 %
06.07.2017 15:12 32,0 C 25,6 C 32 % 1015,4 hPa 0,0 l/m 6,5 km/h (2 Bft) W-SW 245 2 min 0,000 mm 4,9 UV-I 832 W/m 13,2 C 32,0 C 14,5 km/h (3 Bft) 97,56 %
06.07.2017 15:14 32,1 C 25,6 C 33 % 1015,4 hPa 0,0 l/m 7,6 km/h (2 Bft) W-SW 242 2 min 0,000 mm 4,9 UV-I 843 W/m 13,8 C 32,1 C 16,1 km/h (3 Bft) 94,64 %
06.07.2017 15:16 32,2 C 25,6 C 32 % 1015,4 hPa 0,0 l/m 13,4 km/h (3 Bft) W 260 2 min 0,000 mm 4,8 UV-I 844 W/m 13,4 C 32,1 C 19,3 km/h (3 Bft) 94,87 %
06.07.2017 15:18 32,0 C 25,6 C 31 % 1015,4 hPa 0,0 l/m 10,6 km/h (2 Bft) W-SW 247 2 min 0,000 mm 3,1 UV-I 534 W/m 12,7 C 31,9 C 24,1 km/h (4 Bft) 94,23 %
06.07.2017 15:20 31,8 C 25,6 C 32 % 1015,3 hPa 0,0 l/m 7,3 km/h (2 Bft) S-SW 204 0 min 0,000 mm 3,0 UV-I 141 W/m 13,0 C 31,8 C 12,9 km/h (3 Bft) 95,24 %
06.07.2017 15:22 31,7 C 25,6 C 31 % 1015,3 hPa 0,0 l/m 5,8 km/h (2 Bft) W-SW 240 2 min 0,000 mm 4,5 UV-I 647 W/m 12,5 C 31,7 C 9,7 km/h (2 Bft) 96,23 %
06.07.2017 15:24 31,7 C 25,6 C 32 % 1015,3 hPa 0,0 l/m 5,5 km/h (1 Bft) W-SW 254 2 min 0,000 mm 4,6 UV-I 782 W/m 12,9 C 31,7 C 12,9 km/h (3 Bft) 94,00 %
06.07.2017 15:26 31,9 C 25,6 C 32 % 1015,3 hPa 0,0 l/m 8,0 km/h (2 Bft) NW 305 2 min 0,000 mm 4,5 UV-I 758 W/m 13,1 C 31,8 C 12,9 km/h (3 Bft) 92,11 %
06.07.2017 15:28 31,9 C 25,6 C 32 % 1015,2 hPa 0,0 l/m 2,3 km/h (1 Bft) W 281 2 min 0,000 mm 4,5 UV-I 790 W/m 13,1 C 31,9 C 4,8 km/h (1 Bft) 98,00 %
06.07.2017 15:30 31,9 C 25,6 C 31 % 1015,3 hPa 0,0 l/m 4,3 km/h (1 Bft) NW 304 2 min 0,000 mm 4,4 UV-I 781 W/m 12,6 C 31,9 C 11,3 km/h (2 Bft) 94,34 %
06.07.2017 15:32 32,0 C 25,6 C 31 % 1015,3 hPa 0,0 l/m 5,5 km/h (1 Bft) W 261 2 min 0,000 mm 4,4 UV-I 779 W/m 12,7 C 32,0 C 11,3 km/h (2 Bft) 95,45 %
06.07.2017 15:34 32,1 C 25,6 C 31 % 1015,2 hPa 0,0 l/m 10,3 km/h (2 Bft) W-SW 244 2 min 0,000 mm 4,3 UV-I 780 W/m 12,8 C 32,0 C 17,7 km/h (3 Bft) 97,56 %
06.07.2017 15:36 32,2 C 25,6 C 34 % 1015,2 hPa 0,0 l/m 4,9 km/h (1 Bft) S-SW 194 2 min 0,000 mm 4,1 UV-I 773 W/m 14,3 C 32,2 C 8,0 km/h (2 Bft) 96,23 %
06.07.2017 15:38 32,0 C 25,6 C 31 % 1015,2 hPa 0,0 l/m 1,9 km/h (1 Bft) W-SW 252 2 min 0,000 mm 3,4 UV-I 772 W/m 12,7 C 32,0 C 8,0 km/h (2 Bft) 97,37 %
06.07.2017 15:40 31,8 C 25,6 C 32 % 1015,1 hPa 0,0 l/m 5,3 km/h (1 Bft) S-SW 212 2 min 0,000 mm 4,0 UV-I 784 W/m 13,0 C 31,8 C 11,3 km/h (2 Bft) 96,23 %
06.07.2017 15:42 31,9 C 25,6 C 31 % 1015,1 hPa 0,0 l/m 3,6 km/h (1 Bft) SW 230 2 min 0,000 mm 4,2 UV-I 816 W/m 12,6 C 31,9 C 12,9 km/h (3 Bft) 100,00 %
06.07.2017 15:44 32,1 C 25,6 C 31 % 1015,1 hPa 0,0 l/m 2,2 km/h (1 Bft) W-NW 294 2 min 0,000 mm 4,0 UV-I 805 W/m 12,8 C 32,1 C 4,8 km/h (1 Bft) 98,31 %
06.07.2017 15:46 32,3 C 25,6 C 29 % 1015,1 hPa 0,0 l/m 4,1 km/h (1 Bft) W-SW 243 2 min 0,000 mm 3,9 UV-I 796 W/m 12,0 C 32,3 C 8,0 km/h (2 Bft) 100,00 %
06.07.2017 15:48 32,2 C 25,6 C 30 % 1015,1 hPa 0,0 l/m 6,5 km/h (2 Bft) NW 320 2 min 0,000 mm 3,7 UV-I 796 W/m 12,4 C 32,2 C 12,9 km/h (3 Bft) 100,00 %
06.07.2017 15:50 32,2 C 25,6 C 31 % 1015,1 hPa 0,0 l/m 2,6 km/h (1 Bft) W-NW 303 2 min 0,000 mm 3,9 UV-I 752 W/m 12,9 C 32,2 C 6,4 km/h (2 Bft) 92,68 %
06.07.2017 15:52 32,3 C 25,6 C 30 % 1015,0 hPa 0,0 l/m 5,7 km/h (1 Bft) NW 306 2 min 0,000 mm 3,9 UV-I 789 W/m 12,5 C 32,3 C 14,5 km/h (3 Bft) 100,00 %
06.07.2017 15:54 32,6 C 25,6 C 29 % 1015,0 hPa 0,0 l/m 10,4 km/h (2 Bft) W 271 2 min 0,000 mm 3,9 UV-I 795 W/m 12,2 C 32,6 C 19,3 km/h (3 Bft) 94,00 %
06.07.2017 15:56 32,7 C 25,6 C 30 % 1015,2 hPa 0,0 l/m 9,1 km/h (2 Bft) W 281 2 min 0,000 mm 3,9 UV-I 791 W/m 12,8 C 32,7 C 17,7 km/h (3 Bft) 100,00 %
06.07.2017 15:58 32,7 C 25,6 C 29 % 1015,1 hPa 0,0 l/m 12,4 km/h (3 Bft) W-NW 286 2 min 0,000 mm 3,9 UV-I 797 W/m 12,3 C 32,7 C 17,7 km/h (3 Bft) 98,08 %
06.07.2017 16:00 32,6 C 25,6 C 29 % 1015,0 hPa 0,0 l/m 6,2 km/h (2 Bft) W-NW 290 2 min 0,000 mm 3,5 UV-I 811 W/m 12,2 C 32,6 C 12,9 km/h (3 Bft) 95,24 %
06.07.2017 16:02 32,6 C 25,6 C 29 % 1015,1 hPa 0,0 l/m 10,5 km/h (2 Bft) W-SW 238 2 min 0,584 mm 3,8 UV-I 780 W/m 12,2 C 32,6 C 19,3 km/h (3 Bft) 98,15 %
06.07.2017 16:04 32,7 C 25,6 C 29 % 1015,0 hPa 0,0 l/m 14,9 km/h (3 Bft) SW 229 2 min 0,000 mm 3,6 UV-I 741 W/m 12,3 C 32,6 C 20,9 km/h (4 Bft) 96,00 %
06.07.2017 16:06 32,6 C 25,6 C 28 % 1015,1 hPa 0,0 l/m 10,2 km/h (2 Bft) SW 234 2 min 0,000 mm 3,7 UV-I 747 W/m 11,7 C 32,6 C 14,5 km/h (3 Bft) 95,74 %
06.07.2017 16:08 32,4 C 25,6 C 28 % 1014,9 hPa 0,0 l/m 6,1 km/h (2 Bft) W-SW 246 2 min 0,000 mm 3,6 UV-I 757 W/m 11,5 C 32,4 C 9,7 km/h (2 Bft) 95,74 %
06.07.2017 16:10 32,1 C 25,6 C 28 % 1015,0 hPa 0,0 l/m 5,4 km/h (1 Bft) W-SW 252 2 min 0,000 mm 2,7 UV-I 744 W/m 11,3 C 32,1 C 8,0 km/h (2 Bft) 97,56 %
06.07.2017 16:12 31,9 C 25,6 C 29 % 1015,0 hPa 0,0 l/m 10,2 km/h (2 Bft) W-SW 252 2 min 0,000 mm 3,1 UV-I 737 W/m 11,6 C 31,8 C 20,9 km/h (4 Bft) 95,74 %
06.07.2017 16:14 31,9 C 25,6 C 30 % 1014,9 hPa 0,0 l/m 9,5 km/h (2 Bft) W 277 2 min 0,000 mm 3,2 UV-I 601 W/m 12,1 C 31,8 C 14,5 km/h (3 Bft) 88,64 %
06.07.2017 16:16 32,0 C 25,6 C 30 % 1014,9 hPa 0,0 l/m 6,0 km/h (2 Bft) W-NW 284 2 min 0,000 mm 3,3 UV-I 628 W/m 12,2 C 32,0 C 11,3 km/h (2 Bft) 90,57 %
06.07.2017 16:18 32,3 C 25,6 C 30 % 1015,0 hPa 0,0 l/m 5,6 km/h (1 Bft) SW 231 2 min 0,000 mm 3,3 UV-I 705 W/m 12,5 C 32,3 C 8,0 km/h (2 Bft) 97,37 %
06.07.2017 16:20 32,6 C 25,6 C 28 % 1014,9 hPa 0,0 l/m 9,1 km/h (2 Bft) S-SW 211 2 min 0,000 mm 3,4 UV-I 705 W/m 11,7 C 32,6 C 17,7 km/h (3 Bft) 96,23 %
06.07.2017 16:22 32,7 C 25,6 C 28 % 1014,9 hPa 0,0 l/m 5,8 km/h (2 Bft) NW 308 2 min 0,000 mm 3,3 UV-I 691 W/m 11,8 C 32,7 C 9,7 km/h (2 Bft) 95,45 %
06.07.2017 16:24 32,6 C 25,6 C 28 % 1014,9 hPa 0,0 l/m 4,3 km/h (1 Bft) W 267 2 min 0,000 mm 3,2 UV-I 664 W/m 11,7 C 32,6 C 11,3 km/h (2 Bft) 96,30 %
06.07.2017 16:26 32,6 C 25,6 C 29 % 1014,9 hPa 0,0 l/m 5,0 km/h (1 Bft) SW 234 2 min 0,000 mm 3,1 UV-I 659 W/m 12,2 C 32,6 C 14,5 km/h (3 Bft) 98,57 %
06.07.2017 16:28 32,8 C 25,6 C 28 % 1014,8 hPa 0,0 l/m 4,4 km/h (1 Bft) NW 319 2 min 0,000 mm 3,1 UV-I 651 W/m 11,9 C 32,8 C 11,3 km/h (2 Bft) 98,00 %
06.07.2017 16:30 32,8 C 25,6 C 27 % 1014,8 hPa 0,0 l/m 9,0 km/h (2 Bft) N-NO 16 2 min 0,000 mm 3,0 UV-I 645 W/m 11,3 C 32,8 C 20,9 km/h (4 Bft) 94,74 %
06.07.2017 16:32 32,6 C 25,6 C 28 % 1014,8 hPa 0,0 l/m 5,4 km/h (1 Bft) W-NW 292 2 min 0,000 mm 3,0 UV-I 642 W/m 11,7 C 32,6 C 9,7 km/h (2 Bft) 96,23 %
06.07.2017 16:34 32,6 C 25,6 C 28 % 1014,9 hPa 0,0 l/m 6,2 km/h (2 Bft) S-SW 211 2 min 0,000 mm 2,9 UV-I 633 W/m 11,7 C 32,6 C 16,1 km/h (3 Bft) 93,62 %
06.07.2017 16:36 32,6 C 25,6 C 27 % 1014,9 hPa 0,0 l/m 7,5 km/h (2 Bft) W 259 2 min 0,000 mm 2,8 UV-I 624 W/m 11,1 C 32,6 C 16,1 km/h (3 Bft) 97,87 %
06.07.2017 16:38 32,6 C 25,6 C 27 % 1014,8 hPa 0,0 l/m 6,2 km/h (2 Bft) W-SW 257 2 min 0,000 mm 2,8 UV-I 603 W/m 11,1 C 32,6 C 11,3 km/h (2 Bft) 91,49 %
06.07.2017 16:40 32,4 C 25,6 C 28 % 1014,8 hPa 0,0 l/m 6,9 km/h (2 Bft) NW 305 2 min 0,000 mm 2,7 UV-I 607 W/m 11,5 C 32,4 C 12,9 km/h (3 Bft) 90,20 %
06.07.2017 16:42 32,5 C 25,6 C 28 % 1014,8 hPa 0,0 l/m 3,6 km/h (1 Bft) NW 315 2 min 0,000 mm 2,8 UV-I 614 W/m 11,6 C 32,5 C 6,4 km/h (2 Bft) 94,74 %
06.07.2017 16:44 32,6 C 25,6 C 28 % 1014,8 hPa 0,0 l/m 6,0 km/h (2 Bft) N-NO 12 2 min 0,000 mm 2,7 UV-I 609 W/m 11,7 C 32,6 C 14,5 km/h (3 Bft) 96,43 %
06.07.2017 16:46 32,6 C 25,6 C 28 % 1014,8 hPa 0,0 l/m 6,5 km/h (2 Bft) NW 319 2 min 0,000 mm 2,7 UV-I 601 W/m 11,7 C 32,6 C 12,9 km/h (3 Bft) 95,45 %
06.07.2017 16:48 32,6 C 25,6 C 28 % 1014,8 hPa 0,0 l/m 6,6 km/h (2 Bft) NW 313 2 min 0,000 mm 2,6 UV-I 594 W/m 11,7 C 32,6 C 12,9 km/h (3 Bft) 100,00 %
06.07.2017 16:50 32,3 C 25,6 C 28 % 1014,8 hPa 0,0 l/m 3,0 km/h (1 Bft) N-NW 337 2 min 0,000 mm 2,6 UV-I 590 W/m 11,4 C 32,3 C 8,0 km/h (2 Bft) 94,34 %
06.07.2017 16:52 32,4 C 25,6 C 29 % 1014,7 hPa 0,0 l/m 4,0 km/h (1 Bft) W 271 2 min 0,000 mm 2,6 UV-I 583 W/m 12,1 C 32,4 C 11,3 km/h (2 Bft) 97,87 %
06.07.2017 16:54 32,4 C 25,6 C 28 % 1014,6 hPa 0,0 l/m 6,4 km/h (2 Bft) N 10 2 min 0,000 mm 2,5 UV-I 576 W/m 11,5 C 32,4 C 12,9 km/h (3 Bft) 97,87 %
06.07.2017 16:56 32,4 C 25,6 C 28 % 1014,7 hPa 0,0 l/m 6,5 km/h (2 Bft) NO 44 2 min 0,000 mm 2,4 UV-I 570 W/m 11,5 C 32,4 C 11,3 km/h (2 Bft) 97,56 %
06.07.2017 16:58 32,4 C 25,6 C 28 % 1014,7 hPa 0,0 l/m 4,0 km/h (1 Bft) NW 323 2 min 0,000 mm 2,4 UV-I 567 W/m 11,5 C 32,4 C 9,7 km/h (2 Bft) 100,00 %
06.07.2017 17:00 32,5 C 25,6 C 30 % 1014,7 hPa 0,0 l/m 3,0 km/h (1 Bft) NW 320 2 min 0,534 mm 2,3 UV-I 560 W/m 12,7 C 32,5 C 11,3 km/h (2 Bft) 100,00 %
06.07.2017 17:02 32,7 C 25,6 C 29 % 1014,7 hPa 0,0 l/m 3,4 km/h (1 Bft) S 172 2 min 0,000 mm 2,3 UV-I 555 W/m 12,3 C 32,7 C 8,0 km/h (2 Bft) 93,62 %
06.07.2017 17:04 32,7 C 25,6 C 29 % 1014,6 hPa 0,0 l/m 4,5 km/h (1 Bft) W 273 2 min 0,000 mm 2,3 UV-I 552 W/m 12,3 C 32,7 C 9,7 km/h (2 Bft) 96,23 %
06.07.2017 17:06 32,7 C 25,6 C 27 % 1014,6 hPa 0,0 l/m 9,1 km/h (2 Bft) W 271 2 min 0,000 mm 2,2 UV-I 547 W/m 11,2 C 32,7 C 14,5 km/h (3 Bft) 96,00 %
06.07.2017 17:08 32,6 C 26,1 C 27 % 1014,6 hPa 0,0 l/m 3,4 km/h (1 Bft) W-SW 246 2 min 0,000 mm 2,2 UV-I 538 W/m 11,1 C 32,6 C 6,4 km/h (2 Bft) 92,11 %
06.07.2017 17:10 32,7 C 26,1 C 28 % 1014,6 hPa 0,0 l/m 3,4 km/h (1 Bft) W 277 2 min 0,000 mm 2,2 UV-I 533 W/m 11,8 C 32,7 C 9,7 km/h (2 Bft) 100,00 %
06.07.2017 17:12 32,8 C 26,1 C 27 % 1014,6 hPa 0,0 l/m 4,2 km/h (1 Bft) W-NW 296 2 min 0,000 mm 2,1 UV-I 527 W/m 11,3 C 32,8 C 12,9 km/h (3 Bft) 95,24 %
06.07.2017 17:14 32,8 C 26,1 C 28 % 1014,5 hPa 0,0 l/m 1,4 km/h (1 Bft) NW 321 2 min 0,000 mm 2,1 UV-I 522 W/m 11,9 C 32,8 C 4,8 km/h (1 Bft) 94,74 %
06.07.2017 17:16 32,9 C 26,1 C 27 % 1014,5 hPa 0,0 l/m 1,2 km/h (1 Bft) N-NW 329 2 min 0,000 mm 2,0 UV-I 515 W/m 11,4 C 32,9 C 4,8 km/h (1 Bft) 96,43 %
06.07.2017 17:18 32,9 C 26,1 C 28 % 1014,5 hPa 0,0 l/m 2,5 km/h (1 Bft) N 355 2 min 0,000 mm 2,0 UV-I 511 W/m 11,9 C 32,9 C 4,8 km/h (1 Bft) 96,00 %
06.07.2017 17:20 32,8 C 26,1 C 26 % 1014,4 hPa 0,0 l/m 2,8 km/h (1 Bft) NW 311 2 min 0,000 mm 2,0 UV-I 507 W/m 10,7 C 32,8 C 6,4 km/h (2 Bft) 96,00 %
06.07.2017 17:22 32,7 C 26,1 C 27 % 1014,4 hPa 0,0 l/m 6,2 km/h (2 Bft) N-NW 338 2 min 0,000 mm 1,9 UV-I 502 W/m 11,2 C 32,7 C 11,3 km/h (2 Bft) 100,00 %
06.07.2017 17:24 32,6 C 26,1 C 27 % 1014,4 hPa 0,0 l/m 4,5 km/h (1 Bft) N 9 2 min 0,000 mm 1,9 UV-I 496 W/m 11,1 C 32,6 C 9,7 km/h (2 Bft) 95,59 %
06.07.2017 17:26 32,5 C 26,1 C 26 % 1014,4 hPa 0,0 l/m 9,1 km/h (2 Bft) N-NW 338 2 min 0,000 mm 1,9 UV-I 492 W/m 10,5 C 32,5 C 14,5 km/h (3 Bft) 90,24 %
06.07.2017 17:28 32,4 C 26,1 C 27 % 1014,4 hPa 0,0 l/m 4,9 km/h (1 Bft) NW 318 2 min 0,000 mm 1,8 UV-I 487 W/m 11,0 C 32,4 C 12,9 km/h (3 Bft) 96,23 %
06.07.2017 17:30 32,3 C 26,1 C 27 % 1014,4 hPa 0,0 l/m 7,6 km/h (2 Bft) W-NW 296 2 min 0,000 mm 1,8 UV-I 477 W/m 10,9 C 32,3 C 20,9 km/h (4 Bft) 92,68 %
06.07.2017 17:32 32,2 C 26,1 C 27 % 1014,4 hPa 0,0 l/m 6,9 km/h (2 Bft) N 9 2 min 0,000 mm 1,7 UV-I 472 W/m 10,8 C 32,2 C 12,9 km/h (3 Bft) 100,00 %
06.07.2017 17:34 32,2 C 26,1 C 27 % 1014,4 hPa 0,0 l/m 5,2 km/h (1 Bft) N 11 2 min 0,000 mm 1,7 UV-I 472 W/m 10,8 C 32,2 C 12,9 km/h (3 Bft) 97,87 %
06.07.2017 17:36 32,2 C 26,1 C 27 % 1014,4 hPa 0,0 l/m 4,5 km/h (1 Bft) NW 319 2 min 0,000 mm 1,6 UV-I 462 W/m 10,8 C 32,2 C 8,0 km/h (2 Bft) 100,00 %
06.07.2017 17:38 32,1 C 26,1 C 27 % 1014,3 hPa 0,0 l/m 3,2 km/h (1 Bft) N 355 2 min 0,000 mm 1,6 UV-I 450 W/m 10,7 C 32,1 C 9,7 km/h (2 Bft) 98,11 %
06.07.2017 17:40 32,1 C 26,1 C 27 % 1014,4 hPa 0,0 l/m 3,4 km/h (1 Bft) NW 304 2 min 0,000 mm 1,6 UV-I 443 W/m 10,7 C 32,1 C 6,4 km/h (2 Bft) 95,74 %
06.07.2017 17:42 32,1 C 26,1 C 27 % 1014,3 hPa 0,0 l/m 2,5 km/h (1 Bft) NW 311 2 min 0,000 mm 1,5 UV-I 438 W/m 10,7 C 32,1 C 4,8 km/h (1 Bft) 97,37 %
06.07.2017 17:44 32,2 C 26,1 C 27 % 1014,4 hPa 0,0 l/m 5,6 km/h (1 Bft) NW 311 2 min 0,000 mm 1,5 UV-I 433 W/m 10,8 C 32,2 C 12,9 km/h (3 Bft) 100,00 %
06.07.2017 17:46 32,1 C 26,1 C 27 % 1014,3 hPa 0,0 l/m 5,1 km/h (1 Bft) NW 313 2 min 0,000 mm 1,4 UV-I 426 W/m 10,7 C 32,1 C 8,0 km/h (2 Bft) 96,23 %
06.07.2017 17:48 32,1 C 26,1 C 28 % 1014,3 hPa 0,0 l/m 6,0 km/h (2 Bft) W-NW 294 2 min 0,000 mm 1,4 UV-I 421 W/m 11,3 C 32,1 C 12,9 km/h (3 Bft) 97,73 %
06.07.2017 17:50 32,1 C 26,1 C 28 % 1014,3 hPa 0,0 l/m 5,1 km/h (1 Bft) N 351 2 min 0,000 mm 1,4 UV-I 418 W/m 11,3 C 32,1 C 14,5 km/h (3 Bft) 97,87 %
06.07.2017 17:52 32,1 C 26,1 C 27 % 1014,3 hPa 0,0 l/m 4,7 km/h (1 Bft) N 360 2 min 0,000 mm 1,4 UV-I 414 W/m 10,7 C 32,1 C 8,0 km/h (2 Bft) 86,00 %
06.07.2017 17:54 32,2 C 26,1 C 28 % 1014,1 hPa 0,0 l/m 4,0 km/h (1 Bft) N-NW 346 2 min 0,000 mm 1,3 UV-I 410 W/m 11,3 C 32,2 C 11,3 km/h (2 Bft) 90,00 %
06.07.2017 17:56 32,2 C 26,1 C 28 % 1014,1 hPa 0,0 l/m 4,3 km/h (1 Bft) NO 44 2 min 0,000 mm 1,3 UV-I 402 W/m 11,3 C 32,2 C 8,0 km/h (2 Bft) 96,30 %
06.07.2017 17:58 32,2 C 26,1 C 28 % 1014,1 hPa 0,0 l/m 2,2 km/h (1 Bft) N 9 2 min 0,000 mm 1,3 UV-I 396 W/m 11,3 C 32,2 C 4,8 km/h (1 Bft) 98,46 %
06.07.2017 18:00 32,4 C 26,1 C 29 % 1014,1 hPa 0,0 l/m 2,0 km/h (1 Bft) N-NW 338 2 min 0,000 mm 1,2 UV-I 391 W/m 12,1 C 32,4 C 3,2 km/h (1 Bft) 96,00 %
06.07.2017 18:02 32,4 C 26,1 C 28 % 1014,1 hPa 0,0 l/m 2,8 km/h (1 Bft) N-NW 342 2 min 0,381 mm 1,2 UV-I 383 W/m 11,5 C 32,4 C 6,4 km/h (2 Bft) 97,37 %
06.07.2017 18:04 32,3 C 26,1 C 28 % 1014,1 hPa 0,0 l/m 2,9 km/h (1 Bft) O-NO 59 2 min 0,000 mm 1,2 UV-I 380 W/m 11,4 C 32,3 C 6,4 km/h (2 Bft) 94,34 %
06.07.2017 18:06 32,2 C 26,1 C 28 % 1014,0 hPa 0,0 l/m 4,0 km/h (1 Bft) NW 315 2 min 0,000 mm 1,2 UV-I 376 W/m 11,3 C 32,2 C 8,0 km/h (2 Bft) 93,62 %
06.07.2017 18:08 32,1 C 26,1 C 28 % 1014,0 hPa 0,0 l/m 2,4 km/h (1 Bft) N-NW 331 2 min 0,000 mm 1,1 UV-I 371 W/m 11,3 C 32,1 C 6,4 km/h (2 Bft) 96,23 %
06.07.2017 18:10 32,1 C 26,1 C 28 % 1014,1 hPa 0,0 l/m 1,7 km/h (1 Bft) N-NW 333 2 min 0,000 mm 1,1 UV-I 363 W/m 11,3 C 32,1 C 4,8 km/h (1 Bft) 94,74 %
06.07.2017 18:12 32,0 C 26,1 C 29 % 1014,1 hPa 0,0 l/m 3,5 km/h (1 Bft) NW 308 2 min 0,000 mm 1,1 UV-I 356 W/m 11,7 C 32,0 C 8,0 km/h (2 Bft) 95,12 %
06.07.2017 18:14 31,9 C 26,1 C 29 % 1014,1 hPa 0,0 l/m 2,0 km/h (1 Bft) W-NW 299 2 min 0,000 mm 1,0 UV-I 350 W/m 11,6 C 31,9 C 4,8 km/h (1 Bft) 95,08 %
06.07.2017 18:16 31,8 C 26,1 C 29 % 1014,0 hPa 0,0 l/m 2,0 km/h (1 Bft) N-NO 20 2 min 0,000 mm 1,0 UV-I 345 W/m 11,5 C 31,8 C 4,8 km/h (1 Bft) 97,37 %
06.07.2017 18:18 31,8 C 26,1 C 29 % 1014,0 hPa 0,0 l/m 4,1 km/h (1 Bft) N 350 2 min 0,000 mm 1,0 UV-I 338 W/m 11,5 C 31,8 C 8,0 km/h (2 Bft) 97,87 %
06.07.2017 18:20 31,8 C 26,1 C 30 % 1014,0 hPa 0,0 l/m 3,8 km/h (1 Bft) N 5 2 min 0,000 mm 0,9 UV-I 331 W/m 12,1 C 31,8 C 6,4 km/h (2 Bft) 96,23 %
06.07.2017 18:22 31,7 C 26,1 C 29 % 1014,0 hPa 0,0 l/m 3,7 km/h (1 Bft) N 5 2 min 0,000 mm 0,9 UV-I 326 W/m 11,5 C 31,7 C 9,7 km/h (2 Bft) 97,37 %
06.07.2017 18:24 31,6 C 26,1 C 29 % 1014,0 hPa 0,0 l/m 2,5 km/h (1 Bft) N-NW 344 2 min 0,000 mm 0,9 UV-I 320 W/m 11,4 C 31,6 C 6,4 km/h (2 Bft) 97,73 %
06.07.2017 18:26 31,6 C 26,1 C 29 % 1014,0 hPa 0,0 l/m 2,9 km/h (1 Bft) NW 309 2 min 0,000 mm 0,9 UV-I 314 W/m 11,4 C 31,6 C 6,4 km/h (2 Bft) 98,00 %
06.07.2017 18:28 31,7 C 26,1 C 31 % 1014,0 hPa 0,0 l/m 2,9 km/h (1 Bft) W-NW 303 2 min 0,000 mm 0,8 UV-I 307 W/m 12,5 C 31,7 C 11,3 km/h (2 Bft) 92,00 %
06.07.2017 18:30 31,7 C 26,1 C 29 % 1014,0 hPa 0,0 l/m 4,1 km/h (1 Bft) NO 45 2 min 0,000 mm 0,8 UV-I 302 W/m 11,5 C 31,7 C 9,7 km/h (2 Bft) 100,00 %
06.07.2017 18:32 31,7 C 26,1 C 29 % 1013,9 hPa 0,0 l/m 3,7 km/h (1 Bft) N 351 2 min 0,000 mm 0,8 UV-I 298 W/m 11,5 C 31,7 C 11,3 km/h (2 Bft) 98,00 %
06.07.2017 18:34 31,7 C 26,1 C 29 % 1013,9 hPa 0,0 l/m 3,6 km/h (1 Bft) N-NO 18 2 min 0,000 mm 0,8 UV-I 292 W/m 11,5 C 31,7 C 8,0 km/h (2 Bft) 100,00 %
06.07.2017 18:36 31,7 C 26,1 C 29 % 1013,9 hPa 0,0 l/m 3,6 km/h (1 Bft) N-NO 25 2 min 0,000 mm 0,7 UV-I 287 W/m 11,5 C 31,7 C 6,4 km/h (2 Bft) 98,18 %
06.07.2017 18:38 31,6 C 26,1 C 28 % 1013,9 hPa 0,0 l/m 2,6 km/h (1 Bft) N-NW 343 2 min 0,000 mm 0,7 UV-I 282 W/m 10,8 C 31,6 C 6,4 km/h (2 Bft) 94,87 %
06.07.2017 18:40 31,6 C 26,1 C 29 % 1013,9 hPa 0,0 l/m 3,7 km/h (1 Bft) W-NW 288 2 min 0,000 mm 0,7 UV-I 276 W/m 11,4 C 31,6 C 8,0 km/h (2 Bft) 91,49 %
06.07.2017 18:42 31,7 C 26,1 C 29 % 1013,9 hPa 0,0 l/m 4,0 km/h (1 Bft) W 262 2 min 0,000 mm 0,7 UV-I 271 W/m 11,5 C 31,7 C 8,0 km/h (2 Bft) 92,45 %
06.07.2017 18:44 31,7 C 26,1 C 29 % 1013,9 hPa 0,0 l/m 2,9 km/h (1 Bft) W-SW 242 2 min 0,000 mm 0,7 UV-I 265 W/m 11,5 C 31,7 C 8,0 km/h (2 Bft) 96,00 %
06.07.2017 18:46 31,7 C 26,1 C 29 % 1013,8 hPa 0,0 l/m 4,4 km/h (1 Bft) W 265 2 min 0,000 mm 0,6 UV-I 262 W/m 11,5 C 31,7 C 11,3 km/h (2 Bft) 95,74 %
06.07.2017 18:48 31,7 C 26,1 C 30 % 1013,9 hPa 0,0 l/m 4,2 km/h (1 Bft) W-NW 287 2 min 0,000 mm 0,6 UV-I 257 W/m 12,0 C 31,7 C 6,4 km/h (2 Bft) 92,68 %
06.07.2017 18:50 31,7 C 26,1 C 30 % 1013,9 hPa 0,0 l/m 3,6 km/h (1 Bft) W-NW 290 2 min 0,000 mm 0,6 UV-I 252 W/m 12,0 C 31,7 C 11,3 km/h (2 Bft) 94,74 %
06.07.2017 18:52 31,7 C 26,1 C 30 % 1013,8 hPa 0,0 l/m 2,5 km/h (1 Bft) W-NW 292 2 min 0,000 mm 0,6 UV-I 248 W/m 12,0 C 31,7 C 4,8 km/h (1 Bft) 94,64 %
06.07.2017 18:54 31,7 C 26,1 C 29 % 1013,8 hPa 0,0 l/m 2,1 km/h (1 Bft) W-NW 294 2 min 0,000 mm 0,5 UV-I 242 W/m 11,5 C 31,7 C 4,8 km/h (1 Bft) 92,00 %
06.07.2017 18:56 31,6 C 26,1 C 29 % 1013,8 hPa 0,0 l/m 0,9 km/h (0 Bft) W-NW 299 2 min 0,000 mm 0,5 UV-I 235 W/m 11,4 C 31,6 C 3,2 km/h (1 Bft) 95,12 %
06.07.2017 18:58 31,6 C 26,1 C 30 % 1013,8 hPa 0,0 l/m 0,6 km/h (0 Bft) W-NW 299 2 min 0,000 mm 0,5 UV-I 230 W/m 11,9 C 31,6 C 1,6 km/h (1 Bft) 94,00 %
06.07.2017 19:00 31,6 C 26,1 C 30 % 1013,9 hPa 0,0 l/m 2,1 km/h (1 Bft) W-NW 299 2 min 0,254 mm 0,5 UV-I 225 W/m 11,9 C 31,6 C 6,4 km/h (2 Bft) 95,12 %
06.07.2017 19:02 31,6 C 26,1 C 30 % 1013,9 hPa 0,0 l/m 3,1 km/h (1 Bft) N-NW 331 2 min 0,000 mm 0,5 UV-I 220 W/m 11,9 C 31,6 C 8,0 km/h (2 Bft) 90,00 %
06.07.2017 19:04 31,7 C 26,1 C 31 % 1013,9 hPa 0,0 l/m 1,9 km/h (1 Bft) W-SW 256 2 min 0,000 mm 0,4 UV-I 216 W/m 12,5 C 31,7 C 6,4 km/h (2 Bft) 96,00 %
06.07.2017 19:06 31,6 C 26,1 C 29 % 1013,9 hPa 0,0 l/m 4,1 km/h (1 Bft) W-NW 290 2 min 0,000 mm 0,0 UV-I 210 W/m 11,4 C 31,6 C 9,7 km/h (2 Bft) 98,00 %
06.07.2017 19:08 31,6 C 26,1 C 29 % 1013,9 hPa 0,0 l/m 2,3 km/h (1 Bft) W-NW 293 2 min 0,000 mm 0,0 UV-I 208 W/m 11,4 C 31,6 C 4,8 km/h (1 Bft) 97,73 %
06.07.2017 19:10 31,5 C 26,1 C 30 % 1013,9 hPa 0,0 l/m 0,8 km/h (0 Bft) N-NW 336 2 min 0,000 mm 0,0 UV-I 201 W/m 11,8 C 31,5 C 3,2 km/h (1 Bft) 98,00 %
06.07.2017 19:12 31,4 C 26,1 C 30 % 1013,9 hPa 0,0 l/m 1,9 km/h (1 Bft) N 9 2 min 0,000 mm 0,0 UV-I 197 W/m 11,7 C 31,4 C 4,8 km/h (1 Bft) 97,44 %
06.07.2017 19:14 31,3 C 26,1 C 30 % 1013,9 hPa 0,0 l/m 2,0 km/h (1 Bft) N-NW 331 2 min 0,000 mm 0,0 UV-I 193 W/m 11,6 C 31,3 C 4,8 km/h (1 Bft) 95,74 %
06.07.2017 19:16 31,3 C 26,1 C 30 % 1013,9 hPa 0,0 l/m 1,0 km/h (0 Bft) NW 317 2 min 0,000 mm 0,0 UV-I 186 W/m 11,6 C 31,3 C 4,8 km/h (1 Bft) 96,00 %
06.07.2017 19:18 31,3 C 26,1 C 29 % 1013,9 hPa 0,0 l/m 3,7 km/h (1 Bft) N-NO 19 2 min 0,000 mm 0,0 UV-I 180 W/m 11,1 C 31,3 C 8,0 km/h (2 Bft) 95,45 %
06.07.2017 19:20 31,2 C 26,1 C 30 % 1013,9 hPa 0,0 l/m 2,5 km/h (1 Bft) N-NW 336 2 min 0,000 mm 0,0 UV-I 177 W/m 11,5 C 31,2 C 8,0 km/h (2 Bft) 95,74 %
06.07.2017 19:22 31,1 C 26,1 C 30 % 1013,9 hPa 0,0 l/m 0,9 km/h (0 Bft) N-NO 23 2 min 0,000 mm 0,0 UV-I 172 W/m 11,5 C 31,1 C 3,2 km/h (1 Bft) 94,74 %
06.07.2017 19:24 31,1 C 26,1 C 30 % 1013,9 hPa 0,0 l/m 0,7 km/h (0 Bft) NW 313 2 min 0,000 mm 0,0 UV-I 168 W/m 11,5 C 31,1 C 3,2 km/h (1 Bft) 96,61 %
06.07.2017 19:26 31,1 C 26,1 C 31 % 1014,0 hPa 0,0 l/m 0,5 km/h (0 Bft) N-NW 327 2 min 0,000 mm 0,0 UV-I 162 W/m 11,9 C 31,1 C 1,6 km/h (1 Bft) 94,00 %
06.07.2017 19:28 31,0 C 26,1 C 32 % 1014,0 hPa 0,0 l/m 0,2 km/h (0 Bft) N-NW 327 2 min 0,000 mm 0,0 UV-I 158 W/m 12,3 C 31,0 C 1,6 km/h (1 Bft) 97,56 %
06.07.2017 19:30 31,0 C 26,1 C 31 % 1014,0 hPa 0,0 l/m 0,1 km/h (0 Bft) N-NW 327 2 min 0,000 mm 0,0 UV-I 153 W/m 11,9 C 31,0 C 1,6 km/h (1 Bft) 100,00 %
06.07.2017 19:32 31,1 C 26,1 C 30 % 1014,0 hPa 0,0 l/m 0,9 km/h (0 Bft) N-NW 327 2 min 0,000 mm 0,0 UV-I 150 W/m 11,5 C 31,1 C 3,2 km/h (1 Bft) 100,00 %
06.07.2017 19:34 31,1 C 26,1 C 30 % 1014,0 hPa 0,0 l/m 1,4 km/h (1 Bft) N-NW 329 2 min 0,000 mm 0,0 UV-I 146 W/m 11,5 C 31,1 C 4,8 km/h (1 Bft) 98,00 %
06.07.2017 19:36 31,0 C 26,1 C 31 % 1014,0 hPa 0,0 l/m 1,3 km/h (1 Bft) N-NW 329 2 min 0,000 mm 0,0 UV-I 142 W/m 11,9 C 31,0 C 3,2 km/h (1 Bft) 100,00 %
06.07.2017 19:38 30,9 C 26,1 C 31 % 1014,0 hPa 0,0 l/m 0,5 km/h (0 Bft) N-NW 329 2 min 0,000 mm 0,0 UV-I 137 W/m 11,8 C 30,9 C 1,6 km/h (1 Bft) 98,00 %
06.07.2017 19:40 30,8 C 26,1 C 32 % 1014,0 hPa 0,0 l/m 2,3 km/h (1 Bft) N 351 2 min 0,000 mm 0,0 UV-I 133 W/m 12,2 C 30,8 C 4,8 km/h (1 Bft) 98,00 %
06.07.2017 19:42 30,7 C 26,1 C 32 % 1014,0 hPa 0,0 l/m 1,6 km/h (1 Bft) N-NW 342 2 min 0,000 mm 0,0 UV-I 129 W/m 12,1 C 30,7 C 3,2 km/h (1 Bft) 97,37 %
06.07.2017 19:44 30,7 C 26,1 C 32 % 1014,0 hPa 0,0 l/m 0,9 km/h (0 Bft) N-NW 341 2 min 0,000 mm 0,0 UV-I 125 W/m 12,1 C 30,7 C 3,2 km/h (1 Bft) 96,00 %
06.07.2017 19:46 30,6 C 26,1 C 32 % 1014,0 hPa 0,0 l/m 0,3 km/h (0 Bft) N-NW 341 2 min 0,000 mm 0,0 UV-I 120 W/m 12,0 C 30,6 C 1,6 km/h (1 Bft) 96,00 %
06.07.2017 19:48 30,6 C 26,1 C 32 % 1014,0 hPa 0,0 l/m 1,7 km/h (1 Bft) NW 319 2 min 0,000 mm 0,0 UV-I 117 W/m 12,0 C 30,6 C 4,8 km/h (1 Bft) 97,56 %
06.07.2017 19:50 30,5 C 26,1 C 33 % 1014,0 hPa 0,0 l/m 3,1 km/h (1 Bft) NW 308 2 min 0,000 mm 0,0 UV-I 113 W/m 12,4 C 30,5 C 8,0 km/h (2 Bft) 98,00 %
06.07.2017 19:52 30,4 C 26,1 C 32 % 1014,0 hPa 0,0 l/m 3,3 km/h (1 Bft) NW 309 2 min 0,000 mm 0,0 UV-I 111 W/m 11,8 C 30,4 C 8,0 km/h (2 Bft) 96,00 %
06.07.2017 19:54 30,3 C 26,1 C 33 % 1014,0 hPa 0,0 l/m 3,2 km/h (1 Bft) N-NW 336 2 min 0,000 mm 0,0 UV-I 106 W/m 12,2 C 30,3 C 8,0 km/h (2 Bft) 100,00 %
06.07.2017 19:56 30,3 C 26,1 C 33 % 1014,1 hPa 0,0 l/m 1,0 km/h (0 Bft) N-NW 335 2 min 0,000 mm 0,0 UV-I 101 W/m 12,2 C 30,3 C 3,2 km/h (1 Bft) 98,00 %
06.07.2017 19:58 30,2 C 26,1 C 34 % 1014,1 hPa 0,0 l/m 1,4 km/h (1 Bft) N-NW 335 2 min 0,000 mm 0,0 UV-I 98 W/m 12,6 C 30,2 C 3,2 km/h (1 Bft) 97,87 %
06.07.2017 20:00 30,1 C 26,1 C 34 % 1014,1 hPa 0,0 l/m 2,5 km/h (1 Bft) N-NW 332 2 min 0,152 mm 0,0 UV-I 92 W/m 12,5 C 30,1 C 4,8 km/h (1 Bft) 98,11 %
06.07.2017 20:02 30,0 C 26,1 C 34 % 1014,1 hPa 0,0 l/m 1,2 km/h (1 Bft) N-NW 333 2 min 0,000 mm 0,0 UV-I 90 W/m 12,4 C 30,0 C 3,2 km/h (1 Bft) 100,00 %
06.07.2017 20:04 29,8 C 26,1 C 34 % 1014,1 hPa 0,0 l/m 1,0 km/h (0 Bft) N-NW 333 2 min 0,000 mm 0,0 UV-I 86 W/m 12,2 C 29,8 C 3,2 km/h (1 Bft) 97,73 %
06.07.2017 20:06 29,8 C 26,1 C 34 % 1014,1 hPa 0,0 l/m 0,9 km/h (0 Bft) N-NW 333 2 min 0,000 mm 0,0 UV-I 83 W/m 12,2 C 29,8 C 3,2 km/h (1 Bft) 100,00 %
06.07.2017 20:08 29,7 C 26,1 C 35 % 1014,1 hPa 0,0 l/m 1,1 km/h (1 Bft) N-NW 333 2 min 0,000 mm 0,0 UV-I 79 W/m 12,6 C 29,7 C 1,6 km/h (1 Bft) 92,68 %
06.07.2017 20:10 29,6 C 26,1 C 35 % 1014,1 hPa 0,0 l/m 0,9 km/h (0 Bft) NW 319 2 min 0,000 mm 0,0 UV-I 76 W/m 12,5 C 29,6 C 4,8 km/h (1 Bft) 97,56 %
06.07.2017 20:12 29,4 C 26,1 C 35 % 1014,1 hPa 0,0 l/m 0,9 km/h (0 Bft) NW 319 2 min 0,000 mm 0,0 UV-I 71 W/m 12,3 C 29,4 C 3,2 km/h (1 Bft) 96,23 %
06.07.2017 20:14 29,3 C 26,1 C 35 % 1014,1 hPa 0,0 l/m 1,1 km/h (1 Bft) N-NW 331 2 min 0,000 mm 0,0 UV-I 69 W/m 12,2 C 29,3 C 3,2 km/h (1 Bft) 92,00 %
06.07.2017 20:16 29,2 C 26,1 C 35 % 1014,1 hPa 0,0 l/m 0,6 km/h (0 Bft) N-NW 331 2 min 0,000 mm 0,0 UV-I 64 W/m 12,1 C 29,2 C 1,6 km/h (1 Bft) 95,45 %
06.07.2017 20:18 29,1 C 26,1 C 36 % 1014,1 hPa 0,0 l/m 0,2 km/h (0 Bft) N-NW 331 2 min 0,000 mm 0,0 UV-I 62 W/m 12,5 C 29,1 C 1,6 km/h (1 Bft) 95,74 %
06.07.2017 20:20 29,0 C 26,1 C 36 % 1014,1 hPa 0,0 l/m 0,3 km/h (0 Bft) N-NW 331 2 min 0,000 mm 0,0 UV-I 59 W/m 12,4 C 29,0 C 1,6 km/h (1 Bft) 92,11 %
06.07.2017 20:22 28,9 C 26,1 C 36 % 1014,1 hPa 0,0 l/m 0,0 km/h (0 Bft) N-NW 331 2 min 0,000 mm 0,0 UV-I 54 W/m 12,3 C 28,9 C 0,0 km/h (0 Bft) 96,43 %
06.07.2017 20:24 28,8 C 26,1 C 36 % 1014,1 hPa 0,0 l/m 0,1 km/h (0 Bft) N-NW 331 2 min 0,000 mm 0,0 UV-I 49 W/m 12,2 C 28,8 C 1,6 km/h (1 Bft) 95,74 %
06.07.2017 20:26 28,8 C 26,1 C 37 % 1014,1 hPa 0,0 l/m 0,6 km/h (0 Bft) N-NW 331 0 min 0,000 mm 0,0 UV-I 38 W/m 12,6 C 28,8 C 1,6 km/h (1 Bft) 96,00 %
06.07.2017 20:28 28,7 C 26,1 C 37 % 1014,1 hPa 0,0 l/m 0,7 km/h (0 Bft) N-NW 331 0 min 0,000 mm 0,0 UV-I 30 W/m 12,5 C 28,7 C 1,6 km/h (1 Bft) 97,87 %
06.07.2017 20:30 28,6 C 26,1 C 37 % 1014,1 hPa 0,0 l/m 0,0 km/h (0 Bft) N-NW 331 0 min 0,000 mm 0,0 UV-I 25 W/m 12,5 C 28,6 C 0,0 km/h (0 Bft) 93,62 %
06.07.2017 20:32 28,4 C 26,1 C 37 % 1014,1 hPa 0,0 l/m 0,3 km/h (0 Bft) N-NW 331 0 min 0,000 mm 0,0 UV-I 23 W/m 12,3 C 28,4 C 1,6 km/h (1 Bft) 97,44 %
06.07.2017 20:34 28,3 C 26,1 C 38 % 1014,0 hPa 0,0 l/m 0,0 km/h (0 Bft) N-NW 331 0 min 0,000 mm 0,0 UV-I 19 W/m 12,6 C 28,3 C 0,0 km/h (0 Bft) 96,00 %
06.07.2017 20:36 28,1 C 26,1 C 38 % 1014,1 hPa 0,0 l/m 0,0 km/h (0 Bft) N-NW 331 0 min 0,000 mm 0,0 UV-I 18 W/m 12,4 C 28,1 C 0,0 km/h (0 Bft) 100,00 %
06.07.2017 20:38 28,0 C 26,1 C 38 % 1014,1 hPa 0,0 l/m 0,1 km/h (0 Bft) N-NW 331 0 min 0,000 mm 0,0 UV-I 17 W/m 12,3 C 28,0 C 1,6 km/h (1 Bft) 93,62 %
06.07.2017 20:40 27,9 C 26,1 C 39 % 1014,1 hPa 0,0 l/m 0,0 km/h (0 Bft) N-NW 331 0 min 0,000 mm 0,0 UV-I 15 W/m 12,6 C 27,9 C 0,0 km/h (0 Bft) 98,11 %
06.07.2017 20:42 27,8 C 26,1 C 38 % 1014,1 hPa 0,0 l/m 0,1 km/h (0 Bft) N-NW 331 0 min 0,000 mm 0,0 UV-I 14 W/m 12,2 C 27,8 C 1,6 km/h (1 Bft) 97,87 %
06.07.2017 20:44 27,7 C 26,1 C 39 % 1014,1 hPa 0,0 l/m 0,0 km/h (0 Bft) N-NW 331 0 min 0,000 mm 0,0 UV-I 12 W/m 12,5 C 27,7 C 1,6 km/h (1 Bft) 100,00 %
06.07.2017 20:46 27,5 C 26,1 C 41 % 1014,1 hPa 0,0 l/m 0,6 km/h (0 Bft) N-NW 331 0 min 0,000 mm 0,0 UV-I 12 W/m 13,1 C 27,5 C 1,6 km/h (1 Bft) 96,23 %
06.07.2017 20:48 27,3 C 26,1 C 41 % 1014,1 hPa 0,0 l/m 0,1 km/h (0 Bft) N-NW 331 0 min 0,000 mm 0,0 UV-I 11 W/m 12,9 C 27,3 C 1,6 km/h (1 Bft) 100,00 %
06.07.2017 20:50 26,9 C 26,1 C 43 % 1014,1 hPa 0,0 l/m 0,0 km/h (0 Bft) N-NW 331 0 min 0,000 mm 0,0 UV-I 11 W/m 13,2 C 26,9 C 0,0 km/h (0 Bft) 95,12 %
06.07.2017 20:52 26,6 C 26,1 C 44 % 1014,2 hPa 0,0 l/m 0,0 km/h (0 Bft) N-NW 331 2 min 0,000 mm 0,0 UV-I 10 W/m 13,3 C 26,6 C 0,0 km/h (0 Bft) 98,00 %
06.07.2017 20:54 26,3 C 26,1 C 45 % 1014,2 hPa 0,0 l/m 0,0 km/h (0 Bft) N-NW 331 0 min 0,000 mm 0,0 UV-I 9 W/m 13,4 C 26,3 C 0,0 km/h (0 Bft) 98,11 %
06.07.2017 20:56 25,9 C 26,1 C 46 % 1014,2 hPa 0,0 l/m 0,0 km/h (0 Bft) N-NW 331 0 min 0,000 mm 0,0 UV-I 9 W/m 13,4 C 25,9 C 0,0 km/h (0 Bft) 97,37 %
06.07.2017 20:58 25,7 C 25,6 C 47 % 1014,3 hPa 0,0 l/m 0,0 km/h (0 Bft) N-NW 331 0 min 0,000 mm 0,0 UV-I 9 W/m 13,5 C 25,7 C 0,0 km/h (0 Bft) 100,00 %
06.07.2017 21:00 25,4 C 25,6 C 47 % 1014,3 hPa 0,0 l/m 0,0 km/h (0 Bft) N-NW 331 0 min 0,051 mm 0,0 UV-I 7 W/m 13,3 C 25,4 C 0,0 km/h (0 Bft) 97,87 %
06.07.2017 21:02 25,2 C 25,6 C 48 % 1014,3 hPa 0,0 l/m 0,1 km/h (0 Bft) N-NW 331 0 min 0,000 mm 0,0 UV-I 7 W/m 13,4 C 25,2 C 1,6 km/h (1 Bft) 97,87 %
06.07.2017 21:04 25,1 C 25,6 C 48 % 1014,3 hPa 0,0 l/m 1,0 km/h (0 Bft) N-NW 331 0 min 0,000 mm 0,0 UV-I 7 W/m 13,3 C 25,1 C 1,6 km/h (1 Bft) 100,00 %
06.07.2017 21:06 25,0 C 25,6 C 48 % 1014,3 hPa 0,0 l/m 0,8 km/h (0 Bft) N-NW 331 0 min 0,000 mm 0,0 UV-I 7 W/m 13,2 C 25,0 C 1,6 km/h (1 Bft) 98,11 %
06.07.2017 21:08 25,0 C 25,6 C 47 % 1014,3 hPa 0,0 l/m 2,3 km/h (1 Bft) N-NW 331 0 min 0,000 mm 0,0 UV-I 5 W/m 12,9 C 25,0 C 3,2 km/h (1 Bft) 97,56 %
06.07.2017 21:10 24,9 C 25,6 C 48 % 1014,3 hPa 0,0 l/m 3,2 km/h (1 Bft) N-NW 331 0 min 0,000 mm 0,0 UV-I 5 W/m 13,1 C 24,9 C 4,8 km/h (1 Bft) 100,00 %
06.07.2017 21:12 24,9 C 25,6 C 48 % 1014,3 hPa 0,0 l/m 4,1 km/h (1 Bft) N-NW 331 0 min 0,000 mm 0,0 UV-I 5 W/m 13,1 C 24,9 C 4,8 km/h (1 Bft) 97,22 %
06.07.2017 21:14 24,8 C 25,6 C 48 % 1014,3 hPa 0,0 l/m 3,5 km/h (1 Bft) N-NW 331 0 min 0,000 mm 0,0 UV-I 5 W/m 13,0 C 24,8 C 4,8 km/h (1 Bft) 98,11 %
06.07.2017 21:16 24,7 C 25,6 C 49 % 1014,3 hPa 0,0 l/m 4,1 km/h (1 Bft) O-NO 59 0 min 0,000 mm 0,0 UV-I 5 W/m 13,3 C 24,7 C 4,8 km/h (1 Bft) 95,74 %
06.07.2017 21:18 24,6 C 25,6 C 50 % 1014,3 hPa 0,0 l/m 4,5 km/h (1 Bft) O-NO 70 0 min 0,000 mm 0,0 UV-I 5 W/m 13,5 C 24,6 C 6,4 km/h (2 Bft) 100,00 %
06.07.2017 21:20 24,4 C 25,6 C 51 % 1014,4 hPa 0,0 l/m 4,2 km/h (1 Bft) O-NO 71 0 min 0,000 mm 0,0 UV-I 1 W/m 13,6 C 24,4 C 4,8 km/h (1 Bft) 98,21 %
06.07.2017 21:22 24,2 C 25,6 C 51 % 1014,4 hPa 0,0 l/m 4,1 km/h (1 Bft) O-NO 75 0 min 0,000 mm 0,0 UV-I 0 W/m 13,4 C 24,2 C 4,8 km/h (1 Bft) 100,00 %
06.07.2017 21:24 24,1 C 25,6 C 52 % 1014,4 hPa 0,0 l/m 5,3 km/h (1 Bft) O 86 0 min 0,000 mm 0,0 UV-I 0 W/m 13,6 C 24,1 C 6,4 km/h (2 Bft) 97,37 %
06.07.2017 21:26 24,0 C 25,6 C 51 % 1014,5 hPa 0,0 l/m 5,0 km/h (1 Bft) O 86 0 min 0,000 mm 0,0 UV-I 0 W/m 13,2 C 24,0 C 6,4 km/h (2 Bft) 100,00 %
06.07.2017 21:28 23,9 C 25,6 C 52 % 1014,5 hPa 0,0 l/m 4,2 km/h (1 Bft) O 86 0 min 0,000 mm 0,0 UV-I 0 W/m 13,4 C 23,9 C 6,4 km/h (2 Bft) 100,00 %
06.07.2017 21:30 23,8 C 25,6 C 52 % 1014,5 hPa 0,0 l/m 3,3 km/h (1 Bft) O 86 0 min 0,000 mm 0,0 UV-I 0 W/m 13,3 C 23,8 C 4,8 km/h (1 Bft) 94,74 %
06.07.2017 21:32 23,7 C 25,6 C 52 % 1014,5 hPa 0,0 l/m 4,1 km/h (1 Bft) O 86 0 min 0,000 mm 0,0 UV-I 0 W/m 13,2 C 23,7 C 4,8 km/h (1 Bft) 98,11 %
06.07.2017 21:34 23,7 C 25,6 C 52 % 1014,5 hPa 0,0 l/m 3,8 km/h (1 Bft) O 86 0 min 0,000 mm 0,0 UV-I 0 W/m 13,2 C 23,7 C 4,8 km/h (1 Bft) 100,00 %
06.07.2017 21:36 23,7 C 25,6 C 53 % 1014,5 hPa 0,0 l/m 2,7 km/h (1 Bft) O 86 0 min 0,000 mm 0,0 UV-I 0 W/m 13,5 C 23,7 C 4,8 km/h (1 Bft) 97,87 %
06.07.2017 21:38 23,6 C 25,6 C 53 % 1014,5 hPa 0,0 l/m 3,1 km/h (1 Bft) O 86 0 min 0,000 mm 0,0 UV-I 0 W/m 13,4 C 23,6 C 4,8 km/h (1 Bft) 97,56 %
06.07.2017 21:40 23,6 C 25,6 C 52 % 1014,5 hPa 0,0 l/m 3,8 km/h (1 Bft) O 86 0 min 0,000 mm 0,0 UV-I 0 W/m 13,2 C 23,6 C 4,8 km/h (1 Bft) 97,87 %
06.07.2017 21:42 23,7 C 25,6 C 53 % 1014,5 hPa 0,0 l/m 1,9 km/h (1 Bft) O 86 0 min 0,000 mm 0,0 UV-I 0 W/m 13,5 C 23,7 C 4,8 km/h (1 Bft) 98,00 %
06.07.2017 21:44 23,8 C 25,6 C 52 % 1014,5 hPa 0,0 l/m 0,0 km/h (0 Bft) O 86 0 min 0,000 mm 0,0 UV-I 0 W/m 13,3 C 23,8 C 0,0 km/h (0 Bft) 97,56 %
06.07.2017 21:46 23,8 C 25,6 C 54 % 1014,5 hPa 0,0 l/m 0,2 km/h (0 Bft) O 86 0 min 0,000 mm 0,0 UV-I 0 W/m 13,9 C 23,8 C 1,6 km/h (1 Bft) 96,23 %
06.07.2017 21:48 23,7 C 25,6 C 54 % 1014,6 hPa 0,0 l/m 0,6 km/h (0 Bft) O 86 0 min 0,000 mm 0,0 UV-I 0 W/m 13,8 C 23,7 C 1,6 km/h (1 Bft) 100,00 %
06.07.2017 21:50 23,7 C 25,6 C 55 % 1014,5 hPa 0,0 l/m 0,3 km/h (0 Bft) O 86 0 min 0,000 mm 0,0 UV-I 0 W/m 14,1 C 23,7 C 1,6 km/h (1 Bft) 100,00 %
06.07.2017 21:52 23,7 C 25,6 C 55 % 1014,6 hPa 0,0 l/m 0,5 km/h (0 Bft) O 86 0 min 0,000 mm 0,0 UV-I 0 W/m 14,1 C 23,7 C 1,6 km/h (1 Bft) 100,00 %
06.07.2017 21:54 23,6 C 25,6 C 55 % 1014,6 hPa 0,0 l/m 1,6 km/h (1 Bft) O 86 0 min 0,000 mm 0,0 UV-I 0 W/m 14,0 C 23,6 C 3,2 km/h (1 Bft) 100,00 %
06.07.2017 21:56 23,5 C 25,6 C 54 % 1014,7 hPa 0,0 l/m 1,6 km/h (1 Bft) O 88 0 min 0,000 mm 0,0 UV-I 0 W/m 13,6 C 23,5 C 3,2 km/h (1 Bft) 97,37 %
06.07.2017 21:58 23,4 C 25,6 C 54 % 1014,7 hPa 0,0 l/m 2,2 km/h (1 Bft) O 89 0 min 0,000 mm 0,0 UV-I 0 W/m 13,6 C 23,4 C 4,8 km/h (1 Bft) 96,00 %
06.07.2017 22:00 23,4 C 25,6 C 54 % 1014,7 hPa 0,0 l/m 2,5 km/h (1 Bft) O 89 0 min 0,025 mm 0,0 UV-I 0 W/m 13,6 C 23,4 C 3,2 km/h (1 Bft) 95,12 %
06.07.2017 22:02 23,4 C 25,6 C 53 % 1014,8 hPa 0,0 l/m 2,3 km/h (1 Bft) O 89 0 min 0,000 mm 0,0 UV-I 0 W/m 13,3 C 23,4 C 3,2 km/h (1 Bft) 94,92 %
06.07.2017 22:04 23,4 C 25,6 C 53 % 1014,8 hPa 0,0 l/m 1,4 km/h (1 Bft) O 89 0 min 0,000 mm 0,0 UV-I 0 W/m 13,3 C 23,4 C 3,2 km/h (1 Bft) 93,62 %
06.07.2017 22:06 23,3 C 25,6 C 54 % 1014,8 hPa 0,0 l/m 0,8 km/h (0 Bft) O 89 0 min 0,000 mm 0,0 UV-I 0 W/m 13,5 C 23,3 C 1,6 km/h (1 Bft) 95,12 %
06.07.2017 22:08 23,3 C 25,6 C 54 % 1014,7 hPa 0,0 l/m 0,7 km/h (0 Bft) O 89 0 min 0,000 mm 0,0 UV-I 0 W/m 13,5 C 23,3 C 3,2 km/h (1 Bft) 93,62 %
06.07.2017 22:10 23,2 C 25,6 C 54 % 1014,7 hPa 0,0 l/m 2,4 km/h (1 Bft) O 89 0 min 0,000 mm 0,0 UV-I 0 W/m 13,4 C 23,2 C 4,8 km/h (1 Bft) 93,62 %
06.07.2017 22:12 23,2 C 25,6 C 54 % 1014,8 hPa 0,0 l/m 1,0 km/h (0 Bft) O 89 0 min 0,000 mm 0,0 UV-I 0 W/m 13,4 C 23,2 C 1,6 km/h (1 Bft) 95,45 %
06.07.2017 22:14 23,1 C 25,6 C 53 % 1014,8 hPa 0,0 l/m 1,9 km/h (1 Bft) O 89 0 min 0,000 mm 0,0 UV-I 0 W/m 13,0 C 23,1 C 3,2 km/h (1 Bft) 91,49 %
06.07.2017 22:16 23,1 C 25,6 C 53 % 1014,8 hPa 0,0 l/m 2,4 km/h (1 Bft) O 89 0 min 0,000 mm 0,0 UV-I 0 W/m 13,0 C 23,1 C 3,2 km/h (1 Bft) 96,00 %
06.07.2017 22:18 23,1 C 25,6 C 54 % 1014,8 hPa 0,0 l/m 2,6 km/h (1 Bft) O 89 0 min 0,000 mm 0,0 UV-I 0 W/m 13,3 C 23,1 C 4,8 km/h (1 Bft) 94,34 %
06.07.2017 22:20 23,0 C 25,6 C 55 % 1014,8 hPa 0,0 l/m 1,9 km/h (1 Bft) O 89 0 min 0,000 mm 0,0 UV-I 0 W/m 13,5 C 23,0 C 3,2 km/h (1 Bft) 89,47 %
06.07.2017 22:22 22,9 C 25,6 C 56 % 1014,7 hPa 0,0 l/m 0,5 km/h (0 Bft) O 89 0 min 0,000 mm 0,0 UV-I 0 W/m 13,6 C 22,9 C 1,6 km/h (1 Bft) 98,00 %
06.07.2017 22:24 22,8 C 25,6 C 56 % 1014,7 hPa 0,0 l/m 1,9 km/h (1 Bft) O 89 0 min 0,000 mm 0,0 UV-I 0 W/m 13,6 C 22,8 C 3,2 km/h (1 Bft) 92,31 %
06.07.2017 22:26 22,8 C 25,6 C 57 % 1014,7 hPa 0,0 l/m 0,1 km/h (0 Bft) O 89 0 min 0,000 mm 0,0 UV-I 0 W/m 13,8 C 22,8 C 1,6 km/h (1 Bft) 96,00 %
06.07.2017 22:28 22,7 C 25,6 C 57 % 1014,7 hPa 0,0 l/m 0,6 km/h (0 Bft) O 89 0 min 0,000 mm 0,0 UV-I 0 W/m 13,7 C 22,7 C 3,2 km/h (1 Bft) 94,74 %
06.07.2017 22:30 22,7 C 25,6 C 56 % 1014,8 hPa 0,0 l/m 2,9 km/h (1 Bft) O 89 0 min 0,000 mm 0,0 UV-I 0 W/m 13,5 C 22,7 C 4,8 km/h (1 Bft) 96,88 %
06.07.2017 22:32 22,8 C 25,6 C 56 % 1014,8 hPa 0,0 l/m 2,9 km/h (1 Bft) O 89 0 min 0,000 mm 0,0 UV-I 0 W/m 13,6 C 22,8 C 4,8 km/h (1 Bft) 94,44 %
06.07.2017 22:34 22,7 C 25,6 C 57 % 1014,7 hPa 0,0 l/m 1,2 km/h (1 Bft) O 89 0 min 0,000 mm 0,0 UV-I 0 W/m 13,7 C 22,7 C 3,2 km/h (1 Bft) 96,23 %
06.07.2017 22:36 22,7 C 25,6 C 57 % 1014,7 hPa 0,0 l/m 2,6 km/h (1 Bft) O 89 0 min 0,000 mm 0,0 UV-I 0 W/m 13,7 C 22,7 C 4,8 km/h (1 Bft) 95,74 %
06.07.2017 22:38 22,6 C 25,6 C 57 % 1014,8 hPa 0,0 l/m 3,2 km/h (1 Bft) O 89 0 min 0,000 mm 0,0 UV-I 0 W/m 13,6 C 22,6 C 4,8 km/h (1 Bft) 97,87 %
06.07.2017 22:40 22,5 C 25,6 C 57 % 1014,8 hPa 0,0 l/m 4,1 km/h (1 Bft) S-SO 158 0 min 0,000 mm 0,0 UV-I 0 W/m 13,5 C 22,5 C 6,4 km/h (2 Bft) 96,00 %
06.07.2017 22:42 22,4 C 25,6 C 57 % 1014,7 hPa 0,0 l/m 3,8 km/h (1 Bft) S-SO 158 0 min 0,000 mm 0,0 UV-I 0 W/m 13,5 C 22,4 C 4,8 km/h (1 Bft) 95,74 %
06.07.2017 22:44 22,4 C 25,6 C 58 % 1014,7 hPa 0,0 l/m 2,3 km/h (1 Bft) S-SO 158 0 min 0,000 mm 0,0 UV-I 0 W/m 13,7 C 22,4 C 3,2 km/h (1 Bft) 96,00 %
06.07.2017 22:46 22,3 C 25,6 C 58 % 1014,7 hPa 0,0 l/m 2,5 km/h (1 Bft) S-SO 158 0 min 0,000 mm 0,0 UV-I 0 W/m 13,6 C 22,3 C 3,2 km/h (1 Bft) 95,12 %
06.07.2017 22:48 22,2 C 25,6 C 58 % 1014,8 hPa 0,0 l/m 3,2 km/h (1 Bft) S-SO 158 0 min 0,000 mm 0,0 UV-I 0 W/m 13,5 C 22,2 C 4,8 km/h (1 Bft) 98,00 %
06.07.2017 22:50 22,3 C 25,6 C 57 % 1014,8 hPa 0,0 l/m 2,7 km/h (1 Bft) S-SO 158 0 min 0,000 mm 0,0 UV-I 0 W/m 13,4 C 22,3 C 3,2 km/h (1 Bft) 95,74 %
06.07.2017 22:52 22,3 C 25,6 C 58 % 1014,8 hPa 0,0 l/m 2,5 km/h (1 Bft) S-SO 158 0 min 0,000 mm 0,0 UV-I 0 W/m 13,6 C 22,3 C 3,2 km/h (1 Bft) 95,12 %
06.07.2017 22:54 22,4 C 25,6 C 58 % 1014,8 hPa 0,0 l/m 1,8 km/h (1 Bft) S-SO 158 0 min 0,000 mm 0,0 UV-I 0 W/m 13,7 C 22,4 C 4,8 km/h (1 Bft) 91,49 %
06.07.2017 22:56 22,4 C 25,6 C 57 % 1014,8 hPa 0,0 l/m 1,9 km/h (1 Bft) S-SO 158 0 min 0,000 mm 0,0 UV-I 0 W/m 13,5 C 22,4 C 4,8 km/h (1 Bft) 96,23 %
06.07.2017 22:58 22,5 C 25,6 C 57 % 1014,7 hPa 0,0 l/m 1,7 km/h (1 Bft) S-SO 158 0 min 0,000 mm 0,0 UV-I 0 W/m 13,5 C 22,5 C 4,8 km/h (1 Bft) 97,56 %
06.07.2017 23:00 22,5 C 25,6 C 58 % 1014,7 hPa 0,0 l/m 2,1 km/h (1 Bft) S-SO 158 0 min 0,026 mm 0,0 UV-I 0 W/m 13,8 C 22,5 C 4,8 km/h (1 Bft) 96,00 %
06.07.2017 23:02 22,5 C 25,6 C 58 % 1014,7 hPa 0,0 l/m 3,1 km/h (1 Bft) S-SO 159 0 min 0,000 mm 0,0 UV-I 0 W/m 13,8 C 22,5 C 6,4 km/h (2 Bft) 96,00 %
06.07.2017 23:04 22,4 C 25,6 C 58 % 1014,8 hPa 0,0 l/m 4,6 km/h (1 Bft) S-SO 159 0 min 0,000 mm 0,0 UV-I 0 W/m 13,7 C 22,4 C 8,0 km/h (2 Bft) 95,12 %
06.07.2017 23:06 22,4 C 25,6 C 59 % 1014,7 hPa 0,0 l/m 3,7 km/h (1 Bft) S-SO 159 0 min 0,000 mm 0,0 UV-I 0 W/m 14,0 C 22,4 C 6,4 km/h (2 Bft) 96,00 %
06.07.2017 23:08 22,5 C 25,6 C 58 % 1014,8 hPa 0,0 l/m 2,4 km/h (1 Bft) S-SO 159 0 min 0,000 mm 0,0 UV-I 0 W/m 13,8 C 22,5 C 3,2 km/h (1 Bft) 100,00 %
06.07.2017 23:10 22,5 C 25,6 C 59 % 1014,7 hPa 0,0 l/m 2,0 km/h (1 Bft) S-SO 159 0 min 0,000 mm 0,0 UV-I 0 W/m 14,1 C 22,5 C 3,2 km/h (1 Bft) 97,62 %
06.07.2017 23:12 22,4 C 25,6 C 59 % 1014,7 hPa 0,0 l/m 2,8 km/h (1 Bft) S-SO 159 0 min 0,000 mm 0,0 UV-I 0 W/m 14,0 C 22,4 C 6,4 km/h (2 Bft) 100,00 %
06.07.2017 23:14 22,3 C 25,6 C 59 % 1014,7 hPa 0,0 l/m 3,1 km/h (1 Bft) S-SO 159 0 min 0,000 mm 0,0 UV-I 0 W/m 13,9 C 22,3 C 6,4 km/h (2 Bft) 95,12 %
06.07.2017 23:16 22,2 C 25,6 C 60 % 1014,7 hPa 0,0 l/m 2,8 km/h (1 Bft) S-SO 159 0 min 0,000 mm 0,0 UV-I 0 W/m 14,1 C 22,2 C 6,4 km/h (2 Bft) 100,00 %
06.07.2017 23:18 22,2 C 25,6 C 60 % 1014,7 hPa 0,0 l/m 2,0 km/h (1 Bft) S-SO 159 0 min 0,000 mm 0,0 UV-I 0 W/m 14,1 C 22,2 C 6,4 km/h (2 Bft) 100,00 %
06.07.2017 23:20 22,2 C 25,6 C 60 % 1014,7 hPa 0,0 l/m 2,5 km/h (1 Bft) S-SO 159 0 min 0,000 mm 0,0 UV-I 0 W/m 14,1 C 22,2 C 6,4 km/h (2 Bft) 100,00 %
06.07.2017 23:22 22,1 C 25,6 C 61 % 1014,7 hPa 0,0 l/m 3,8 km/h (1 Bft) S-SO 159 0 min 0,000 mm 0,0 UV-I 0 W/m 14,2 C 22,1 C 8,0 km/h (2 Bft) 97,87 %
06.07.2017 23:24 22,1 C 25,6 C 61 % 1014,8 hPa 0,0 l/m 4,1 km/h (1 Bft) S-SO 159 0 min 0,000 mm 0,0 UV-I 0 W/m 14,2 C 22,1 C 8,0 km/h (2 Bft) 98,00 %
06.07.2017 23:26 22,0 C 25,6 C 62 % 1014,7 hPa 0,0 l/m 4,6 km/h (1 Bft) S-SO 159 0 min 0,000 mm 0,0 UV-I 0 W/m 14,4 C 22,0 C 8,0 km/h (2 Bft) 95,74 %
06.07.2017 23:28 21,9 C 25,6 C 62 % 1014,8 hPa 0,0 l/m 5,1 km/h (1 Bft) S-SO 160 0 min 0,000 mm 0,0 UV-I 0 W/m 14,3 C 21,9 C 8,0 km/h (2 Bft) 100,00 %
06.07.2017 23:30 21,9 C 25,6 C 62 % 1014,8 hPa 0,0 l/m 6,4 km/h (2 Bft) S-SW 193 0 min 0,000 mm 0,0 UV-I 0 W/m 14,3 C 21,9 C 9,7 km/h (2 Bft) 97,37 %
06.07.2017 23:32 21,8 C 25,6 C 62 % 1014,8 hPa 0,0 l/m 6,2 km/h (2 Bft) S-SW 200 0 min 0,000 mm 0,0 UV-I 0 W/m 14,2 C 21,8 C 8,0 km/h (2 Bft) 98,21 %
06.07.2017 23:34 21,8 C 25,6 C 62 % 1014,8 hPa 0,0 l/m 5,8 km/h (2 Bft) S-SW 200 0 min 0,000 mm 0,0 UV-I 0 W/m 14,2 C 21,8 C 8,0 km/h (2 Bft) 97,87 %
06.07.2017 23:36 21,8 C 25,6 C 62 % 1014,8 hPa 0,0 l/m 5,1 km/h (1 Bft) S 190 0 min 0,000 mm 0,0 UV-I 0 W/m 14,2 C 21,8 C 6,4 km/h (2 Bft) 94,74 %
06.07.2017 23:38 21,8 C 25,6 C 62 % 1014,8 hPa 0,0 l/m 5,0 km/h (1 Bft) S 190 0 min 0,000 mm 0,0 UV-I 0 W/m 14,2 C 21,8 C 6,4 km/h (2 Bft) 100,00 %
06.07.2017 23:40 21,8 C 25,6 C 61 % 1014,8 hPa 0,0 l/m 5,1 km/h (1 Bft) S 190 0 min 0,000 mm 0,0 UV-I 0 W/m 13,9 C 21,8 C 6,4 km/h (2 Bft) 100,00 %
06.07.2017 23:42 21,9 C 25,6 C 62 % 1014,8 hPa 0,0 l/m 4,4 km/h (1 Bft) S 190 0 min 0,000 mm 0,0 UV-I 0 W/m 14,3 C 21,9 C 6,4 km/h (2 Bft) 98,00 %
06.07.2017 23:44 21,9 C 25,6 C 62 % 1014,8 hPa 0,0 l/m 4,9 km/h (1 Bft) S 190 0 min 0,000 mm 0,0 UV-I 0 W/m 14,3 C 21,9 C 6,4 km/h (2 Bft) 97,73 %
06.07.2017 23:46 21,9 C 25,6 C 62 % 1014,9 hPa 0,0 l/m 3,7 km/h (1 Bft) S 190 0 min 0,000 mm 0,0 UV-I 0 W/m 14,3 C 21,9 C 4,8 km/h (1 Bft) 100,00 %
06.07.2017 23:48 21,8 C 25,6 C 62 % 1014,9 hPa 0,0 l/m 2,5 km/h (1 Bft) O-NO 57 0 min 0,000 mm 0,0 UV-I 0 W/m 14,2 C 21,8 C 9,7 km/h (2 Bft) 97,44 %
06.07.2017 23:50 21,7 C 25,6 C 62 % 1015,0 hPa 0,0 l/m 9,3 km/h (2 Bft) NO 36 0 min 0,000 mm 0,0 UV-I 0 W/m 14,1 C 20,7 C 11,3 km/h (2 Bft) 100,00 %
06.07.2017 23:52 21,4 C 25,6 C 63 % 1014,9 hPa 0,0 l/m 4,3 km/h (1 Bft) N-NO 32 0 min 0,000 mm 0,0 UV-I 0 W/m 14,1 C 21,4 C 9,7 km/h (2 Bft) 97,87 %
06.07.2017 23:54 21,3 C 25,6 C 63 % 1014,9 hPa 0,0 l/m 0,5 km/h (0 Bft) NO 42 0 min 0,000 mm 0,0 UV-I 0 W/m 14,0 C 21,3 C 4,8 km/h (1 Bft) 98,00 %
06.07.2017 23:56 21,3 C 25,6 C 63 % 1015,0 hPa 0,0 l/m 6,2 km/h (2 Bft) O-NO 67 0 min 0,000 mm 0,0 UV-I 0 W/m 14,0 C 21,3 C 8,0 km/h (2 Bft) 100,00 %
06.07.2017 23:58 21,3 C 25,6 C 63 % 1015,1 hPa 0,0 l/m 2,8 km/h (1 Bft) O-NO 67 0 min 0,000 mm 0,0 UV-I 0 W/m 14,0 C 21,3 C 4,8 km/h (1 Bft) 96,00 %
_ Min-Zeit 05:32 01:34 17:20 18:46 - 03:18 - - - - - - 17:26 05:34 03:20 13:36
Minimum _ 16,6 C 23,3 C 26 % 1013,8 hPa - 0,0 km/h (0 Bft) - - - - - - 10,5 C 16,6 C 0,0 km/h (0 Bft) 84,91 %
_ Max-Zeit 17:16 17:08 05:30 08:40 00:00 14:42 - - 11:40 15:00 12:56 13:16 10:26 17:16 14:42 00:10
Maximum _ 32,9 C 26,1 C 84 % 1017,5 hPa 0,0 l/m 17,2 km/h
W-SW (3 Bft)
- - 4 min 0,686 mm 6,4 UV-I 902 W/m 16,7 C 32,9 C 25,7 km/h
W-SW (4 Bft)
100,00 %
Durchschnitt _ 24,9 C 24,5 C 54 % 1015,7 hPa #0,0 l/m 3,7 km/h (1 Bft) S-SW - #13:40 h #6,020 mm 3,5 UV-I 489 W/m 13,8 C 24,9 C 7,1 km/h (2 Bft) 96,61 %